<?xml version='1.0' encoding='UTF-8'?><gpx version="1.1" creator="JPX - https://github.com/jenetics/jpx" xmlns="http://www.topografix.com/GPX/1/1"><trk><trkseg><trkpt lat="43.8981317" lon="12.9111499"><ele>7.0</ele><time>2026-04-26T08:46:54.847Z</time></trkpt><trkpt lat="43.8982093" lon="12.9111105"><ele>6.999999999999999</ele><time>2026-04-26T08:46:56.817Z</time></trkpt><trkpt lat="43.8980782" lon="12.9111552"><ele>6.999999999999999</ele><time>2026-04-26T08:49:51.742Z</time></trkpt><trkpt lat="43.8981033" lon="12.9110597"><ele>7.0</ele><time>2026-04-26T08:49:54.742Z</time></trkpt><trkpt lat="43.898098" lon="12.9109276"><ele>7.0</ele><time>2026-04-26T08:49:57.749Z</time></trkpt><trkpt lat="43.8981018" lon="12.9108161"><ele>7.000000000000001</ele><time>2026-04-26T08:49:59.729Z</time></trkpt><trkpt lat="43.8981031" lon="12.9107227"><ele>7.0</ele><time>2026-04-26T08:50:02.732Z</time></trkpt><trkpt lat="43.8981049" lon="12.9108273"><ele>7.0</ele><time>2026-04-26T08:50:16.734Z</time></trkpt><trkpt lat="43.8980862" lon="12.9109248"><ele>7.0</ele><time>2026-04-26T08:50:19.737Z</time></trkpt><trkpt lat="43.8980386" lon="12.9109834"><ele>7.000000000000001</ele><time>2026-04-26T08:50:24.742Z</time></trkpt><trkpt lat="43.8981466" lon="12.9110241"><ele>7.0</ele><time>2026-04-26T08:51:12.766Z</time></trkpt><trkpt lat="43.8980741" lon="12.9110387"><ele>7.0</ele><time>2026-04-26T08:51:48.745Z</time></trkpt><trkpt lat="43.8979894" lon="12.9110277"><ele>6.999999999999999</ele><time>2026-04-26T08:51:50.746Z</time></trkpt><trkpt lat="43.8977968" lon="12.9108758"><ele>6.999999999999999</ele><time>2026-04-26T08:51:52.737Z</time></trkpt><trkpt lat="43.897824" lon="12.9107926"><ele>7.0</ele><time>2026-04-26T08:51:55.75Z</time></trkpt><trkpt lat="43.897808" lon="12.9107024"><ele>7.0</ele><time>2026-04-26T08:51:59.741Z</time></trkpt><trkpt lat="43.8977489" lon="12.9106291"><ele>7.0</ele><time>2026-04-26T08:52:04.732Z</time></trkpt><trkpt lat="43.8976771" lon="12.9105432"><ele>7.0</ele><time>2026-04-26T08:52:07.73Z</time></trkpt><trkpt lat="43.8976147" lon="12.9104563"><ele>7.0</ele><time>2026-04-26T08:52:10.729Z</time></trkpt><trkpt lat="43.8973766" lon="12.9106765"><ele>7.0</ele><time>2026-04-26T08:52:12.743Z</time></trkpt><trkpt lat="43.8972949" lon="12.9107964"><ele>6.999999999999999</ele><time>2026-04-26T08:52:14.744Z</time></trkpt><trkpt lat="43.8972494" lon="12.9108619"><ele>6.999999999999999</ele><time>2026-04-26T08:52:17.752Z</time></trkpt><trkpt lat="43.8971744" lon="12.9109212"><ele>7.0</ele><time>2026-04-26T08:52:18.747Z</time></trkpt><trkpt lat="43.8970618" lon="12.910863"><ele>7.0</ele><time>2026-04-26T08:52:21.742Z</time></trkpt><trkpt lat="43.8969631" lon="12.9107911"><ele>7.000000000000001</ele><time>2026-04-26T08:52:22.742Z</time></trkpt><trkpt lat="43.8968855" lon="12.9107709"><ele>7.0</ele><time>2026-04-26T08:52:24.753Z</time></trkpt><trkpt lat="43.896824" lon="12.9107092"><ele>7.0</ele><time>2026-04-26T08:52:25.739Z</time></trkpt><trkpt lat="43.8967117" lon="12.9106474"><ele>7.0</ele><time>2026-04-26T08:52:27.764Z</time></trkpt><trkpt lat="43.8966378" lon="12.9106215"><ele>7.000000000000001</ele><time>2026-04-26T08:52:28.752Z</time></trkpt><trkpt lat="43.8965416" lon="12.9106275"><ele>7.0</ele><time>2026-04-26T08:52:29.745Z</time></trkpt><trkpt lat="43.8964814" lon="12.9105971"><ele>7.199999999999999</ele><time>2026-04-26T08:52:30.765Z</time></trkpt><trkpt lat="43.8964225" lon="12.9105459"><ele>7.3999999999999995</ele><time>2026-04-26T08:52:31.741Z</time></trkpt><trkpt lat="43.896318" lon="12.9105032"><ele>7.6000000000000005</ele><time>2026-04-26T08:52:33.733Z</time></trkpt><trkpt lat="43.8962388" lon="12.910479"><ele>7.800000000000001</ele><time>2026-04-26T08:52:34.737Z</time></trkpt><trkpt lat="43.8961628" lon="12.9104135"><ele>8.0</ele><time>2026-04-26T08:52:35.74Z</time></trkpt><trkpt lat="43.8960515" lon="12.9103765"><ele>8.0</ele><time>2026-04-26T08:52:37.76Z</time></trkpt><trkpt lat="43.8959825" lon="12.9103714"><ele>8.0</ele><time>2026-04-26T08:52:38.729Z</time></trkpt><trkpt lat="43.8959439" lon="12.91029"><ele>8.0</ele><time>2026-04-26T08:52:39.729Z</time></trkpt><trkpt lat="43.8958375" lon="12.9102105"><ele>8.0</ele><time>2026-04-26T08:52:41.743Z</time></trkpt><trkpt lat="43.8957197" lon="12.910151"><ele>8.0</ele><time>2026-04-26T08:52:43.738Z</time></trkpt><trkpt lat="43.895621" lon="12.9101253"><ele>8.0</ele><time>2026-04-26T08:52:45.741Z</time></trkpt><trkpt lat="43.8955555" lon="12.9100766"><ele>8.0</ele><time>2026-04-26T08:52:47.751Z</time></trkpt><trkpt lat="43.8954602" lon="12.9100316"><ele>8.0</ele><time>2026-04-26T08:52:49.74Z</time></trkpt><trkpt lat="43.8954024" lon="12.9099837"><ele>8.0</ele><time>2026-04-26T08:52:50.745Z</time></trkpt><trkpt lat="43.8952954" lon="12.9099096"><ele>8.0</ele><time>2026-04-26T08:52:52.732Z</time></trkpt><trkpt lat="43.8951887" lon="12.9097934"><ele>8.166666666666666</ele><time>2026-04-26T08:52:54.732Z</time></trkpt><trkpt lat="43.8950894" lon="12.9097612"><ele>8.333333333333332</ele><time>2026-04-26T08:52:56.741Z</time></trkpt><trkpt lat="43.89501" lon="12.9097206"><ele>8.5</ele><time>2026-04-26T08:52:58.732Z</time></trkpt><trkpt lat="43.8949147" lon="12.9096701"><ele>8.666666666666666</ele><time>2026-04-26T08:53:00.737Z</time></trkpt><trkpt lat="43.8948488" lon="12.9096274"><ele>8.833333333333334</ele><time>2026-04-26T08:53:01.736Z</time></trkpt><trkpt lat="43.894788" lon="12.9095936"><ele>9.0</ele><time>2026-04-26T08:53:02.733Z</time></trkpt><trkpt lat="43.894709" lon="12.9095448"><ele>9.0</ele><time>2026-04-26T08:53:03.764Z</time></trkpt><trkpt lat="43.8946127" lon="12.909506"><ele>9.0</ele><time>2026-04-26T08:53:04.735Z</time></trkpt><trkpt lat="43.8945061" lon="12.9094359"><ele>9.0</ele><time>2026-04-26T08:53:06.751Z</time></trkpt><trkpt lat="43.8944209" lon="12.9093925"><ele>9.0</ele><time>2026-04-26T08:53:07.754Z</time></trkpt><trkpt lat="43.8943319" lon="12.9093355"><ele>9.0</ele><time>2026-04-26T08:53:09.738Z</time></trkpt><trkpt lat="43.8942345" lon="12.9092542"><ele>9.2</ele><time>2026-04-26T08:53:11.761Z</time></trkpt><trkpt lat="43.8941668" lon="12.9092183"><ele>9.4</ele><time>2026-04-26T08:53:12.767Z</time></trkpt><trkpt lat="43.8940643" lon="12.9091569"><ele>9.6</ele><time>2026-04-26T08:53:14.767Z</time></trkpt><trkpt lat="43.8940053" lon="12.9091124"><ele>9.8</ele><time>2026-04-26T08:53:15.74Z</time></trkpt><trkpt lat="43.8938955" lon="12.90902"><ele>10.0</ele><time>2026-04-26T08:53:17.739Z</time></trkpt><trkpt lat="43.8937924" lon="12.9089431"><ele>10.0</ele><time>2026-04-26T08:53:19.751Z</time></trkpt><trkpt lat="43.8937395" lon="12.9088848"><ele>10.0</ele><time>2026-04-26T08:53:20.757Z</time></trkpt><trkpt lat="43.8936303" lon="12.9087956"><ele>10.0</ele><time>2026-04-26T08:53:22.743Z</time></trkpt><trkpt lat="43.8935694" lon="12.9087726"><ele>10.0</ele><time>2026-04-26T08:53:23.737Z</time></trkpt><trkpt lat="43.8934557" lon="12.9087096"><ele>10.0</ele><time>2026-04-26T08:53:25.741Z</time></trkpt><trkpt lat="43.893387" lon="12.9086761"><ele>9.8</ele><time>2026-04-26T08:53:26.74Z</time></trkpt><trkpt lat="43.8933064" lon="12.9086364"><ele>9.6</ele><time>2026-04-26T08:53:27.731Z</time></trkpt><trkpt lat="43.8931931" lon="12.9086007"><ele>9.4</ele><time>2026-04-26T08:53:29.74Z</time></trkpt><trkpt lat="43.8931386" lon="12.9085478"><ele>9.2</ele><time>2026-04-26T08:53:30.738Z</time></trkpt><trkpt lat="43.8930519" lon="12.9084976"><ele>9.0</ele><time>2026-04-26T08:53:32.748Z</time></trkpt><trkpt lat="43.8929515" lon="12.9084634"><ele>9.0</ele><time>2026-04-26T08:53:34.749Z</time></trkpt><trkpt lat="43.8928448" lon="12.9084294"><ele>9.0</ele><time>2026-04-26T08:53:36.74Z</time></trkpt><trkpt lat="43.892779" lon="12.9083363"><ele>9.0</ele><time>2026-04-26T08:53:38.741Z</time></trkpt><trkpt lat="43.8926916" lon="12.9082765"><ele>9.0</ele><time>2026-04-26T08:53:40.73Z</time></trkpt><trkpt lat="43.8926304" lon="12.90825"><ele>9.0</ele><time>2026-04-26T08:53:41.74Z</time></trkpt><trkpt lat="43.8925287" lon="12.9082057"><ele>9.6</ele><time>2026-04-26T08:53:43.742Z</time></trkpt><trkpt lat="43.8924261" lon="12.9081289"><ele>10.2</ele><time>2026-04-26T08:53:45.737Z</time></trkpt><trkpt lat="43.8923622" lon="12.9080827"><ele>10.799999999999999</ele><time>2026-04-26T08:53:46.736Z</time></trkpt><trkpt lat="43.8922806" lon="12.9079912"><ele>11.4</ele><time>2026-04-26T08:53:48.728Z</time></trkpt><trkpt lat="43.8921975" lon="12.9079236"><ele>12.0</ele><time>2026-04-26T08:53:51.743Z</time></trkpt><trkpt lat="43.8921454" lon="12.9078657"><ele>12.0</ele><time>2026-04-26T08:53:53.736Z</time></trkpt><trkpt lat="43.8920747" lon="12.9078947"><ele>12.0</ele><time>2026-04-26T08:53:58.74Z</time></trkpt><trkpt lat="43.8921493" lon="12.9078613"><ele>12.0</ele><time>2026-04-26T08:54:14.741Z</time></trkpt><trkpt lat="43.8920801" lon="12.9078487"><ele>12.0</ele><time>2026-04-26T08:54:16.758Z</time></trkpt><trkpt lat="43.8919951" lon="12.9077589"><ele>12.0</ele><time>2026-04-26T08:54:19.744Z</time></trkpt><trkpt lat="43.8919435" lon="12.9076268"><ele>12.0</ele><time>2026-04-26T08:54:21.748Z</time></trkpt><trkpt lat="43.8919327" lon="12.9075274"><ele>12.0</ele><time>2026-04-26T08:54:24.756Z</time></trkpt><trkpt lat="43.891872" lon="12.9074457"><ele>12.0</ele><time>2026-04-26T08:54:29.734Z</time></trkpt><trkpt lat="43.8917792" lon="12.9074295"><ele>12.0</ele><time>2026-04-26T08:54:31.743Z</time></trkpt><trkpt lat="43.8917103" lon="12.9074188"><ele>12.0</ele><time>2026-04-26T08:54:33.739Z</time></trkpt><trkpt lat="43.8916717" lon="12.9073319"><ele>12.0</ele><time>2026-04-26T08:54:35.754Z</time></trkpt><trkpt lat="43.8916063" lon="12.9071982"><ele>12.0</ele><time>2026-04-26T08:54:36.744Z</time></trkpt><trkpt lat="43.8915983" lon="12.9070049"><ele>12.0</ele><time>2026-04-26T08:54:38.753Z</time></trkpt><trkpt lat="43.8916159" lon="12.9068414"><ele>12.0</ele><time>2026-04-26T08:54:40.743Z</time></trkpt><trkpt lat="43.8916147" lon="12.9067525"><ele>12.0</ele><time>2026-04-26T08:54:41.732Z</time></trkpt><trkpt lat="43.8916258" lon="12.9066497"><ele>12.0</ele><time>2026-04-26T08:54:42.756Z</time></trkpt><trkpt lat="43.8916505" lon="12.9065431"><ele>12.0</ele><time>2026-04-26T08:54:44.741Z</time></trkpt><trkpt lat="43.8916825" lon="12.9063849"><ele>12.0</ele><time>2026-04-26T08:54:46.735Z</time></trkpt><trkpt lat="43.8916793" lon="12.9062861"><ele>12.0</ele><time>2026-04-26T08:54:47.734Z</time></trkpt><trkpt lat="43.8917262" lon="12.9061548"><ele>12.0</ele><time>2026-04-26T08:54:49.731Z</time></trkpt><trkpt lat="43.8916971" lon="12.9060434"><ele>12.0</ele><time>2026-04-26T08:54:50.74Z</time></trkpt><trkpt lat="43.8917071" lon="12.9059479"><ele>12.0</ele><time>2026-04-26T08:54:51.728Z</time></trkpt><trkpt lat="43.8917537" lon="12.9058607"><ele>12.0</ele><time>2026-04-26T08:54:53.751Z</time></trkpt><trkpt lat="43.8917764" lon="12.9056774"><ele>12.0</ele><time>2026-04-26T08:54:55.73Z</time></trkpt><trkpt lat="43.8917768" lon="12.9055421"><ele>12.0</ele><time>2026-04-26T08:54:57.754Z</time></trkpt><trkpt lat="43.891758" lon="12.9054428"><ele>12.0</ele><time>2026-04-26T08:54:59.759Z</time></trkpt><trkpt lat="43.8917842" lon="12.9053549"><ele>12.0</ele><time>2026-04-26T08:55:00.733Z</time></trkpt><trkpt lat="43.8917977" lon="12.9051898"><ele>12.0</ele><time>2026-04-26T08:55:02.753Z</time></trkpt><trkpt lat="43.8918098" lon="12.9050794"><ele>12.0</ele><time>2026-04-26T08:55:03.746Z</time></trkpt><trkpt lat="43.8918114" lon="12.9049682"><ele>12.399999999999999</ele><time>2026-04-26T08:55:04.743Z</time></trkpt><trkpt lat="43.8918522" lon="12.9048005"><ele>12.799999999999999</ele><time>2026-04-26T08:55:06.741Z</time></trkpt><trkpt lat="43.8918792" lon="12.904659"><ele>13.2</ele><time>2026-04-26T08:55:08.729Z</time></trkpt><trkpt lat="43.8919148" lon="12.9045567"><ele>13.6</ele><time>2026-04-26T08:55:09.745Z</time></trkpt><trkpt lat="43.891961" lon="12.9044323"><ele>14.0</ele><time>2026-04-26T08:55:11.747Z</time></trkpt><trkpt lat="43.8919921" lon="12.9043094"><ele>13.6</ele><time>2026-04-26T08:55:13.741Z</time></trkpt><trkpt lat="43.8920035" lon="12.9041902"><ele>13.2</ele><time>2026-04-26T08:55:15.759Z</time></trkpt><trkpt lat="43.8920184" lon="12.9040395"><ele>12.799999999999999</ele><time>2026-04-26T08:55:17.772Z</time></trkpt><trkpt lat="43.8920446" lon="12.9039092"><ele>12.399999999999999</ele><time>2026-04-26T08:55:19.763Z</time></trkpt><trkpt lat="43.8920626" lon="12.9037072"><ele>12.0</ele><time>2026-04-26T08:55:21.758Z</time></trkpt><trkpt lat="43.8920933" lon="12.9035424"><ele>11.0</ele><time>2026-04-26T08:55:23.732Z</time></trkpt><trkpt lat="43.892106" lon="12.9033591"><ele>10.0</ele><time>2026-04-26T08:55:25.742Z</time></trkpt><trkpt lat="43.8921404" lon="12.9032328"><ele>9.0</ele><time>2026-04-26T08:55:27.737Z</time></trkpt><trkpt lat="43.8921617" lon="12.9030731"><ele>8.0</ele><time>2026-04-26T08:55:29.746Z</time></trkpt><trkpt lat="43.892161" lon="12.9028986"><ele>8.0</ele><time>2026-04-26T08:55:31.75Z</time></trkpt><trkpt lat="43.8921828" lon="12.9027308"><ele>8.0</ele><time>2026-04-26T08:55:32.774Z</time></trkpt><trkpt lat="43.8922028" lon="12.9025802"><ele>8.0</ele><time>2026-04-26T08:55:34.744Z</time></trkpt><trkpt lat="43.8921993" lon="12.9024891"><ele>8.0</ele><time>2026-04-26T08:55:35.739Z</time></trkpt><trkpt lat="43.8922036" lon="12.9023601"><ele>8.0</ele><time>2026-04-26T08:55:37.755Z</time></trkpt><trkpt lat="43.8922125" lon="12.9022373"><ele>8.333333333333332</ele><time>2026-04-26T08:55:39.746Z</time></trkpt><trkpt lat="43.8922196" lon="12.9021258"><ele>8.666666666666666</ele><time>2026-04-26T08:55:42.746Z</time></trkpt><trkpt lat="43.8922455" lon="12.9020059"><ele>9.0</ele><time>2026-04-26T08:55:44.735Z</time></trkpt><trkpt lat="43.8922325" lon="12.9018999"><ele>9.333333333333334</ele><time>2026-04-26T08:55:46.752Z</time></trkpt><trkpt lat="43.8921937" lon="12.9017827"><ele>9.666666666666668</ele><time>2026-04-26T08:55:49.745Z</time></trkpt><trkpt lat="43.8922031" lon="12.9016728"><ele>10.0</ele><time>2026-04-26T08:55:51.745Z</time></trkpt><trkpt lat="43.8922109" lon="12.9015684"><ele>10.0</ele><time>2026-04-26T08:55:55.744Z</time></trkpt><trkpt lat="43.8922412" lon="12.9014688"><ele>10.0</ele><time>2026-04-26T08:56:01.742Z</time></trkpt><trkpt lat="43.8922505" lon="12.9013697"><ele>10.0</ele><time>2026-04-26T08:56:05.74Z</time></trkpt><trkpt lat="43.8922662" lon="12.9012715"><ele>10.0</ele><time>2026-04-26T08:56:07.739Z</time></trkpt><trkpt lat="43.8922846" lon="12.9011293"><ele>10.0</ele><time>2026-04-26T08:56:09.741Z</time></trkpt><trkpt lat="43.8922497" lon="12.9009844"><ele>10.0</ele><time>2026-04-26T08:56:10.747Z</time></trkpt><trkpt lat="43.892286" lon="12.9008831"><ele>10.0</ele><time>2026-04-26T08:56:12.761Z</time></trkpt><trkpt lat="43.8922991" lon="12.9007918"><ele>10.0</ele><time>2026-04-26T08:56:13.729Z</time></trkpt><trkpt lat="43.8923322" lon="12.9006857"><ele>10.0</ele><time>2026-04-26T08:56:14.741Z</time></trkpt><trkpt lat="43.8923391" lon="12.9005626"><ele>10.0</ele><time>2026-04-26T08:56:15.736Z</time></trkpt><trkpt lat="43.8923376" lon="12.9004561"><ele>10.0</ele><time>2026-04-26T08:56:16.733Z</time></trkpt><trkpt lat="43.8923486" lon="12.900322"><ele>10.0</ele><time>2026-04-26T08:56:17.748Z</time></trkpt><trkpt lat="43.892357" lon="12.9001831"><ele>10.0</ele><time>2026-04-26T08:56:18.746Z</time></trkpt><trkpt lat="43.8923868" lon="12.9000868"><ele>10.0</ele><time>2026-04-26T08:56:19.746Z</time></trkpt><trkpt lat="43.8923874" lon="12.8999909"><ele>10.0</ele><time>2026-04-26T08:56:20.738Z</time></trkpt><trkpt lat="43.8923759" lon="12.899839"><ele>10.0</ele><time>2026-04-26T08:56:21.728Z</time></trkpt><trkpt lat="43.8923418" lon="12.8997479"><ele>10.0</ele><time>2026-04-26T08:56:23.75Z</time></trkpt><trkpt lat="43.8923647" lon="12.8996325"><ele>10.0</ele><time>2026-04-26T08:56:24.773Z</time></trkpt><trkpt lat="43.8923605" lon="12.8995416"><ele>10.166666666666668</ele><time>2026-04-26T08:56:27.747Z</time></trkpt><trkpt lat="43.8923825" lon="12.899445"><ele>10.333333333333334</ele><time>2026-04-26T08:56:29.751Z</time></trkpt><trkpt lat="43.8923673" lon="12.8993511"><ele>10.5</ele><time>2026-04-26T08:56:32.742Z</time></trkpt><trkpt lat="43.8923491" lon="12.8992383"><ele>10.666666666666666</ele><time>2026-04-26T08:56:35.745Z</time></trkpt><trkpt lat="43.8922717" lon="12.8991586"><ele>10.833333333333332</ele><time>2026-04-26T08:56:39.749Z</time></trkpt><trkpt lat="43.8922176" lon="12.899069"><ele>11.0</ele><time>2026-04-26T08:56:41.742Z</time></trkpt><trkpt lat="43.8921651" lon="12.8989663"><ele>11.4</ele><time>2026-04-26T08:56:43.734Z</time></trkpt><trkpt lat="43.8921333" lon="12.8988573"><ele>11.8</ele><time>2026-04-26T08:56:44.735Z</time></trkpt><trkpt lat="43.8921316" lon="12.8986967"><ele>12.200000000000001</ele><time>2026-04-26T08:56:46.74Z</time></trkpt><trkpt lat="43.8921124" lon="12.8985994"><ele>12.600000000000001</ele><time>2026-04-26T08:56:47.733Z</time></trkpt><trkpt lat="43.892132" lon="12.8984268"><ele>13.0</ele><time>2026-04-26T08:56:49.731Z</time></trkpt><trkpt lat="43.8921938" lon="12.8983196"><ele>13.0</ele><time>2026-04-26T08:56:51.731Z</time></trkpt><trkpt lat="43.8922612" lon="12.8982301"><ele>13.0</ele><time>2026-04-26T08:56:53.737Z</time></trkpt><trkpt lat="43.8923635" lon="12.8981189"><ele>13.0</ele><time>2026-04-26T08:56:55.736Z</time></trkpt><trkpt lat="43.8923991" lon="12.8980398"><ele>13.0</ele><time>2026-04-26T08:56:56.732Z</time></trkpt><trkpt lat="43.8924429" lon="12.8979642"><ele>13.0</ele><time>2026-04-26T08:56:58.731Z</time></trkpt><trkpt lat="43.8925252" lon="12.8978343"><ele>12.4</ele><time>2026-04-26T08:57:00.734Z</time></trkpt><trkpt lat="43.8926085" lon="12.897711"><ele>11.8</ele><time>2026-04-26T08:57:02.763Z</time></trkpt><trkpt lat="43.8926612" lon="12.8976042"><ele>11.2</ele><time>2026-04-26T08:57:04.743Z</time></trkpt><trkpt lat="43.892769" lon="12.8974887"><ele>10.6</ele><time>2026-04-26T08:57:06.746Z</time></trkpt><trkpt lat="43.8928161" lon="12.8974189"><ele>10.0</ele><time>2026-04-26T08:57:07.735Z</time></trkpt><trkpt lat="43.8929111" lon="12.8972856"><ele>9.8</ele><time>2026-04-26T08:57:09.731Z</time></trkpt><trkpt lat="43.8929879" lon="12.8971287"><ele>9.6</ele><time>2026-04-26T08:57:11.762Z</time></trkpt><trkpt lat="43.8930424" lon="12.8970157"><ele>9.4</ele><time>2026-04-26T08:57:12.741Z</time></trkpt><trkpt lat="43.8930925" lon="12.8969199"><ele>9.2</ele><time>2026-04-26T08:57:13.747Z</time></trkpt><trkpt lat="43.89313" lon="12.8967973"><ele>9.0</ele><time>2026-04-26T08:57:15.747Z</time></trkpt><trkpt lat="43.8931933" lon="12.8967416"><ele>9.0</ele><time>2026-04-26T08:57:16.735Z</time></trkpt><trkpt lat="43.8932779" lon="12.8966361"><ele>9.0</ele><time>2026-04-26T08:57:18.743Z</time></trkpt><trkpt lat="43.893368" lon="12.8964722"><ele>9.0</ele><time>2026-04-26T08:57:20.744Z</time></trkpt><trkpt lat="43.8934344" lon="12.8964311"><ele>9.0</ele><time>2026-04-26T08:57:21.737Z</time></trkpt><trkpt lat="43.8935285" lon="12.8963343"><ele>8.833333333333334</ele><time>2026-04-26T08:57:23.735Z</time></trkpt><trkpt lat="43.8935912" lon="12.8962725"><ele>8.666666666666666</ele><time>2026-04-26T08:57:25.737Z</time></trkpt><trkpt lat="43.893649" lon="12.896221"><ele>8.5</ele><time>2026-04-26T08:57:27.749Z</time></trkpt><trkpt lat="43.8936577" lon="12.8961327"><ele>8.333333333333332</ele><time>2026-04-26T08:57:29.741Z</time></trkpt><trkpt lat="43.8936152" lon="12.8959903"><ele>8.166666666666666</ele><time>2026-04-26T08:57:31.73Z</time></trkpt><trkpt lat="43.8935911" lon="12.8958642"><ele>8.0</ele><time>2026-04-26T08:57:33.731Z</time></trkpt><trkpt lat="43.8936249" lon="12.8957447"><ele>8.0</ele><time>2026-04-26T08:57:36.742Z</time></trkpt><trkpt lat="43.8936718" lon="12.8956401"><ele>8.0</ele><time>2026-04-26T08:57:40.739Z</time></trkpt><trkpt lat="43.8937272" lon="12.8955479"><ele>8.0</ele><time>2026-04-26T08:57:42.73Z</time></trkpt><trkpt lat="43.8938326" lon="12.8953834"><ele>8.0</ele><time>2026-04-26T08:57:44.729Z</time></trkpt><trkpt lat="43.8939073" lon="12.8952825"><ele>8.0</ele><time>2026-04-26T08:57:46.73Z</time></trkpt><trkpt lat="43.8939851" lon="12.8951706"><ele>8.0</ele><time>2026-04-26T08:57:48.732Z</time></trkpt><trkpt lat="43.8940648" lon="12.8950929"><ele>8.0</ele><time>2026-04-26T08:57:50.733Z</time></trkpt><trkpt lat="43.8941129" lon="12.8950283"><ele>8.0</ele><time>2026-04-26T08:57:51.731Z</time></trkpt><trkpt lat="43.8941972" lon="12.8949265"><ele>8.0</ele><time>2026-04-26T08:57:53.737Z</time></trkpt><trkpt lat="43.894227" lon="12.8948451"><ele>8.0</ele><time>2026-04-26T08:57:54.729Z</time></trkpt><trkpt lat="43.8942942" lon="12.8947175"><ele>8.0</ele><time>2026-04-26T08:57:56.744Z</time></trkpt><trkpt lat="43.8943471" lon="12.8945898"><ele>8.0</ele><time>2026-04-26T08:57:58.729Z</time></trkpt><trkpt lat="43.8944169" lon="12.8944536"><ele>8.0</ele><time>2026-04-26T08:58:00.729Z</time></trkpt><trkpt lat="43.8944589" lon="12.8943802"><ele>8.0</ele><time>2026-04-26T08:58:01.729Z</time></trkpt><trkpt lat="43.8945063" lon="12.894319"><ele>8.0</ele><time>2026-04-26T08:58:02.733Z</time></trkpt><trkpt lat="43.8945747" lon="12.8941843"><ele>8.0</ele><time>2026-04-26T08:58:04.732Z</time></trkpt><trkpt lat="43.8946467" lon="12.8940331"><ele>8.0</ele><time>2026-04-26T08:58:06.734Z</time></trkpt><trkpt lat="43.8947237" lon="12.8939327"><ele>8.0</ele><time>2026-04-26T08:58:08.734Z</time></trkpt><trkpt lat="43.8947719" lon="12.8938661"><ele>8.0</ele><time>2026-04-26T08:58:09.74Z</time></trkpt><trkpt lat="43.8948047" lon="12.8937869"><ele>8.0</ele><time>2026-04-26T08:58:10.747Z</time></trkpt><trkpt lat="43.894867" lon="12.8936647"><ele>7.999999999999999</ele><time>2026-04-26T08:58:12.735Z</time></trkpt><trkpt lat="43.8949371" lon="12.8935665"><ele>8.0</ele><time>2026-04-26T08:58:14.735Z</time></trkpt><trkpt lat="43.8949978" lon="12.8935"><ele>8.0</ele><time>2026-04-26T08:58:15.73Z</time></trkpt><trkpt lat="43.8950311" lon="12.8934009"><ele>8.0</ele><time>2026-04-26T08:58:17.732Z</time></trkpt><trkpt lat="43.8950326" lon="12.8932734"><ele>7.999999999999999</ele><time>2026-04-26T08:58:20.729Z</time></trkpt><trkpt lat="43.8949929" lon="12.8931841"><ele>8.0</ele><time>2026-04-26T08:58:22.734Z</time></trkpt><trkpt lat="43.8949374" lon="12.8931088"><ele>8.166666666666666</ele><time>2026-04-26T08:58:24.735Z</time></trkpt><trkpt lat="43.8948579" lon="12.8930333"><ele>8.333333333333332</ele><time>2026-04-26T08:58:26.737Z</time></trkpt><trkpt lat="43.8947726" lon="12.8929986"><ele>8.5</ele><time>2026-04-26T08:58:27.732Z</time></trkpt><trkpt lat="43.89473" lon="12.892903"><ele>8.666666666666666</ele><time>2026-04-26T08:58:28.735Z</time></trkpt><trkpt lat="43.8946792" lon="12.8928346"><ele>8.833333333333334</ele><time>2026-04-26T08:58:29.74Z</time></trkpt><trkpt lat="43.8946272" lon="12.8927633"><ele>9.0</ele><time>2026-04-26T08:58:30.734Z</time></trkpt><trkpt lat="43.894529" lon="12.8926647"><ele>9.2</ele><time>2026-04-26T08:58:32.746Z</time></trkpt><trkpt lat="43.894502" lon="12.8925457"><ele>9.4</ele><time>2026-04-26T08:58:34.747Z</time></trkpt><trkpt lat="43.8944503" lon="12.8924653"><ele>9.6</ele><time>2026-04-26T08:58:37.732Z</time></trkpt><trkpt lat="43.8943787" lon="12.8924283"><ele>9.8</ele><time>2026-04-26T08:58:40.735Z</time></trkpt><trkpt lat="43.8943258" lon="12.8923598"><ele>10.0</ele><time>2026-04-26T08:58:42.734Z</time></trkpt><trkpt lat="43.8942404" lon="12.8922126"><ele>10.2</ele><time>2026-04-26T08:58:44.743Z</time></trkpt><trkpt lat="43.8941403" lon="12.8920711"><ele>10.4</ele><time>2026-04-26T08:58:46.741Z</time></trkpt><trkpt lat="43.8940846" lon="12.8919926"><ele>10.600000000000001</ele><time>2026-04-26T08:58:49.739Z</time></trkpt><trkpt lat="43.8940135" lon="12.8919085"><ele>10.8</ele><time>2026-04-26T08:58:51.737Z</time></trkpt><trkpt lat="43.8939669" lon="12.8918219"><ele>11.0</ele><time>2026-04-26T08:58:52.73Z</time></trkpt><trkpt lat="43.8939384" lon="12.8916793"><ele>11.0</ele><time>2026-04-26T08:58:54.741Z</time></trkpt><trkpt lat="43.8938936" lon="12.8916165"><ele>11.0</ele><time>2026-04-26T08:58:55.729Z</time></trkpt><trkpt lat="43.8938088" lon="12.8915518"><ele>11.0</ele><time>2026-04-26T08:58:56.733Z</time></trkpt><trkpt lat="43.8937438" lon="12.8915077"><ele>11.0</ele><time>2026-04-26T08:58:57.727Z</time></trkpt><trkpt lat="43.8936731" lon="12.8914511"><ele>11.0</ele><time>2026-04-26T08:58:59.746Z</time></trkpt><trkpt lat="43.8936344" lon="12.8912723"><ele>11.0</ele><time>2026-04-26T08:59:01.742Z</time></trkpt><trkpt lat="43.8936291" lon="12.8911782"><ele>11.0</ele><time>2026-04-26T08:59:02.733Z</time></trkpt><trkpt lat="43.8935464" lon="12.8911585"><ele>11.0</ele><time>2026-04-26T08:59:09.728Z</time></trkpt><trkpt lat="43.8934866" lon="12.8911147"><ele>11.0</ele><time>2026-04-26T08:59:12.728Z</time></trkpt><trkpt lat="43.8934216" lon="12.8910146"><ele>11.0</ele><time>2026-04-26T08:59:14.736Z</time></trkpt><trkpt lat="43.8933694" lon="12.8908986"><ele>11.0</ele><time>2026-04-26T08:59:15.743Z</time></trkpt><trkpt lat="43.8932896" lon="12.8907559"><ele>11.8</ele><time>2026-04-26T08:59:17.731Z</time></trkpt><trkpt lat="43.8931944" lon="12.890614"><ele>12.600000000000001</ele><time>2026-04-26T08:59:19.742Z</time></trkpt><trkpt lat="43.8931305" lon="12.8905162"><ele>13.4</ele><time>2026-04-26T08:59:21.744Z</time></trkpt><trkpt lat="43.8930663" lon="12.8904356"><ele>14.2</ele><time>2026-04-26T08:59:22.741Z</time></trkpt><trkpt lat="43.8930194" lon="12.890375"><ele>15.0</ele><time>2026-04-26T08:59:23.747Z</time></trkpt><trkpt lat="43.8929605" lon="12.8902712"><ele>15.0</ele><time>2026-04-26T08:59:24.743Z</time></trkpt><trkpt lat="43.8929146" lon="12.8901896"><ele>15.0</ele><time>2026-04-26T08:59:25.754Z</time></trkpt><trkpt lat="43.8928682" lon="12.8900961"><ele>15.0</ele><time>2026-04-26T08:59:26.738Z</time></trkpt><trkpt lat="43.8927909" lon="12.8899753"><ele>15.0</ele><time>2026-04-26T08:59:28.734Z</time></trkpt><trkpt lat="43.8927107" lon="12.8898607"><ele>15.0</ele><time>2026-04-26T08:59:30.73Z</time></trkpt><trkpt lat="43.8926408" lon="12.8897888"><ele>14.0</ele><time>2026-04-26T08:59:32.739Z</time></trkpt><trkpt lat="43.8925835" lon="12.8896702"><ele>13.0</ele><time>2026-04-26T08:59:34.748Z</time></trkpt><trkpt lat="43.8925048" lon="12.8895717"><ele>12.0</ele><time>2026-04-26T08:59:36.747Z</time></trkpt><trkpt lat="43.8924712" lon="12.8894974"><ele>11.0</ele><time>2026-04-26T08:59:37.738Z</time></trkpt><trkpt lat="43.8924096" lon="12.8894103"><ele>10.0</ele><time>2026-04-26T08:59:38.759Z</time></trkpt><trkpt lat="43.8923286" lon="12.8892628"><ele>10.166666666666668</ele><time>2026-04-26T08:59:40.763Z</time></trkpt><trkpt lat="43.8922917" lon="12.8891796"><ele>10.333333333333334</ele><time>2026-04-26T08:59:42.753Z</time></trkpt><trkpt lat="43.8922302" lon="12.8891151"><ele>10.5</ele><time>2026-04-26T08:59:43.745Z</time></trkpt><trkpt lat="43.8921614" lon="12.8890533"><ele>10.666666666666666</ele><time>2026-04-26T08:59:45.738Z</time></trkpt><trkpt lat="43.8920983" lon="12.8890341"><ele>10.833333333333332</ele><time>2026-04-26T08:59:48.738Z</time></trkpt><trkpt lat="43.8920384" lon="12.888941"><ele>11.0</ele><time>2026-04-26T08:59:51.766Z</time></trkpt><trkpt lat="43.892004" lon="12.8888517"><ele>11.0</ele><time>2026-04-26T08:59:54.748Z</time></trkpt><trkpt lat="43.891964" lon="12.8887339"><ele>11.0</ele><time>2026-04-26T08:59:57.75Z</time></trkpt><trkpt lat="43.8919452" lon="12.8886073"><ele>11.0</ele><time>2026-04-26T08:59:59.742Z</time></trkpt><trkpt lat="43.8919089" lon="12.8884457"><ele>11.0</ele><time>2026-04-26T09:00:01.751Z</time></trkpt><trkpt lat="43.8918918" lon="12.888349"><ele>11.0</ele><time>2026-04-26T09:00:02.747Z</time></trkpt><trkpt lat="43.8918401" lon="12.8882129"><ele>11.200000000000001</ele><time>2026-04-26T09:00:04.742Z</time></trkpt><trkpt lat="43.8917591" lon="12.8881415"><ele>11.4</ele><time>2026-04-26T09:00:06.76Z</time></trkpt><trkpt lat="43.8916495" lon="12.8880471"><ele>11.6</ele><time>2026-04-26T09:00:08.728Z</time></trkpt><trkpt lat="43.8915789" lon="12.8879774"><ele>11.8</ele><time>2026-04-26T09:00:09.735Z</time></trkpt><trkpt lat="43.8915116" lon="12.8879317"><ele>12.0</ele><time>2026-04-26T09:00:10.741Z</time></trkpt><trkpt lat="43.8914183" lon="12.8879154"><ele>12.0</ele><time>2026-04-26T09:00:12.739Z</time></trkpt><trkpt lat="43.8913543" lon="12.8878951"><ele>12.0</ele><time>2026-04-26T09:00:13.745Z</time></trkpt><trkpt lat="43.8912501" lon="12.887833"><ele>12.0</ele><time>2026-04-26T09:00:15.748Z</time></trkpt><trkpt lat="43.891139" lon="12.8877657"><ele>12.0</ele><time>2026-04-26T09:00:17.751Z</time></trkpt><trkpt lat="43.8910538" lon="12.8876916"><ele>12.0</ele><time>2026-04-26T09:00:19.766Z</time></trkpt><trkpt lat="43.8909947" lon="12.8876585"><ele>12.2</ele><time>2026-04-26T09:00:21.745Z</time></trkpt><trkpt lat="43.8909127" lon="12.8875803"><ele>12.399999999999999</ele><time>2026-04-26T09:00:24.743Z</time></trkpt><trkpt lat="43.8908702" lon="12.8874504"><ele>12.600000000000001</ele><time>2026-04-26T09:00:25.734Z</time></trkpt><trkpt lat="43.890818" lon="12.8873393"><ele>12.8</ele><time>2026-04-26T09:00:27.729Z</time></trkpt><trkpt lat="43.8907296" lon="12.8872326"><ele>13.0</ele><time>2026-04-26T09:00:29.729Z</time></trkpt><trkpt lat="43.8906647" lon="12.8871454"><ele>13.0</ele><time>2026-04-26T09:00:31.74Z</time></trkpt><trkpt lat="43.8905853" lon="12.8870438"><ele>13.0</ele><time>2026-04-26T09:00:33.735Z</time></trkpt><trkpt lat="43.8904175" lon="12.8868247"><ele>13.0</ele><time>2026-04-26T09:00:34.74Z</time></trkpt><trkpt lat="43.8903529" lon="12.8867669"><ele>13.0</ele><time>2026-04-26T09:00:38.738Z</time></trkpt><trkpt lat="43.8902832" lon="12.8866482"><ele>13.2</ele><time>2026-04-26T09:00:40.74Z</time></trkpt><trkpt lat="43.8902557" lon="12.8865396"><ele>13.4</ele><time>2026-04-26T09:00:41.744Z</time></trkpt><trkpt lat="43.8901221" lon="12.8863942"><ele>13.599999999999998</ele><time>2026-04-26T09:00:43.744Z</time></trkpt><trkpt lat="43.890088" lon="12.8863199"><ele>13.799999999999999</ele><time>2026-04-26T09:00:44.735Z</time></trkpt><trkpt lat="43.8900351" lon="12.886187"><ele>14.0</ele><time>2026-04-26T09:00:46.752Z</time></trkpt><trkpt lat="43.8899997" lon="12.8860634"><ele>14.0</ele><time>2026-04-26T09:00:47.739Z</time></trkpt><trkpt lat="43.8900067" lon="12.885932"><ele>13.999999999999998</ele><time>2026-04-26T09:00:48.728Z</time></trkpt><trkpt lat="43.8899694" lon="12.8857759"><ele>13.999999999999998</ele><time>2026-04-26T09:00:50.74Z</time></trkpt><trkpt lat="43.8899646" lon="12.8856336"><ele>14.0</ele><time>2026-04-26T09:00:52.743Z</time></trkpt><trkpt lat="43.8899412" lon="12.8855284"><ele>14.0</ele><time>2026-04-26T09:00:53.736Z</time></trkpt><trkpt lat="43.8899451" lon="12.8853531"><ele>14.0</ele><time>2026-04-26T09:00:55.749Z</time></trkpt><trkpt lat="43.889941" lon="12.8852539"><ele>13.999999999999998</ele><time>2026-04-26T09:00:56.728Z</time></trkpt><trkpt lat="43.8899325" lon="12.8851167"><ele>13.999999999999998</ele><time>2026-04-26T09:00:58.726Z</time></trkpt><trkpt lat="43.8899431" lon="12.8849635"><ele>14.0</ele><time>2026-04-26T09:01:01.728Z</time></trkpt><trkpt lat="43.8899618" lon="12.8848586"><ele>14.0</ele><time>2026-04-26T09:01:02.734Z</time></trkpt><trkpt lat="43.8899974" lon="12.8846887"><ele>14.0</ele><time>2026-04-26T09:01:04.729Z</time></trkpt><trkpt lat="43.8900506" lon="12.8845609"><ele>13.999999999999998</ele><time>2026-04-26T09:01:06.733Z</time></trkpt><trkpt lat="43.8901335" lon="12.8844746"><ele>13.999999999999998</ele><time>2026-04-26T09:01:08.734Z</time></trkpt><trkpt lat="43.8902242" lon="12.8843801"><ele>14.0</ele><time>2026-04-26T09:01:10.725Z</time></trkpt><trkpt lat="43.8902901" lon="12.8842327"><ele>14.0</ele><time>2026-04-26T09:01:12.732Z</time></trkpt><trkpt lat="43.8903082" lon="12.8840847"><ele>13.666666666666668</ele><time>2026-04-26T09:01:14.741Z</time></trkpt><trkpt lat="43.890278" lon="12.8840071"><ele>13.333333333333334</ele><time>2026-04-26T09:01:15.741Z</time></trkpt><trkpt lat="43.8902391" lon="12.8839252"><ele>13.0</ele><time>2026-04-26T09:01:16.733Z</time></trkpt><trkpt lat="43.8901498" lon="12.8838605"><ele>12.666666666666668</ele><time>2026-04-26T09:01:18.73Z</time></trkpt><trkpt lat="43.8900822" lon="12.8838215"><ele>12.333333333333334</ele><time>2026-04-26T09:01:19.736Z</time></trkpt><trkpt lat="43.8900185" lon="12.8837719"><ele>12.0</ele><time>2026-04-26T09:01:20.735Z</time></trkpt><trkpt lat="43.8898848" lon="12.8837797"><ele>11.8</ele><time>2026-04-26T09:01:22.733Z</time></trkpt><trkpt lat="43.8898214" lon="12.8837695"><ele>11.6</ele><time>2026-04-26T09:01:23.727Z</time></trkpt><trkpt lat="43.889759" lon="12.8837568"><ele>11.4</ele><time>2026-04-26T09:01:24.725Z</time></trkpt><trkpt lat="43.8896732" lon="12.8836789"><ele>11.200000000000001</ele><time>2026-04-26T09:01:26.727Z</time></trkpt><trkpt lat="43.8895967" lon="12.8835741"><ele>11.0</ele><time>2026-04-26T09:01:28.73Z</time></trkpt><trkpt lat="43.8895033" lon="12.8834524"><ele>11.600000000000001</ele><time>2026-04-26T09:01:30.736Z</time></trkpt><trkpt lat="43.8894195" lon="12.8833628"><ele>12.2</ele><time>2026-04-26T09:01:32.732Z</time></trkpt><trkpt lat="43.8893496" lon="12.8832988"><ele>12.799999999999999</ele><time>2026-04-26T09:01:34.73Z</time></trkpt><trkpt lat="43.8893103" lon="12.8832294"><ele>13.399999999999999</ele><time>2026-04-26T09:01:35.728Z</time></trkpt><trkpt lat="43.8892273" lon="12.8831343"><ele>14.0</ele><time>2026-04-26T09:01:37.737Z</time></trkpt><trkpt lat="43.8891324" lon="12.8830301"><ele>14.0</ele><time>2026-04-26T09:01:39.734Z</time></trkpt><trkpt lat="43.8890431" lon="12.8829294"><ele>13.999999999999998</ele><time>2026-04-26T09:01:41.742Z</time></trkpt><trkpt lat="43.8889645" lon="12.8828301"><ele>13.999999999999998</ele><time>2026-04-26T09:01:43.74Z</time></trkpt><trkpt lat="43.888904" lon="12.8827693"><ele>14.0</ele><time>2026-04-26T09:01:45.732Z</time></trkpt><trkpt lat="43.8887969" lon="12.8827119"><ele>14.0</ele><time>2026-04-26T09:01:49.733Z</time></trkpt><trkpt lat="43.8887555" lon="12.8825767"><ele>14.399999999999999</ele><time>2026-04-26T09:01:50.736Z</time></trkpt><trkpt lat="43.8887058" lon="12.8825156"><ele>14.799999999999999</ele><time>2026-04-26T09:01:51.727Z</time></trkpt><trkpt lat="43.8886068" lon="12.8824026"><ele>15.200000000000001</ele><time>2026-04-26T09:01:53.725Z</time></trkpt><trkpt lat="43.8885468" lon="12.8823509"><ele>15.600000000000001</ele><time>2026-04-26T09:01:54.728Z</time></trkpt><trkpt lat="43.8884496" lon="12.8822532"><ele>16.0</ele><time>2026-04-26T09:01:56.735Z</time></trkpt><trkpt lat="43.8883463" lon="12.8821554"><ele>16.400000000000002</ele><time>2026-04-26T09:01:58.731Z</time></trkpt><trkpt lat="43.8882808" lon="12.8820732"><ele>16.8</ele><time>2026-04-26T09:01:59.728Z</time></trkpt><trkpt lat="43.8882146" lon="12.8819931"><ele>17.200000000000003</ele><time>2026-04-26T09:02:00.726Z</time></trkpt><trkpt lat="43.8881464" lon="12.8818879"><ele>17.6</ele><time>2026-04-26T09:02:01.733Z</time></trkpt><trkpt lat="43.8880982" lon="12.8818009"><ele>18.0</ele><time>2026-04-26T09:02:02.733Z</time></trkpt><trkpt lat="43.8880165" lon="12.8816711"><ele>18.0</ele><time>2026-04-26T09:02:04.734Z</time></trkpt><trkpt lat="43.8879103" lon="12.8815589"><ele>18.0</ele><time>2026-04-26T09:02:06.729Z</time></trkpt><trkpt lat="43.8878623" lon="12.8815003"><ele>18.0</ele><time>2026-04-26T09:02:07.736Z</time></trkpt><trkpt lat="43.8878007" lon="12.8814133"><ele>18.0</ele><time>2026-04-26T09:02:09.726Z</time></trkpt><trkpt lat="43.8877593" lon="12.8813346"><ele>18.0</ele><time>2026-04-26T09:02:10.736Z</time></trkpt><trkpt lat="43.8877062" lon="12.881281"><ele>18.0</ele><time>2026-04-26T09:02:11.734Z</time></trkpt><trkpt lat="43.8876056" lon="12.8811838"><ele>18.0</ele><time>2026-04-26T09:02:13.738Z</time></trkpt><trkpt lat="43.8875549" lon="12.8811036"><ele>18.0</ele><time>2026-04-26T09:02:14.732Z</time></trkpt><trkpt lat="43.8874619" lon="12.8810246"><ele>18.0</ele><time>2026-04-26T09:02:16.74Z</time></trkpt><trkpt lat="43.8873749" lon="12.880933"><ele>18.0</ele><time>2026-04-26T09:02:18.726Z</time></trkpt><trkpt lat="43.8873246" lon="12.8808716"><ele>18.0</ele><time>2026-04-26T09:02:19.748Z</time></trkpt><trkpt lat="43.887238" lon="12.8807581"><ele>18.0</ele><time>2026-04-26T09:02:21.742Z</time></trkpt><trkpt lat="43.8871499" lon="12.8806567"><ele>18.0</ele><time>2026-04-26T09:02:23.736Z</time></trkpt><trkpt lat="43.8870875" lon="12.8806123"><ele>18.0</ele><time>2026-04-26T09:02:24.737Z</time></trkpt><trkpt lat="43.8870273" lon="12.8805762"><ele>18.0</ele><time>2026-04-26T09:02:25.735Z</time></trkpt><trkpt lat="43.8869668" lon="12.8805104"><ele>18.0</ele><time>2026-04-26T09:02:26.751Z</time></trkpt><trkpt lat="43.8868956" lon="12.8804617"><ele>18.0</ele><time>2026-04-26T09:02:28.74Z</time></trkpt><trkpt lat="43.8868053" lon="12.8803378"><ele>17.833333333333332</ele><time>2026-04-26T09:02:31.749Z</time></trkpt><trkpt lat="43.886713" lon="12.8802379"><ele>17.666666666666668</ele><time>2026-04-26T09:02:33.755Z</time></trkpt><trkpt lat="43.8866617" lon="12.8801462"><ele>17.5</ele><time>2026-04-26T09:02:34.772Z</time></trkpt><trkpt lat="43.886628" lon="12.8800699"><ele>17.333333333333336</ele><time>2026-04-26T09:02:35.741Z</time></trkpt><trkpt lat="43.8865764" lon="12.8799966"><ele>17.166666666666668</ele><time>2026-04-26T09:02:37.736Z</time></trkpt><trkpt lat="43.8865252" lon="12.8799339"><ele>17.0</ele><time>2026-04-26T09:02:38.755Z</time></trkpt><trkpt lat="43.8864812" lon="12.8798479"><ele>17.0</ele><time>2026-04-26T09:02:39.741Z</time></trkpt><trkpt lat="43.886446" lon="12.8797751"><ele>17.0</ele><time>2026-04-26T09:02:40.754Z</time></trkpt><trkpt lat="43.8863825" lon="12.879654"><ele>17.0</ele><time>2026-04-26T09:02:42.759Z</time></trkpt><trkpt lat="43.886309" lon="12.8795334"><ele>17.0</ele><time>2026-04-26T09:02:44.752Z</time></trkpt><trkpt lat="43.8862215" lon="12.8794044"><ele>17.0</ele><time>2026-04-26T09:02:46.756Z</time></trkpt><trkpt lat="43.8861625" lon="12.8792989"><ele>17.166666666666668</ele><time>2026-04-26T09:02:48.731Z</time></trkpt><trkpt lat="43.8861173" lon="12.8792336"><ele>17.333333333333336</ele><time>2026-04-26T09:02:50.742Z</time></trkpt><trkpt lat="43.8860685" lon="12.879159"><ele>17.5</ele><time>2026-04-26T09:02:51.76Z</time></trkpt><trkpt lat="43.8860148" lon="12.8790544"><ele>17.666666666666668</ele><time>2026-04-26T09:02:53.751Z</time></trkpt><trkpt lat="43.885954" lon="12.8789418"><ele>17.833333333333332</ele><time>2026-04-26T09:02:55.739Z</time></trkpt><trkpt lat="43.8858736" lon="12.8788515"><ele>18.0</ele><time>2026-04-26T09:02:57.74Z</time></trkpt><trkpt lat="43.8857952" lon="12.8787563"><ele>18.6</ele><time>2026-04-26T09:02:59.75Z</time></trkpt><trkpt lat="43.8857136" lon="12.8786461"><ele>19.200000000000003</ele><time>2026-04-26T09:03:01.76Z</time></trkpt><trkpt lat="43.8856525" lon="12.8785171"><ele>19.8</ele><time>2026-04-26T09:03:03.75Z</time></trkpt><trkpt lat="43.8855669" lon="12.8783985"><ele>20.400000000000002</ele><time>2026-04-26T09:03:05.737Z</time></trkpt><trkpt lat="43.8855203" lon="12.8782741"><ele>21.0</ele><time>2026-04-26T09:03:07.732Z</time></trkpt><trkpt lat="43.8854752" lon="12.8782015"><ele>21.0</ele><time>2026-04-26T09:03:09.743Z</time></trkpt><trkpt lat="43.8854047" lon="12.8780648"><ele>21.0</ele><time>2026-04-26T09:03:12.75Z</time></trkpt><trkpt lat="43.8853042" lon="12.8779231"><ele>21.0</ele><time>2026-04-26T09:03:14.73Z</time></trkpt><trkpt lat="43.8852446" lon="12.8777823"><ele>21.0</ele><time>2026-04-26T09:03:16.744Z</time></trkpt><trkpt lat="43.8851671" lon="12.8776452"><ele>20.8</ele><time>2026-04-26T09:03:18.742Z</time></trkpt><trkpt lat="43.8851176" lon="12.8775271"><ele>20.6</ele><time>2026-04-26T09:03:20.739Z</time></trkpt><trkpt lat="43.885068" lon="12.8773949"><ele>20.4</ele><time>2026-04-26T09:03:22.737Z</time></trkpt><trkpt lat="43.8850126" lon="12.8772941"><ele>20.2</ele><time>2026-04-26T09:03:24.732Z</time></trkpt><trkpt lat="43.8849079" lon="12.8772243"><ele>20.0</ele><time>2026-04-26T09:03:26.746Z</time></trkpt><trkpt lat="43.8848092" lon="12.877195"><ele>20.2</ele><time>2026-04-26T09:03:28.742Z</time></trkpt><trkpt lat="43.8847508" lon="12.8771391"><ele>20.4</ele><time>2026-04-26T09:03:29.741Z</time></trkpt><trkpt lat="43.8846866" lon="12.8771154"><ele>20.6</ele><time>2026-04-26T09:03:31.734Z</time></trkpt><trkpt lat="43.8846465" lon="12.8769928"><ele>20.8</ele><time>2026-04-26T09:03:33.729Z</time></trkpt><trkpt lat="43.8845669" lon="12.8768676"><ele>21.0</ele><time>2026-04-26T09:03:35.727Z</time></trkpt><trkpt lat="43.8845124" lon="12.8767293"><ele>21.0</ele><time>2026-04-26T09:03:37.725Z</time></trkpt><trkpt lat="43.884419" lon="12.8766449"><ele>21.0</ele><time>2026-04-26T09:03:39.745Z</time></trkpt><trkpt lat="43.8843816" lon="12.8765682"><ele>21.0</ele><time>2026-04-26T09:03:40.733Z</time></trkpt><trkpt lat="43.8843049" lon="12.8764502"><ele>21.0</ele><time>2026-04-26T09:03:42.739Z</time></trkpt><trkpt lat="43.8842518" lon="12.8763767"><ele>21.0</ele><time>2026-04-26T09:03:43.743Z</time></trkpt><trkpt lat="43.8842228" lon="12.8762841"><ele>21.0</ele><time>2026-04-26T09:03:44.74Z</time></trkpt><trkpt lat="43.8841375" lon="12.8761412"><ele>21.200000000000003</ele><time>2026-04-26T09:03:46.745Z</time></trkpt><trkpt lat="43.8841017" lon="12.8760088"><ele>21.400000000000002</ele><time>2026-04-26T09:03:48.73Z</time></trkpt><trkpt lat="43.8840361" lon="12.8758962"><ele>21.6</ele><time>2026-04-26T09:03:50.752Z</time></trkpt><trkpt lat="43.8840253" lon="12.8757768"><ele>21.8</ele><time>2026-04-26T09:03:52.738Z</time></trkpt><trkpt lat="43.8840087" lon="12.8756916"><ele>22.0</ele><time>2026-04-26T09:03:53.737Z</time></trkpt><trkpt lat="43.8839717" lon="12.8755316"><ele>22.0</ele><time>2026-04-26T09:03:55.732Z</time></trkpt><trkpt lat="43.8839578" lon="12.8754372"><ele>22.0</ele><time>2026-04-26T09:03:56.736Z</time></trkpt><trkpt lat="43.8839499" lon="12.8752736"><ele>22.0</ele><time>2026-04-26T09:03:58.744Z</time></trkpt><trkpt lat="43.8839049" lon="12.8752018"><ele>22.0</ele><time>2026-04-26T09:03:59.742Z</time></trkpt><trkpt lat="43.88389" lon="12.8750383"><ele>22.0</ele><time>2026-04-26T09:04:01.746Z</time></trkpt><trkpt lat="43.883882" lon="12.874883"><ele>22.25</ele><time>2026-04-26T09:04:03.758Z</time></trkpt><trkpt lat="43.8838534" lon="12.8747294"><ele>22.5</ele><time>2026-04-26T09:04:05.732Z</time></trkpt><trkpt lat="43.8838324" lon="12.8745716"><ele>22.75</ele><time>2026-04-26T09:04:07.749Z</time></trkpt><trkpt lat="43.8838091" lon="12.8744186"><ele>23.0</ele><time>2026-04-26T09:04:09.747Z</time></trkpt><trkpt lat="43.883801" lon="12.8742623"><ele>23.0</ele><time>2026-04-26T09:04:11.741Z</time></trkpt><trkpt lat="43.8837935" lon="12.8741735"><ele>23.0</ele><time>2026-04-26T09:04:12.742Z</time></trkpt><trkpt lat="43.8837863" lon="12.8740805"><ele>23.0</ele><time>2026-04-26T09:04:13.75Z</time></trkpt><trkpt lat="43.883757" lon="12.87398"><ele>23.0</ele><time>2026-04-26T09:04:15.725Z</time></trkpt><trkpt lat="43.8837568" lon="12.8738897"><ele>23.0</ele><time>2026-04-26T09:04:16.751Z</time></trkpt><trkpt lat="43.8837378" lon="12.8737629"><ele>23.0</ele><time>2026-04-26T09:04:18.741Z</time></trkpt><trkpt lat="43.8837196" lon="12.8736364"><ele>23.0</ele><time>2026-04-26T09:04:20.746Z</time></trkpt><trkpt lat="43.8837435" lon="12.8734877"><ele>23.0</ele><time>2026-04-26T09:04:22.743Z</time></trkpt><trkpt lat="43.8837124" lon="12.8733624"><ele>23.0</ele><time>2026-04-26T09:04:23.76Z</time></trkpt><trkpt lat="43.8836889" lon="12.8731577"><ele>23.0</ele><time>2026-04-26T09:04:25.73Z</time></trkpt><trkpt lat="43.8836799" lon="12.8730683"><ele>23.0</ele><time>2026-04-26T09:04:26.733Z</time></trkpt><trkpt lat="43.8836585" lon="12.8728857"><ele>23.0</ele><time>2026-04-26T09:04:28.731Z</time></trkpt><trkpt lat="43.8836371" lon="12.8727979"><ele>23.0</ele><time>2026-04-26T09:04:29.729Z</time></trkpt><trkpt lat="43.8835982" lon="12.8726544"><ele>23.0</ele><time>2026-04-26T09:04:31.744Z</time></trkpt><trkpt lat="43.8835565" lon="12.8725145"><ele>23.0</ele><time>2026-04-26T09:04:33.744Z</time></trkpt><trkpt lat="43.8835257" lon="12.8723743"><ele>23.0</ele><time>2026-04-26T09:04:35.737Z</time></trkpt><trkpt lat="43.8835246" lon="12.8722043"><ele>22.599999999999998</ele><time>2026-04-26T09:04:37.749Z</time></trkpt><trkpt lat="43.8835325" lon="12.8721081"><ele>22.2</ele><time>2026-04-26T09:04:38.744Z</time></trkpt><trkpt lat="43.8834837" lon="12.8719877"><ele>21.8</ele><time>2026-04-26T09:04:40.74Z</time></trkpt><trkpt lat="43.8834615" lon="12.8718564"><ele>21.4</ele><time>2026-04-26T09:04:42.741Z</time></trkpt><trkpt lat="43.8834407" lon="12.8717129"><ele>21.0</ele><time>2026-04-26T09:04:44.73Z</time></trkpt><trkpt lat="43.8834567" lon="12.8715778"><ele>21.4</ele><time>2026-04-26T09:04:46.744Z</time></trkpt><trkpt lat="43.8833303" lon="12.8715523"><ele>21.8</ele><time>2026-04-26T09:04:49.73Z</time></trkpt><trkpt lat="43.8832323" lon="12.8716005"><ele>22.2</ele><time>2026-04-26T09:04:52.73Z</time></trkpt><trkpt lat="43.8831568" lon="12.8716376"><ele>22.599999999999998</ele><time>2026-04-26T09:04:54.746Z</time></trkpt><trkpt lat="43.8830841" lon="12.8717136"><ele>23.0</ele><time>2026-04-26T09:04:56.748Z</time></trkpt><trkpt lat="43.8830058" lon="12.8717915"><ele>23.0</ele><time>2026-04-26T09:04:57.746Z</time></trkpt><trkpt lat="43.882859" lon="12.8719072"><ele>23.0</ele><time>2026-04-26T09:04:59.723Z</time></trkpt><trkpt lat="43.8827821" lon="12.871989"><ele>23.0</ele><time>2026-04-26T09:05:00.737Z</time></trkpt><trkpt lat="43.882719" lon="12.8720315"><ele>23.0</ele><time>2026-04-26T09:05:01.736Z</time></trkpt><trkpt lat="43.8826355" lon="12.8721219"><ele>23.0</ele><time>2026-04-26T09:05:03.73Z</time></trkpt><trkpt lat="43.8825593" lon="12.872155"><ele>23.0</ele><time>2026-04-26T09:05:04.742Z</time></trkpt><trkpt lat="43.8826333" lon="12.8721657"><ele>23.0</ele><time>2026-04-26T09:05:06.736Z</time></trkpt><trkpt lat="43.882565" lon="12.8721991"><ele>23.0</ele><time>2026-04-26T09:05:08.743Z</time></trkpt><trkpt lat="43.8825191" lon="12.8722971"><ele>23.0</ele><time>2026-04-26T09:05:12.729Z</time></trkpt><trkpt lat="43.8824515" lon="12.872379"><ele>23.0</ele><time>2026-04-26T09:05:14.742Z</time></trkpt><trkpt lat="43.8823784" lon="12.8724891"><ele>23.0</ele><time>2026-04-26T09:05:16.732Z</time></trkpt><trkpt lat="43.8823124" lon="12.8726238"><ele>23.0</ele><time>2026-04-26T09:05:17.751Z</time></trkpt><trkpt lat="43.8822277" lon="12.8727757"><ele>23.0</ele><time>2026-04-26T09:05:19.744Z</time></trkpt><trkpt lat="43.88223" lon="12.8728702"><ele>23.0</ele><time>2026-04-26T09:05:21.735Z</time></trkpt><trkpt lat="43.8821387" lon="12.872947"><ele>23.0</ele><time>2026-04-26T09:05:23.755Z</time></trkpt><trkpt lat="43.8820664" lon="12.8730163"><ele>23.0</ele><time>2026-04-26T09:05:26.749Z</time></trkpt><trkpt lat="43.8820137" lon="12.8730888"><ele>23.0</ele><time>2026-04-26T09:05:28.74Z</time></trkpt><trkpt lat="43.8819691" lon="12.8731862"><ele>23.0</ele><time>2026-04-26T09:05:31.735Z</time></trkpt><trkpt lat="43.8819422" lon="12.8732699"><ele>23.0</ele><time>2026-04-26T09:05:34.735Z</time></trkpt><trkpt lat="43.8819266" lon="12.873373"><ele>23.0</ele><time>2026-04-26T09:05:38.731Z</time></trkpt><trkpt lat="43.881876" lon="12.8734286"><ele>23.0</ele><time>2026-04-26T09:05:41.73Z</time></trkpt><trkpt lat="43.8817836" lon="12.8734832"><ele>23.0</ele><time>2026-04-26T09:05:43.733Z</time></trkpt><trkpt lat="43.8817111" lon="12.8735328"><ele>24.333333333333336</ele><time>2026-04-26T09:05:44.725Z</time></trkpt><trkpt lat="43.881652" lon="12.8735891"><ele>25.666666666666668</ele><time>2026-04-26T09:05:45.742Z</time></trkpt><trkpt lat="43.8815712" lon="12.8736683"><ele>27.0</ele><time>2026-04-26T09:05:47.736Z</time></trkpt><trkpt lat="43.8814986" lon="12.8737459"><ele>28.333333333333336</ele><time>2026-04-26T09:05:49.735Z</time></trkpt><trkpt lat="43.8813975" lon="12.8738014"><ele>29.666666666666668</ele><time>2026-04-26T09:05:51.738Z</time></trkpt><trkpt lat="43.8813332" lon="12.8738454"><ele>31.0</ele><time>2026-04-26T09:05:52.727Z</time></trkpt><trkpt lat="43.8812625" lon="12.873868"><ele>31.0</ele><time>2026-04-26T09:05:53.735Z</time></trkpt><trkpt lat="43.8811899" lon="12.8738933"><ele>31.0</ele><time>2026-04-26T09:05:54.74Z</time></trkpt><trkpt lat="43.8809774" lon="12.8740591"><ele>31.0</ele><time>2026-04-26T09:05:55.735Z</time></trkpt><trkpt lat="43.8808808" lon="12.8741547"><ele>31.0</ele><time>2026-04-26T09:05:57.733Z</time></trkpt><trkpt lat="43.8809678" lon="12.8741264"><ele>31.000000000000004</ele><time>2026-04-26T09:05:59.742Z</time></trkpt><trkpt lat="43.8810515" lon="12.8740385"><ele>31.0</ele><time>2026-04-26T09:06:06.74Z</time></trkpt><trkpt lat="43.881101" lon="12.8739525"><ele>31.0</ele><time>2026-04-26T09:06:10.725Z</time></trkpt><trkpt lat="43.881114" lon="12.8738639"><ele>31.0</ele><time>2026-04-26T09:06:13.742Z</time></trkpt><trkpt lat="43.8810758" lon="12.8737944"><ele>31.000000000000004</ele><time>2026-04-26T09:06:23.749Z</time></trkpt><trkpt lat="43.8810921" lon="12.8737028"><ele>31.0</ele><time>2026-04-26T09:06:28.749Z</time></trkpt><trkpt lat="43.8810495" lon="12.8736216"><ele>31.0</ele><time>2026-04-26T09:06:38.736Z</time></trkpt><trkpt lat="43.8810077" lon="12.8735381"><ele>31.000000000000004</ele><time>2026-04-26T09:06:43.73Z</time></trkpt><trkpt lat="43.8809737" lon="12.8734581"><ele>31.0</ele><time>2026-04-26T09:06:51.738Z</time></trkpt><trkpt lat="43.8809748" lon="12.8733529"><ele>31.0</ele><time>2026-04-26T09:06:56.74Z</time></trkpt><trkpt lat="43.8810262" lon="12.8734108"><ele>31.000000000000004</ele><time>2026-04-26T09:08:22.737Z</time></trkpt><trkpt lat="43.8810021" lon="12.8735128"><ele>31.0</ele><time>2026-04-26T09:08:28.729Z</time></trkpt><trkpt lat="43.8809307" lon="12.8734648"><ele>31.0</ele><time>2026-04-26T09:09:04.77Z</time></trkpt><trkpt lat="43.8809951" lon="12.8734842"><ele>31.0</ele><time>2026-04-26T09:09:11.68Z</time></trkpt><trkpt lat="43.8809322" lon="12.8735173"><ele>31.000000000000004</ele><time>2026-04-26T09:09:30.744Z</time></trkpt><trkpt lat="43.8809573" lon="12.8734212"><ele>31.0</ele><time>2026-04-26T09:10:20.734Z</time></trkpt><trkpt lat="43.8810054" lon="12.8734807"><ele>31.0</ele><time>2026-04-26T09:11:01.741Z</time></trkpt><trkpt lat="43.8810775" lon="12.873476"><ele>31.000000000000004</ele><time>2026-04-26T09:11:06.71Z</time></trkpt><trkpt lat="43.8811274" lon="12.8735328"><ele>31.0</ele><time>2026-04-26T09:11:12.749Z</time></trkpt><trkpt lat="43.8810542" lon="12.8735967"><ele>31.0</ele><time>2026-04-26T09:11:31.749Z</time></trkpt><trkpt lat="43.8809936" lon="12.8735483"><ele>32.42857142857143</ele><time>2026-04-26T09:11:38.74Z</time></trkpt><trkpt lat="43.8809274" lon="12.8735319"><ele>33.85714285714286</ele><time>2026-04-26T09:11:47.731Z</time></trkpt><trkpt lat="43.8808938" lon="12.8734564"><ele>35.285714285714285</ele><time>2026-04-26T09:11:54.764Z</time></trkpt><trkpt lat="43.8808971" lon="12.8733416"><ele>36.714285714285715</ele><time>2026-04-26T09:12:35.736Z</time></trkpt><trkpt lat="43.8808349" lon="12.8733688"><ele>38.14285714285714</ele><time>2026-04-26T09:13:01.728Z</time></trkpt><trkpt lat="43.8808047" lon="12.8732854"><ele>39.57142857142857</ele><time>2026-04-26T09:14:12.731Z</time></trkpt><trkpt lat="43.8808351" lon="12.8732058"><ele>41.0</ele><time>2026-04-26T09:14:17.647Z</time></trkpt><trkpt lat="43.8808803" lon="12.8731324"><ele>41.0</ele><time>2026-04-26T09:14:22.742Z</time></trkpt><trkpt lat="43.8809182" lon="12.8730579"><ele>41.0</ele><time>2026-04-26T09:14:28.745Z</time></trkpt><trkpt lat="43.8810035" lon="12.8732979"><ele>41.0</ele><time>2026-04-26T09:14:33.737Z</time></trkpt><trkpt lat="43.881078" lon="12.8735425"><ele>39.33333333333333</ele><time>2026-04-26T09:14:34.731Z</time></trkpt><trkpt lat="43.8811126" lon="12.8736481"><ele>37.666666666666664</ele><time>2026-04-26T09:14:35.726Z</time></trkpt><trkpt lat="43.8811392" lon="12.8737312"><ele>36.0</ele><time>2026-04-26T09:14:41.744Z</time></trkpt><trkpt lat="43.8811299" lon="12.8738185"><ele>34.333333333333336</ele><time>2026-04-26T09:15:01.724Z</time></trkpt><trkpt lat="43.8811109" lon="12.8740068"><ele>32.66666666666667</ele><time>2026-04-26T09:15:08.749Z</time></trkpt><trkpt lat="43.8811876" lon="12.8740246"><ele>31.0</ele><time>2026-04-26T09:15:11.743Z</time></trkpt><trkpt lat="43.8813554" lon="12.8740356"><ele>31.0</ele><time>2026-04-26T09:15:12.745Z</time></trkpt><trkpt lat="43.8814445" lon="12.8739595"><ele>31.0</ele><time>2026-04-26T09:15:13.743Z</time></trkpt><trkpt lat="43.8815143" lon="12.873868"><ele>31.0</ele><time>2026-04-26T09:15:14.727Z</time></trkpt><trkpt lat="43.8815867" lon="12.8737573"><ele>31.0</ele><time>2026-04-26T09:15:15.735Z</time></trkpt><trkpt lat="43.8816506" lon="12.8736468"><ele>31.0</ele><time>2026-04-26T09:15:16.746Z</time></trkpt><trkpt lat="43.8817247" lon="12.8735227"><ele>29.4</ele><time>2026-04-26T09:15:17.746Z</time></trkpt><trkpt lat="43.8818001" lon="12.8734209"><ele>27.8</ele><time>2026-04-26T09:15:18.747Z</time></trkpt><trkpt lat="43.8818712" lon="12.8733185"><ele>26.2</ele><time>2026-04-26T09:15:19.737Z</time></trkpt><trkpt lat="43.8819436" lon="12.8731986"><ele>24.599999999999998</ele><time>2026-04-26T09:15:20.743Z</time></trkpt><trkpt lat="43.8820327" lon="12.8730758"><ele>23.0</ele><time>2026-04-26T09:15:21.742Z</time></trkpt><trkpt lat="43.8821025" lon="12.8730026"><ele>23.0</ele><time>2026-04-26T09:15:22.733Z</time></trkpt><trkpt lat="43.882152" lon="12.8728954"><ele>23.0</ele><time>2026-04-26T09:15:23.742Z</time></trkpt><trkpt lat="43.882229" lon="12.8728214"><ele>23.0</ele><time>2026-04-26T09:15:24.744Z</time></trkpt><trkpt lat="43.8823117" lon="12.872741"><ele>23.0</ele><time>2026-04-26T09:15:25.731Z</time></trkpt><trkpt lat="43.8823834" lon="12.8726322"><ele>23.0</ele><time>2026-04-26T09:15:26.742Z</time></trkpt><trkpt lat="43.882437" lon="12.8725245"><ele>23.0</ele><time>2026-04-26T09:15:27.738Z</time></trkpt><trkpt lat="43.8825128" lon="12.8724068"><ele>23.0</ele><time>2026-04-26T09:15:28.737Z</time></trkpt><trkpt lat="43.8825563" lon="12.8723284"><ele>23.0</ele><time>2026-04-26T09:15:29.743Z</time></trkpt><trkpt lat="43.8826309" lon="12.8722395"><ele>23.0</ele><time>2026-04-26T09:15:30.73Z</time></trkpt><trkpt lat="43.8827105" lon="12.872177"><ele>23.0</ele><time>2026-04-26T09:15:32.746Z</time></trkpt><trkpt lat="43.8828126" lon="12.8720688"><ele>23.0</ele><time>2026-04-26T09:15:34.736Z</time></trkpt><trkpt lat="43.8828582" lon="12.8720011"><ele>23.0</ele><time>2026-04-26T09:15:35.753Z</time></trkpt><trkpt lat="43.8829204" lon="12.8718992"><ele>23.0</ele><time>2026-04-26T09:15:37.74Z</time></trkpt><trkpt lat="43.8830122" lon="12.8718233"><ele>23.0</ele><time>2026-04-26T09:15:38.731Z</time></trkpt><trkpt lat="43.8830703" lon="12.8717159"><ele>23.0</ele><time>2026-04-26T09:15:39.745Z</time></trkpt><trkpt lat="43.8831671" lon="12.8716442"><ele>23.0</ele><time>2026-04-26T09:15:41.739Z</time></trkpt><trkpt lat="43.8832393" lon="12.8716323"><ele>23.0</ele><time>2026-04-26T09:15:43.742Z</time></trkpt><trkpt lat="43.8833693" lon="12.8718793"><ele>23.0</ele><time>2026-04-26T09:15:49.761Z</time></trkpt><trkpt lat="43.8834136" lon="12.8720209"><ele>23.0</ele><time>2026-04-26T09:15:51.733Z</time></trkpt><trkpt lat="43.8834469" lon="12.8721793"><ele>23.0</ele><time>2026-04-26T09:15:53.75Z</time></trkpt><trkpt lat="43.8834656" lon="12.8722698"><ele>23.0</ele><time>2026-04-26T09:15:54.743Z</time></trkpt><trkpt lat="43.8834927" lon="12.8724542"><ele>23.0</ele><time>2026-04-26T09:15:56.73Z</time></trkpt><trkpt lat="43.8835058" lon="12.872557"><ele>23.0</ele><time>2026-04-26T09:15:57.76Z</time></trkpt><trkpt lat="43.8835435" lon="12.8726974"><ele>23.0</ele><time>2026-04-26T09:15:59.751Z</time></trkpt><trkpt lat="43.8835629" lon="12.8728121"><ele>23.0</ele><time>2026-04-26T09:16:01.758Z</time></trkpt><trkpt lat="43.8835826" lon="12.8729277"><ele>23.0</ele><time>2026-04-26T09:16:02.729Z</time></trkpt><trkpt lat="43.8835726" lon="12.8730466"><ele>23.0</ele><time>2026-04-26T09:16:03.743Z</time></trkpt><trkpt lat="43.8836108" lon="12.8731198"><ele>23.0</ele><time>2026-04-26T09:16:04.733Z</time></trkpt><trkpt lat="43.8836366" lon="12.8732754"><ele>23.0</ele><time>2026-04-26T09:16:06.744Z</time></trkpt><trkpt lat="43.8836667" lon="12.8734343"><ele>23.0</ele><time>2026-04-26T09:16:08.74Z</time></trkpt><trkpt lat="43.8836993" lon="12.8735854"><ele>23.0</ele><time>2026-04-26T09:16:10.738Z</time></trkpt><trkpt lat="43.8837189" lon="12.8736887"><ele>23.0</ele><time>2026-04-26T09:16:12.736Z</time></trkpt><trkpt lat="43.883737" lon="12.8738068"><ele>23.0</ele><time>2026-04-26T09:16:14.746Z</time></trkpt><trkpt lat="43.8837438" lon="12.873943"><ele>23.0</ele><time>2026-04-26T09:16:16.747Z</time></trkpt><trkpt lat="43.8837581" lon="12.874032"><ele>23.0</ele><time>2026-04-26T09:16:17.737Z</time></trkpt><trkpt lat="43.8837943" lon="12.8741917"><ele>22.5</ele><time>2026-04-26T09:16:19.747Z</time></trkpt><trkpt lat="43.8837917" lon="12.8743313"><ele>22.0</ele><time>2026-04-26T09:16:20.759Z</time></trkpt><trkpt lat="43.8838071" lon="12.874416"><ele>21.5</ele><time>2026-04-26T09:16:21.744Z</time></trkpt><trkpt lat="43.8838247" lon="12.8745081"><ele>21.0</ele><time>2026-04-26T09:16:22.742Z</time></trkpt><trkpt lat="43.883838" lon="12.8745964"><ele>20.5</ele><time>2026-04-26T09:16:23.733Z</time></trkpt><trkpt lat="43.8838597" lon="12.87478"><ele>20.0</ele><time>2026-04-26T09:16:25.731Z</time></trkpt><trkpt lat="43.8838722" lon="12.8749582"><ele>20.4</ele><time>2026-04-26T09:16:27.731Z</time></trkpt><trkpt lat="43.8838897" lon="12.8751185"><ele>20.8</ele><time>2026-04-26T09:16:29.742Z</time></trkpt><trkpt lat="43.8839115" lon="12.8752812"><ele>21.200000000000003</ele><time>2026-04-26T09:16:31.745Z</time></trkpt><trkpt lat="43.8839317" lon="12.8754414"><ele>21.6</ele><time>2026-04-26T09:16:33.754Z</time></trkpt><trkpt lat="43.8839501" lon="12.8755284"><ele>22.0</ele><time>2026-04-26T09:16:34.729Z</time></trkpt><trkpt lat="43.883985" lon="12.8756813"><ele>22.0</ele><time>2026-04-26T09:16:36.745Z</time></trkpt><trkpt lat="43.8840147" lon="12.8758022"><ele>22.0</ele><time>2026-04-26T09:16:38.743Z</time></trkpt><trkpt lat="43.8840511" lon="12.8758913"><ele>22.0</ele><time>2026-04-26T09:16:40.734Z</time></trkpt><trkpt lat="43.8840849" lon="12.876017"><ele>22.0</ele><time>2026-04-26T09:16:42.744Z</time></trkpt><trkpt lat="43.8841065" lon="12.8761198"><ele>22.0</ele><time>2026-04-26T09:16:43.743Z</time></trkpt><trkpt lat="43.884181" lon="12.8762878"><ele>22.0</ele><time>2026-04-26T09:16:45.757Z</time></trkpt><trkpt lat="43.88423" lon="12.8764194"><ele>22.0</ele><time>2026-04-26T09:16:46.743Z</time></trkpt><trkpt lat="43.8842807" lon="12.8765054"><ele>22.0</ele><time>2026-04-26T09:16:47.732Z</time></trkpt><trkpt lat="43.8843304" lon="12.8765907"><ele>22.0</ele><time>2026-04-26T09:16:48.755Z</time></trkpt><trkpt lat="43.8843587" lon="12.8766691"><ele>22.0</ele><time>2026-04-26T09:16:49.744Z</time></trkpt><trkpt lat="43.884415" lon="12.876769"><ele>22.0</ele><time>2026-04-26T09:16:50.742Z</time></trkpt><trkpt lat="43.8844939" lon="12.876924"><ele>22.0</ele><time>2026-04-26T09:16:52.744Z</time></trkpt><trkpt lat="43.8845258" lon="12.8770011"><ele>22.0</ele><time>2026-04-26T09:16:53.732Z</time></trkpt><trkpt lat="43.8845696" lon="12.8770706"><ele>22.0</ele><time>2026-04-26T09:16:54.737Z</time></trkpt><trkpt lat="43.8846505" lon="12.8771626"><ele>22.0</ele><time>2026-04-26T09:16:56.741Z</time></trkpt><trkpt lat="43.8847465" lon="12.8772674"><ele>22.0</ele><time>2026-04-26T09:16:58.744Z</time></trkpt><trkpt lat="43.8848322" lon="12.8773324"><ele>22.0</ele><time>2026-04-26T09:17:00.739Z</time></trkpt><trkpt lat="43.8849159" lon="12.8774162"><ele>22.0</ele><time>2026-04-26T09:17:02.738Z</time></trkpt><trkpt lat="43.8850051" lon="12.8775415"><ele>22.0</ele><time>2026-04-26T09:17:04.745Z</time></trkpt><trkpt lat="43.8850543" lon="12.8776502"><ele>22.0</ele><time>2026-04-26T09:17:05.731Z</time></trkpt><trkpt lat="43.8851453" lon="12.8777673"><ele>22.0</ele><time>2026-04-26T09:17:07.732Z</time></trkpt><trkpt lat="43.8852308" lon="12.8778761"><ele>21.8</ele><time>2026-04-26T09:17:09.735Z</time></trkpt><trkpt lat="43.8853244" lon="12.8779704"><ele>21.6</ele><time>2026-04-26T09:17:11.738Z</time></trkpt><trkpt lat="43.8854021" lon="12.8780889"><ele>21.400000000000002</ele><time>2026-04-26T09:17:13.74Z</time></trkpt><trkpt lat="43.8854491" lon="12.8781475"><ele>21.200000000000003</ele><time>2026-04-26T09:17:14.727Z</time></trkpt><trkpt lat="43.885532" lon="12.878276"><ele>21.0</ele><time>2026-04-26T09:17:16.744Z</time></trkpt><trkpt lat="43.8855839" lon="12.8783589"><ele>21.0</ele><time>2026-04-26T09:17:17.737Z</time></trkpt><trkpt lat="43.8856595" lon="12.8784893"><ele>21.0</ele><time>2026-04-26T09:17:19.736Z</time></trkpt><trkpt lat="43.8857011" lon="12.8785623"><ele>21.0</ele><time>2026-04-26T09:17:20.735Z</time></trkpt><trkpt lat="43.8857427" lon="12.8786368"><ele>21.0</ele><time>2026-04-26T09:17:21.757Z</time></trkpt><trkpt lat="43.8857703" lon="12.8787388"><ele>21.0</ele><time>2026-04-26T09:17:22.734Z</time></trkpt><trkpt lat="43.8857996" lon="12.8788904"><ele>21.0</ele><time>2026-04-26T09:17:23.723Z</time></trkpt><trkpt lat="43.8858382" lon="12.8790202"><ele>21.0</ele><time>2026-04-26T09:17:25.74Z</time></trkpt><trkpt lat="43.8858811" lon="12.8791215"><ele>21.0</ele><time>2026-04-26T09:17:27.745Z</time></trkpt><trkpt lat="43.8859714" lon="12.8791585"><ele>21.0</ele><time>2026-04-26T09:17:28.74Z</time></trkpt><trkpt lat="43.8860443" lon="12.8792403"><ele>21.0</ele><time>2026-04-26T09:17:30.743Z</time></trkpt><trkpt lat="43.8860876" lon="12.8793193"><ele>21.0</ele><time>2026-04-26T09:17:31.747Z</time></trkpt><trkpt lat="43.8861804" lon="12.8794513"><ele>20.2</ele><time>2026-04-26T09:17:33.744Z</time></trkpt><trkpt lat="43.8862325" lon="12.8795366"><ele>19.400000000000002</ele><time>2026-04-26T09:17:34.743Z</time></trkpt><trkpt lat="43.8863243" lon="12.8796499"><ele>18.6</ele><time>2026-04-26T09:17:36.752Z</time></trkpt><trkpt lat="43.8863768" lon="12.8797331"><ele>17.8</ele><time>2026-04-26T09:17:37.761Z</time></trkpt><trkpt lat="43.8864617" lon="12.8798437"><ele>17.0</ele><time>2026-04-26T09:17:39.733Z</time></trkpt><trkpt lat="43.886542" lon="12.8799732"><ele>17.2</ele><time>2026-04-26T09:17:41.74Z</time></trkpt><trkpt lat="43.886636" lon="12.8801074"><ele>17.4</ele><time>2026-04-26T09:17:43.746Z</time></trkpt><trkpt lat="43.8866834" lon="12.8801734"><ele>17.6</ele><time>2026-04-26T09:17:44.731Z</time></trkpt><trkpt lat="43.8867804" lon="12.8802887"><ele>17.8</ele><time>2026-04-26T09:17:46.74Z</time></trkpt><trkpt lat="43.8868294" lon="12.8803802"><ele>18.0</ele><time>2026-04-26T09:17:48.727Z</time></trkpt><trkpt lat="43.886897" lon="12.8804416"><ele>18.0</ele><time>2026-04-26T09:17:49.722Z</time></trkpt><trkpt lat="43.8869516" lon="12.8804979"><ele>18.0</ele><time>2026-04-26T09:17:50.726Z</time></trkpt><trkpt lat="43.8869989" lon="12.8805568"><ele>18.0</ele><time>2026-04-26T09:17:51.729Z</time></trkpt><trkpt lat="43.887056" lon="12.8806361"><ele>18.0</ele><time>2026-04-26T09:17:52.726Z</time></trkpt><trkpt lat="43.887156" lon="12.880739"><ele>18.0</ele><time>2026-04-26T09:17:54.748Z</time></trkpt><trkpt lat="43.8872246" lon="12.8808075"><ele>18.0</ele><time>2026-04-26T09:17:56.742Z</time></trkpt><trkpt lat="43.8872759" lon="12.8808614"><ele>18.0</ele><time>2026-04-26T09:17:57.739Z</time></trkpt><trkpt lat="43.8873223" lon="12.8809237"><ele>18.0</ele><time>2026-04-26T09:17:58.736Z</time></trkpt><trkpt lat="43.8873722" lon="12.8809805"><ele>18.0</ele><time>2026-04-26T09:17:59.729Z</time></trkpt><trkpt lat="43.8874251" lon="12.881035"><ele>18.0</ele><time>2026-04-26T09:18:00.744Z</time></trkpt><trkpt lat="43.8875059" lon="12.8811541"><ele>18.0</ele><time>2026-04-26T09:18:01.736Z</time></trkpt><trkpt lat="43.8875902" lon="12.8812615"><ele>18.0</ele><time>2026-04-26T09:18:03.731Z</time></trkpt><trkpt lat="43.8876339" lon="12.8813245"><ele>18.0</ele><time>2026-04-26T09:18:04.724Z</time></trkpt><trkpt lat="43.8877067" lon="12.8813779"><ele>18.0</ele><time>2026-04-26T09:18:06.739Z</time></trkpt><trkpt lat="43.8877825" lon="12.8814968"><ele>18.0</ele><time>2026-04-26T09:18:08.729Z</time></trkpt><trkpt lat="43.887838" lon="12.8815568"><ele>18.0</ele><time>2026-04-26T09:18:09.733Z</time></trkpt><trkpt lat="43.8878972" lon="12.881641"><ele>18.0</ele><time>2026-04-26T09:18:10.74Z</time></trkpt><trkpt lat="43.8879571" lon="12.8816877"><ele>18.0</ele><time>2026-04-26T09:18:11.725Z</time></trkpt><trkpt lat="43.8880304" lon="12.8817165"><ele>18.0</ele><time>2026-04-26T09:18:13.738Z</time></trkpt><trkpt lat="43.8881279" lon="12.8818404"><ele>18.0</ele><time>2026-04-26T09:18:15.743Z</time></trkpt><trkpt lat="43.8881805" lon="12.8819546"><ele>18.0</ele><time>2026-04-26T09:18:16.726Z</time></trkpt><trkpt lat="43.8882613" lon="12.8820627"><ele>18.0</ele><time>2026-04-26T09:18:18.723Z</time></trkpt><trkpt lat="43.8883364" lon="12.882165"><ele>18.0</ele><time>2026-04-26T09:18:20.727Z</time></trkpt><trkpt lat="43.8884279" lon="12.8822943"><ele>17.6</ele><time>2026-04-26T09:18:22.737Z</time></trkpt><trkpt lat="43.8884833" lon="12.8823846"><ele>17.200000000000003</ele><time>2026-04-26T09:18:23.742Z</time></trkpt><trkpt lat="43.8885602" lon="12.8824826"><ele>16.8</ele><time>2026-04-26T09:18:25.74Z</time></trkpt><trkpt lat="43.8886549" lon="12.8825502"><ele>16.400000000000002</ele><time>2026-04-26T09:18:27.742Z</time></trkpt><trkpt lat="43.8887355" lon="12.8826771"><ele>16.0</ele><time>2026-04-26T09:18:29.724Z</time></trkpt><trkpt lat="43.8888243" lon="12.8827862"><ele>15.600000000000001</ele><time>2026-04-26T09:18:31.741Z</time></trkpt><trkpt lat="43.8889157" lon="12.8829002"><ele>15.200000000000001</ele><time>2026-04-26T09:18:33.726Z</time></trkpt><trkpt lat="43.8889711" lon="12.8829448"><ele>14.799999999999999</ele><time>2026-04-26T09:18:34.722Z</time></trkpt><trkpt lat="43.8890583" lon="12.8830197"><ele>14.399999999999999</ele><time>2026-04-26T09:18:36.732Z</time></trkpt><trkpt lat="43.8891489" lon="12.8831357"><ele>14.0</ele><time>2026-04-26T09:18:38.725Z</time></trkpt><trkpt lat="43.8891938" lon="12.8832029"><ele>14.166666666666668</ele><time>2026-04-26T09:18:39.733Z</time></trkpt><trkpt lat="43.8892844" lon="12.8833147"><ele>14.333333333333334</ele><time>2026-04-26T09:18:41.723Z</time></trkpt><trkpt lat="43.8893389" lon="12.8833646"><ele>14.5</ele><time>2026-04-26T09:18:42.73Z</time></trkpt><trkpt lat="43.8893914" lon="12.8834301"><ele>14.666666666666668</ele><time>2026-04-26T09:18:43.732Z</time></trkpt><trkpt lat="43.8894421" lon="12.8834921"><ele>14.833333333333334</ele><time>2026-04-26T09:18:44.726Z</time></trkpt><trkpt lat="43.8894864" lon="12.8835688"><ele>15.0</ele><time>2026-04-26T09:18:45.738Z</time></trkpt><trkpt lat="43.8895287" lon="12.8836404"><ele>14.2</ele><time>2026-04-26T09:18:46.73Z</time></trkpt><trkpt lat="43.8895742" lon="12.8837013"><ele>13.4</ele><time>2026-04-26T09:18:47.737Z</time></trkpt><trkpt lat="43.8896164" lon="12.8837737"><ele>12.600000000000001</ele><time>2026-04-26T09:18:48.727Z</time></trkpt><trkpt lat="43.8896875" lon="12.8838785"><ele>11.8</ele><time>2026-04-26T09:18:50.738Z</time></trkpt><trkpt lat="43.8897527" lon="12.8840062"><ele>11.0</ele><time>2026-04-26T09:18:52.734Z</time></trkpt><trkpt lat="43.8897793" lon="12.8841587"><ele>11.75</ele><time>2026-04-26T09:18:54.727Z</time></trkpt><trkpt lat="43.8897829" lon="12.8843179"><ele>12.5</ele><time>2026-04-26T09:18:56.734Z</time></trkpt><trkpt lat="43.8897785" lon="12.8844673"><ele>13.25</ele><time>2026-04-26T09:18:58.724Z</time></trkpt><trkpt lat="43.8897725" lon="12.8846202"><ele>14.0</ele><time>2026-04-26T09:19:00.725Z</time></trkpt><trkpt lat="43.8897739" lon="12.884793"><ele>14.000000000000002</ele><time>2026-04-26T09:19:02.72Z</time></trkpt><trkpt lat="43.8897934" lon="12.8849271"><ele>14.0</ele><time>2026-04-26T09:19:03.726Z</time></trkpt><trkpt lat="43.8897919" lon="12.8850315"><ele>14.0</ele><time>2026-04-26T09:19:04.723Z</time></trkpt><trkpt lat="43.8897962" lon="12.8851279"><ele>14.0</ele><time>2026-04-26T09:19:05.722Z</time></trkpt><trkpt lat="43.8897987" lon="12.885289"><ele>14.000000000000002</ele><time>2026-04-26T09:19:07.722Z</time></trkpt><trkpt lat="43.8898177" lon="12.8853869"><ele>14.0</ele><time>2026-04-26T09:19:08.722Z</time></trkpt><trkpt lat="43.8898291" lon="12.8854796"><ele>14.0</ele><time>2026-04-26T09:19:09.728Z</time></trkpt><trkpt lat="43.8898325" lon="12.8856446"><ele>13.999999999999998</ele><time>2026-04-26T09:19:11.742Z</time></trkpt><trkpt lat="43.8898476" lon="12.8857352"><ele>13.999999999999998</ele><time>2026-04-26T09:19:12.742Z</time></trkpt><trkpt lat="43.8898526" lon="12.8858575"><ele>14.0</ele><time>2026-04-26T09:19:14.721Z</time></trkpt><trkpt lat="43.8899201" lon="12.8859984"><ele>14.0</ele><time>2026-04-26T09:19:16.738Z</time></trkpt><trkpt lat="43.8899418" lon="12.8861326"><ele>14.0</ele><time>2026-04-26T09:19:18.724Z</time></trkpt><trkpt lat="43.890003" lon="12.8862832"><ele>13.999999999999998</ele><time>2026-04-26T09:19:20.727Z</time></trkpt><trkpt lat="43.8900513" lon="12.8864334"><ele>13.999999999999998</ele><time>2026-04-26T09:19:22.731Z</time></trkpt><trkpt lat="43.890094" lon="12.8865049"><ele>14.0</ele><time>2026-04-26T09:19:23.732Z</time></trkpt><trkpt lat="43.8901352" lon="12.886602"><ele>14.0</ele><time>2026-04-26T09:19:24.727Z</time></trkpt><trkpt lat="43.8901773" lon="12.8866715"><ele>13.799999999999999</ele><time>2026-04-26T09:19:25.731Z</time></trkpt><trkpt lat="43.8902816" lon="12.8868234"><ele>13.599999999999998</ele><time>2026-04-26T09:19:27.732Z</time></trkpt><trkpt lat="43.890325" lon="12.8868874"><ele>13.4</ele><time>2026-04-26T09:19:28.726Z</time></trkpt><trkpt lat="43.8904134" lon="12.8870102"><ele>13.2</ele><time>2026-04-26T09:19:30.729Z</time></trkpt><trkpt lat="43.8904608" lon="12.8870756"><ele>13.0</ele><time>2026-04-26T09:19:31.724Z</time></trkpt><trkpt lat="43.8905579" lon="12.8871681"><ele>13.0</ele><time>2026-04-26T09:19:33.727Z</time></trkpt><trkpt lat="43.8906521" lon="12.8872911"><ele>13.0</ele><time>2026-04-26T09:19:35.73Z</time></trkpt><trkpt lat="43.8907316" lon="12.8874105"><ele>13.0</ele><time>2026-04-26T09:19:36.735Z</time></trkpt><trkpt lat="43.8908084" lon="12.8874958"><ele>13.0</ele><time>2026-04-26T09:19:38.721Z</time></trkpt><trkpt lat="43.8908868" lon="12.8876006"><ele>12.8</ele><time>2026-04-26T09:19:40.723Z</time></trkpt><trkpt lat="43.8909787" lon="12.8877034"><ele>12.600000000000001</ele><time>2026-04-26T09:19:42.724Z</time></trkpt><trkpt lat="43.891047" lon="12.8878157"><ele>12.399999999999999</ele><time>2026-04-26T09:19:44.728Z</time></trkpt><trkpt lat="43.8911149" lon="12.8879305"><ele>12.2</ele><time>2026-04-26T09:19:46.727Z</time></trkpt><trkpt lat="43.8911572" lon="12.8880554"><ele>12.0</ele><time>2026-04-26T09:19:48.729Z</time></trkpt><trkpt lat="43.8911763" lon="12.8882038"><ele>12.0</ele><time>2026-04-26T09:19:50.728Z</time></trkpt><trkpt lat="43.891197" lon="12.8883222"><ele>12.0</ele><time>2026-04-26T09:19:51.729Z</time></trkpt><trkpt lat="43.8912194" lon="12.8885055"><ele>12.0</ele><time>2026-04-26T09:19:53.728Z</time></trkpt><trkpt lat="43.8912419" lon="12.8885962"><ele>12.0</ele><time>2026-04-26T09:19:54.726Z</time></trkpt><trkpt lat="43.8913051" lon="12.8887471"><ele>12.0</ele><time>2026-04-26T09:19:56.725Z</time></trkpt><trkpt lat="43.8914052" lon="12.8888404"><ele>11.8</ele><time>2026-04-26T09:19:58.724Z</time></trkpt><trkpt lat="43.8914693" lon="12.8888726"><ele>11.6</ele><time>2026-04-26T09:19:59.739Z</time></trkpt><trkpt lat="43.8915852" lon="12.8888893"><ele>11.4</ele><time>2026-04-26T09:20:01.738Z</time></trkpt><trkpt lat="43.891695" lon="12.8888872"><ele>11.200000000000001</ele><time>2026-04-26T09:20:03.728Z</time></trkpt><trkpt lat="43.8917861" lon="12.8889012"><ele>11.0</ele><time>2026-04-26T09:20:05.733Z</time></trkpt><trkpt lat="43.8918535" lon="12.8889888"><ele>11.0</ele><time>2026-04-26T09:20:07.736Z</time></trkpt><trkpt lat="43.8919528" lon="12.8890646"><ele>11.0</ele><time>2026-04-26T09:20:09.723Z</time></trkpt><trkpt lat="43.8920413" lon="12.8891748"><ele>11.0</ele><time>2026-04-26T09:20:11.736Z</time></trkpt><trkpt lat="43.8921318" lon="12.8892767"><ele>11.0</ele><time>2026-04-26T09:20:13.723Z</time></trkpt><trkpt lat="43.8922131" lon="12.8893716"><ele>10.8</ele><time>2026-04-26T09:20:15.736Z</time></trkpt><trkpt lat="43.8922907" lon="12.8894544"><ele>10.600000000000001</ele><time>2026-04-26T09:20:17.731Z</time></trkpt><trkpt lat="43.8923648" lon="12.889573"><ele>10.4</ele><time>2026-04-26T09:20:19.725Z</time></trkpt><trkpt lat="43.89244" lon="12.8896757"><ele>10.2</ele><time>2026-04-26T09:20:21.723Z</time></trkpt><trkpt lat="43.8925031" lon="12.8897559"><ele>10.0</ele><time>2026-04-26T09:20:23.743Z</time></trkpt><trkpt lat="43.8925539" lon="12.8898201"><ele>10.8</ele><time>2026-04-26T09:20:24.725Z</time></trkpt><trkpt lat="43.8926121" lon="12.889885"><ele>11.6</ele><time>2026-04-26T09:20:26.742Z</time></trkpt><trkpt lat="43.8926931" lon="12.8900081"><ele>12.399999999999999</ele><time>2026-04-26T09:20:28.721Z</time></trkpt><trkpt lat="43.8927759" lon="12.8901113"><ele>13.2</ele><time>2026-04-26T09:20:30.733Z</time></trkpt><trkpt lat="43.8928443" lon="12.8902052"><ele>14.0</ele><time>2026-04-26T09:20:32.733Z</time></trkpt><trkpt lat="43.8929194" lon="12.8902928"><ele>14.2</ele><time>2026-04-26T09:20:34.727Z</time></trkpt><trkpt lat="43.8929714" lon="12.8903895"><ele>14.399999999999999</ele><time>2026-04-26T09:20:36.727Z</time></trkpt><trkpt lat="43.8930495" lon="12.8904722"><ele>14.6</ele><time>2026-04-26T09:22:16.734Z</time></trkpt><trkpt lat="43.8931159" lon="12.8905756"><ele>14.8</ele><time>2026-04-26T09:23:14.734Z</time></trkpt><trkpt lat="43.8931806" lon="12.8906624"><ele>15.0</ele><time>2026-04-26T09:23:16.726Z</time></trkpt><trkpt lat="43.8932681" lon="12.8907312"><ele>15.0</ele><time>2026-04-26T09:23:18.723Z</time></trkpt><trkpt lat="43.8933267" lon="12.8907763"><ele>15.0</ele><time>2026-04-26T09:23:20.724Z</time></trkpt><trkpt lat="43.8934125" lon="12.8908794"><ele>15.0</ele><time>2026-04-26T09:23:22.745Z</time></trkpt><trkpt lat="43.8934525" lon="12.8909546"><ele>15.0</ele><time>2026-04-26T09:23:23.73Z</time></trkpt><trkpt lat="43.8935246" lon="12.8910615"><ele>15.0</ele><time>2026-04-26T09:23:25.735Z</time></trkpt><trkpt lat="43.8936062" lon="12.8911609"><ele>14.333333333333334</ele><time>2026-04-26T09:23:27.731Z</time></trkpt><trkpt lat="43.893666" lon="12.8912185"><ele>13.666666666666666</ele><time>2026-04-26T09:23:28.732Z</time></trkpt><trkpt lat="43.8937249" lon="12.8912533"><ele>13.0</ele><time>2026-04-26T09:23:29.735Z</time></trkpt><trkpt lat="43.8938025" lon="12.8913405"><ele>12.333333333333332</ele><time>2026-04-26T09:23:31.721Z</time></trkpt><trkpt lat="43.8938804" lon="12.8914796"><ele>11.666666666666666</ele><time>2026-04-26T09:23:33.731Z</time></trkpt><trkpt lat="43.8939257" lon="12.8915633"><ele>11.0</ele><time>2026-04-26T09:23:34.732Z</time></trkpt><trkpt lat="43.89398" lon="12.8916345"><ele>11.0</ele><time>2026-04-26T09:23:35.746Z</time></trkpt><trkpt lat="43.8940235" lon="12.8916986"><ele>11.0</ele><time>2026-04-26T09:23:36.743Z</time></trkpt><trkpt lat="43.8940715" lon="12.891771"><ele>11.0</ele><time>2026-04-26T09:23:37.764Z</time></trkpt><trkpt lat="43.8941555" lon="12.8918641"><ele>11.0</ele><time>2026-04-26T09:23:39.741Z</time></trkpt><trkpt lat="43.8942479" lon="12.8919793"><ele>11.0</ele><time>2026-04-26T09:23:41.737Z</time></trkpt><trkpt lat="43.894298" lon="12.892051"><ele>11.0</ele><time>2026-04-26T09:23:42.746Z</time></trkpt><trkpt lat="43.8943455" lon="12.8921168"><ele>10.8</ele><time>2026-04-26T09:23:43.731Z</time></trkpt><trkpt lat="43.894428" lon="12.8922088"><ele>10.600000000000001</ele><time>2026-04-26T09:23:45.745Z</time></trkpt><trkpt lat="43.8945094" lon="12.892304"><ele>10.4</ele><time>2026-04-26T09:23:47.731Z</time></trkpt><trkpt lat="43.8945965" lon="12.8924192"><ele>10.2</ele><time>2026-04-26T09:23:49.741Z</time></trkpt><trkpt lat="43.8946451" lon="12.8925014"><ele>10.0</ele><time>2026-04-26T09:23:50.725Z</time></trkpt><trkpt lat="43.8947394" lon="12.8926132"><ele>10.0</ele><time>2026-04-26T09:23:52.732Z</time></trkpt><trkpt lat="43.8947897" lon="12.8926739"><ele>10.0</ele><time>2026-04-26T09:23:53.765Z</time></trkpt><trkpt lat="43.89484" lon="12.8927346"><ele>10.0</ele><time>2026-04-26T09:23:54.742Z</time></trkpt><trkpt lat="43.8948868" lon="12.8927979"><ele>10.0</ele><time>2026-04-26T09:23:55.727Z</time></trkpt><trkpt lat="43.8949355" lon="12.8928615"><ele>10.0</ele><time>2026-04-26T09:23:56.734Z</time></trkpt><trkpt lat="43.8950259" lon="12.8930126"><ele>10.0</ele><time>2026-04-26T09:23:58.729Z</time></trkpt><trkpt lat="43.8951038" lon="12.8931088"><ele>10.0</ele><time>2026-04-26T09:24:00.75Z</time></trkpt><trkpt lat="43.8951848" lon="12.893229"><ele>10.0</ele><time>2026-04-26T09:24:02.741Z</time></trkpt><trkpt lat="43.8952335" lon="12.8933574"><ele>10.0</ele><time>2026-04-26T09:24:03.731Z</time></trkpt><trkpt lat="43.8952791" lon="12.8934277"><ele>10.0</ele><time>2026-04-26T09:24:04.765Z</time></trkpt><trkpt lat="43.8953257" lon="12.8934962"><ele>10.0</ele><time>2026-04-26T09:24:05.726Z</time></trkpt><trkpt lat="43.8954145" lon="12.8935934"><ele>9.2</ele><time>2026-04-26T09:24:07.722Z</time></trkpt><trkpt lat="43.8954907" lon="12.8936959"><ele>8.4</ele><time>2026-04-26T09:24:09.726Z</time></trkpt><trkpt lat="43.8955659" lon="12.893762"><ele>7.6</ele><time>2026-04-26T09:24:11.72Z</time></trkpt><trkpt lat="43.8956528" lon="12.8938818"><ele>6.8</ele><time>2026-04-26T09:24:13.74Z</time></trkpt><trkpt lat="43.8957385" lon="12.8939926"><ele>6.0</ele><time>2026-04-26T09:24:15.734Z</time></trkpt><trkpt lat="43.895783" lon="12.89406"><ele>6.0</ele><time>2026-04-26T09:24:16.75Z</time></trkpt><trkpt lat="43.895853" lon="12.8941516"><ele>6.0</ele><time>2026-04-26T09:24:18.733Z</time></trkpt><trkpt lat="43.8959374" lon="12.8943198"><ele>6.0</ele><time>2026-04-26T09:24:20.724Z</time></trkpt><trkpt lat="43.8960087" lon="12.8944235"><ele>6.0</ele><time>2026-04-26T09:24:22.725Z</time></trkpt><trkpt lat="43.8960945" lon="12.894522"><ele>6.5</ele><time>2026-04-26T09:24:24.737Z</time></trkpt><trkpt lat="43.8961765" lon="12.8946335"><ele>7.0</ele><time>2026-04-26T09:24:26.724Z</time></trkpt><trkpt lat="43.8962631" lon="12.8947543"><ele>7.5</ele><time>2026-04-26T09:24:28.729Z</time></trkpt><trkpt lat="43.8963437" lon="12.8948708"><ele>8.0</ele><time>2026-04-26T09:24:30.735Z</time></trkpt><trkpt lat="43.8964232" lon="12.8950258"><ele>8.25</ele><time>2026-04-26T09:24:32.737Z</time></trkpt><trkpt lat="43.8964701" lon="12.8951216"><ele>8.5</ele><time>2026-04-26T09:24:34.738Z</time></trkpt><trkpt lat="43.8965291" lon="12.8952389"><ele>8.75</ele><time>2026-04-26T09:24:36.732Z</time></trkpt><trkpt lat="43.8966022" lon="12.8954656"><ele>9.0</ele><time>2026-04-26T09:24:39.725Z</time></trkpt><trkpt lat="43.8966139" lon="12.8956162"><ele>9.0</ele><time>2026-04-26T09:24:41.722Z</time></trkpt><trkpt lat="43.8966237" lon="12.8957026"><ele>9.0</ele><time>2026-04-26T09:24:42.723Z</time></trkpt><trkpt lat="43.8966448" lon="12.8957902"><ele>9.0</ele><time>2026-04-26T09:24:43.732Z</time></trkpt><trkpt lat="43.8967404" lon="12.8958745"><ele>9.0</ele><time>2026-04-26T09:24:45.721Z</time></trkpt><trkpt lat="43.8968335" lon="12.8959193"><ele>9.0</ele><time>2026-04-26T09:24:47.73Z</time></trkpt><trkpt lat="43.8969" lon="12.8959099"><ele>9.0</ele><time>2026-04-26T09:24:48.736Z</time></trkpt><trkpt lat="43.897034" lon="12.8959221"><ele>9.25</ele><time>2026-04-26T09:24:50.725Z</time></trkpt><trkpt lat="43.8971375" lon="12.8960013"><ele>9.5</ele><time>2026-04-26T09:24:52.721Z</time></trkpt><trkpt lat="43.8972242" lon="12.8961018"><ele>9.75</ele><time>2026-04-26T09:24:54.726Z</time></trkpt><trkpt lat="43.8973152" lon="12.8962333"><ele>10.0</ele><time>2026-04-26T09:24:56.73Z</time></trkpt><trkpt lat="43.8974128" lon="12.8963487"><ele>10.0</ele><time>2026-04-26T09:24:58.727Z</time></trkpt><trkpt lat="43.8975035" lon="12.8964406"><ele>10.0</ele><time>2026-04-26T09:25:00.739Z</time></trkpt><trkpt lat="43.8975752" lon="12.896559"><ele>10.0</ele><time>2026-04-26T09:25:02.728Z</time></trkpt><trkpt lat="43.8976493" lon="12.8966618"><ele>10.0</ele><time>2026-04-26T09:25:04.73Z</time></trkpt><trkpt lat="43.8977349" lon="12.896787"><ele>9.8</ele><time>2026-04-26T09:25:06.734Z</time></trkpt><trkpt lat="43.8978216" lon="12.8968972"><ele>9.6</ele><time>2026-04-26T09:25:08.741Z</time></trkpt><trkpt lat="43.8978968" lon="12.8969908"><ele>9.4</ele><time>2026-04-26T09:25:10.724Z</time></trkpt><trkpt lat="43.8979904" lon="12.8971045"><ele>9.2</ele><time>2026-04-26T09:25:12.734Z</time></trkpt><trkpt lat="43.8980722" lon="12.8971877"><ele>9.0</ele><time>2026-04-26T09:25:14.722Z</time></trkpt><trkpt lat="43.8981723" lon="12.8972964"><ele>9.0</ele><time>2026-04-26T09:25:16.731Z</time></trkpt><trkpt lat="43.8982469" lon="12.8974083"><ele>9.0</ele><time>2026-04-26T09:25:18.728Z</time></trkpt><trkpt lat="43.898328" lon="12.897508"><ele>9.0</ele><time>2026-04-26T09:25:20.724Z</time></trkpt><trkpt lat="43.8983699" lon="12.8975812"><ele>9.0</ele><time>2026-04-26T09:25:21.728Z</time></trkpt><trkpt lat="43.8984626" lon="12.8976916"><ele>9.0</ele><time>2026-04-26T09:25:23.73Z</time></trkpt><trkpt lat="43.8985584" lon="12.8978435"><ele>9.2</ele><time>2026-04-26T09:25:25.723Z</time></trkpt><trkpt lat="43.8986417" lon="12.8979491"><ele>9.4</ele><time>2026-04-26T09:25:27.727Z</time></trkpt><trkpt lat="43.8987298" lon="12.8980519"><ele>9.6</ele><time>2026-04-26T09:25:29.728Z</time></trkpt><trkpt lat="43.8988018" lon="12.8981429"><ele>9.8</ele><time>2026-04-26T09:25:31.722Z</time></trkpt><trkpt lat="43.8988675" lon="12.8982392"><ele>10.0</ele><time>2026-04-26T09:25:33.733Z</time></trkpt><trkpt lat="43.8989318" lon="12.8983269"><ele>10.0</ele><time>2026-04-26T09:25:35.731Z</time></trkpt><trkpt lat="43.8990257" lon="12.89841"><ele>10.0</ele><time>2026-04-26T09:25:38.734Z</time></trkpt><trkpt lat="43.8990751" lon="12.8984675"><ele>10.0</ele><time>2026-04-26T09:25:39.726Z</time></trkpt><trkpt lat="43.8991514" lon="12.8985664"><ele>10.0</ele><time>2026-04-26T09:25:41.726Z</time></trkpt><trkpt lat="43.8992128" lon="12.8986671"><ele>10.0</ele><time>2026-04-26T09:25:42.722Z</time></trkpt><trkpt lat="43.8992544" lon="12.89874"><ele>10.0</ele><time>2026-04-26T09:25:43.722Z</time></trkpt><trkpt lat="43.8993435" lon="12.8988439"><ele>10.0</ele><time>2026-04-26T09:25:45.726Z</time></trkpt><trkpt lat="43.8994348" lon="12.898962"><ele>10.0</ele><time>2026-04-26T09:25:47.733Z</time></trkpt><trkpt lat="43.8995164" lon="12.8990982"><ele>10.0</ele><time>2026-04-26T09:25:49.738Z</time></trkpt><trkpt lat="43.8996137" lon="12.8992148"><ele>10.0</ele><time>2026-04-26T09:25:51.722Z</time></trkpt><trkpt lat="43.8996947" lon="12.8993036"><ele>10.0</ele><time>2026-04-26T09:25:53.73Z</time></trkpt><trkpt lat="43.8997703" lon="12.8994391"><ele>10.0</ele><time>2026-04-26T09:25:55.73Z</time></trkpt><trkpt lat="43.8998433" lon="12.8995515"><ele>10.0</ele><time>2026-04-26T09:25:57.731Z</time></trkpt><trkpt lat="43.8999251" lon="12.8996637"><ele>10.0</ele><time>2026-04-26T09:25:59.743Z</time></trkpt><trkpt lat="43.8999683" lon="12.8997378"><ele>10.0</ele><time>2026-04-26T09:26:00.727Z</time></trkpt><trkpt lat="43.9000189" lon="12.8998056"><ele>10.0</ele><time>2026-04-26T09:26:01.722Z</time></trkpt><trkpt lat="43.9000795" lon="12.8999178"><ele>10.0</ele><time>2026-04-26T09:26:03.734Z</time></trkpt><trkpt lat="43.900177" lon="12.9000193"><ele>10.0</ele><time>2026-04-26T09:26:05.729Z</time></trkpt><trkpt lat="43.9002889" lon="12.9001714"><ele>10.0</ele><time>2026-04-26T09:26:07.728Z</time></trkpt><trkpt lat="43.9003696" lon="12.9002899"><ele>10.2</ele><time>2026-04-26T09:26:09.726Z</time></trkpt><trkpt lat="43.9004484" lon="12.9003917"><ele>10.4</ele><time>2026-04-26T09:26:11.721Z</time></trkpt><trkpt lat="43.9005273" lon="12.9004866"><ele>10.600000000000001</ele><time>2026-04-26T09:26:13.742Z</time></trkpt><trkpt lat="43.9006089" lon="12.9005815"><ele>10.8</ele><time>2026-04-26T09:26:15.729Z</time></trkpt><trkpt lat="43.9006885" lon="12.9006586"><ele>11.0</ele><time>2026-04-26T09:26:17.731Z</time></trkpt><trkpt lat="43.9007464" lon="12.9007364"><ele>11.0</ele><time>2026-04-26T09:26:20.728Z</time></trkpt><trkpt lat="43.9007823" lon="12.900815"><ele>11.0</ele><time>2026-04-26T09:26:22.733Z</time></trkpt><trkpt lat="43.9008274" lon="12.900897"><ele>11.0</ele><time>2026-04-26T09:26:24.726Z</time></trkpt><trkpt lat="43.90091" lon="12.9009704"><ele>11.0</ele><time>2026-04-26T09:26:26.731Z</time></trkpt><trkpt lat="43.9010319" lon="12.9010064"><ele>11.0</ele><time>2026-04-26T09:26:28.728Z</time></trkpt><trkpt lat="43.9011216" lon="12.9009359"><ele>10.833333333333332</ele><time>2026-04-26T09:26:30.729Z</time></trkpt><trkpt lat="43.9011585" lon="12.9008265"><ele>10.666666666666666</ele><time>2026-04-26T09:26:32.739Z</time></trkpt><trkpt lat="43.9011581" lon="12.9007292"><ele>10.5</ele><time>2026-04-26T09:26:34.725Z</time></trkpt><trkpt lat="43.9011587" lon="12.9005938"><ele>10.333333333333334</ele><time>2026-04-26T09:26:38.742Z</time></trkpt><trkpt lat="43.9011571" lon="12.900488"><ele>10.166666666666668</ele><time>2026-04-26T09:26:40.724Z</time></trkpt><trkpt lat="43.9011823" lon="12.9003531"><ele>10.0</ele><time>2026-04-26T09:26:42.738Z</time></trkpt><trkpt lat="43.9012201" lon="12.9002524"><ele>10.0</ele><time>2026-04-26T09:26:44.726Z</time></trkpt><trkpt lat="43.9012751" lon="12.9001455"><ele>10.0</ele><time>2026-04-26T09:26:46.723Z</time></trkpt><trkpt lat="43.9013166" lon="12.8999916"><ele>10.0</ele><time>2026-04-26T09:26:47.732Z</time></trkpt><trkpt lat="43.9013815" lon="12.8999095"><ele>10.0</ele><time>2026-04-26T09:26:49.728Z</time></trkpt><trkpt lat="43.9014288" lon="12.899831"><ele>10.0</ele><time>2026-04-26T09:26:52.728Z</time></trkpt><trkpt lat="43.901474" lon="12.8997272"><ele>9.8</ele><time>2026-04-26T09:26:54.728Z</time></trkpt><trkpt lat="43.9015299" lon="12.8996361"><ele>9.6</ele><time>2026-04-26T09:26:57.721Z</time></trkpt><trkpt lat="43.9015999" lon="12.8995347"><ele>9.4</ele><time>2026-04-26T09:26:59.73Z</time></trkpt><trkpt lat="43.9016475" lon="12.8994524"><ele>9.2</ele><time>2026-04-26T09:27:00.737Z</time></trkpt><trkpt lat="43.9017284" lon="12.8993389"><ele>9.0</ele><time>2026-04-26T09:27:02.728Z</time></trkpt><trkpt lat="43.9017822" lon="12.8992243"><ele>9.0</ele><time>2026-04-26T09:27:04.741Z</time></trkpt><trkpt lat="43.9018385" lon="12.8991258"><ele>9.0</ele><time>2026-04-26T09:27:06.741Z</time></trkpt><trkpt lat="43.901887" lon="12.8990557"><ele>9.0</ele><time>2026-04-26T09:27:09.723Z</time></trkpt><trkpt lat="43.9019498" lon="12.8989628"><ele>9.0</ele><time>2026-04-26T09:27:13.731Z</time></trkpt><trkpt lat="43.902011" lon="12.8988497"><ele>9.0</ele><time>2026-04-26T09:27:16.731Z</time></trkpt><trkpt lat="43.9020604" lon="12.8987513"><ele>9.0</ele><time>2026-04-26T09:27:18.72Z</time></trkpt><trkpt lat="43.9021215" lon="12.8986506"><ele>9.0</ele><time>2026-04-26T09:27:20.729Z</time></trkpt><trkpt lat="43.9021715" lon="12.8985637"><ele>9.0</ele><time>2026-04-26T09:27:21.721Z</time></trkpt><trkpt lat="43.902247" lon="12.8984652"><ele>9.0</ele><time>2026-04-26T09:27:23.732Z</time></trkpt><trkpt lat="43.9023167" lon="12.8984099"><ele>9.0</ele><time>2026-04-26T09:27:25.732Z</time></trkpt><trkpt lat="43.9023921" lon="12.8983214"><ele>9.0</ele><time>2026-04-26T09:27:27.732Z</time></trkpt><trkpt lat="43.9024786" lon="12.8981954"><ele>8.25</ele><time>2026-04-26T09:27:29.724Z</time></trkpt><trkpt lat="43.9026508" lon="12.8979705"><ele>7.5</ele><time>2026-04-26T09:27:31.726Z</time></trkpt><trkpt lat="43.9026973" lon="12.8979053"><ele>6.75</ele><time>2026-04-26T09:27:32.735Z</time></trkpt><trkpt lat="43.9027552" lon="12.897812"><ele>6.0</ele><time>2026-04-26T09:27:33.726Z</time></trkpt><trkpt lat="43.9028009" lon="12.8977274"><ele>6.0</ele><time>2026-04-26T09:27:34.719Z</time></trkpt><trkpt lat="43.9028871" lon="12.8976345"><ele>6.0</ele><time>2026-04-26T09:27:35.739Z</time></trkpt><trkpt lat="43.9029449" lon="12.8975516"><ele>6.0</ele><time>2026-04-26T09:27:36.733Z</time></trkpt><trkpt lat="43.9030101" lon="12.8975036"><ele>6.0</ele><time>2026-04-26T09:27:37.726Z</time></trkpt><trkpt lat="43.903072" lon="12.8974126"><ele>6.0</ele><time>2026-04-26T09:27:38.729Z</time></trkpt><trkpt lat="43.9031387" lon="12.8972937"><ele>6.0</ele><time>2026-04-26T09:27:40.726Z</time></trkpt><trkpt lat="43.9031903" lon="12.8972124"><ele>6.0</ele><time>2026-04-26T09:27:41.742Z</time></trkpt><trkpt lat="43.9032521" lon="12.8971698"><ele>6.0</ele><time>2026-04-26T09:27:42.727Z</time></trkpt><trkpt lat="43.9032937" lon="12.8970834"><ele>6.0</ele><time>2026-04-26T09:27:43.72Z</time></trkpt><trkpt lat="43.9033596" lon="12.8969817"><ele>6.0</ele><time>2026-04-26T09:27:45.732Z</time></trkpt><trkpt lat="43.9034116" lon="12.8969088"><ele>6.0</ele><time>2026-04-26T09:27:47.739Z</time></trkpt><trkpt lat="43.9034396" lon="12.8968061"><ele>6.166666666666667</ele><time>2026-04-26T09:27:49.732Z</time></trkpt><trkpt lat="43.903494" lon="12.8967147"><ele>6.333333333333334</ele><time>2026-04-26T09:27:51.742Z</time></trkpt><trkpt lat="43.9035504" lon="12.8966409"><ele>6.5</ele><time>2026-04-26T09:27:54.735Z</time></trkpt><trkpt lat="43.9035983" lon="12.8965657"><ele>6.666666666666667</ele><time>2026-04-26T09:27:56.729Z</time></trkpt><trkpt lat="43.9036539" lon="12.8965011"><ele>6.833333333333334</ele><time>2026-04-26T09:27:58.721Z</time></trkpt><trkpt lat="43.9036834" lon="12.8964159"><ele>7.0</ele><time>2026-04-26T09:28:03.743Z</time></trkpt><trkpt lat="43.9036122" lon="12.8962839"><ele>7.0</ele><time>2026-04-26T09:28:05.733Z</time></trkpt><trkpt lat="43.9035459" lon="12.8961713"><ele>6.999999999999999</ele><time>2026-04-26T09:28:07.728Z</time></trkpt><trkpt lat="43.9034686" lon="12.8960204"><ele>6.999999999999999</ele><time>2026-04-26T09:28:09.737Z</time></trkpt><trkpt lat="43.9033788" lon="12.8959263"><ele>7.0</ele><time>2026-04-26T09:28:11.73Z</time></trkpt><trkpt lat="43.9033108" lon="12.8958426"><ele>7.0</ele><time>2026-04-26T09:28:12.744Z</time></trkpt><trkpt lat="43.9032209" lon="12.8957283"><ele>6.6</ele><time>2026-04-26T09:28:14.734Z</time></trkpt><trkpt lat="43.9031288" lon="12.8956089"><ele>6.199999999999999</ele><time>2026-04-26T09:28:16.732Z</time></trkpt><trkpt lat="43.9030846" lon="12.8955139"><ele>5.8</ele><time>2026-04-26T09:28:17.737Z</time></trkpt><trkpt lat="43.9030039" lon="12.8954497"><ele>5.4</ele><time>2026-04-26T09:28:19.736Z</time></trkpt><trkpt lat="43.9029508" lon="12.8953821"><ele>5.0</ele><time>2026-04-26T09:28:21.725Z</time></trkpt><trkpt lat="43.9029201" lon="12.8952807"><ele>5.0</ele><time>2026-04-26T09:28:23.739Z</time></trkpt><trkpt lat="43.9028795" lon="12.895141"><ele>5.0</ele><time>2026-04-26T09:28:27.729Z</time></trkpt><trkpt lat="43.9027763" lon="12.8949757"><ele>5.0</ele><time>2026-04-26T09:28:28.738Z</time></trkpt><trkpt lat="43.9027429" lon="12.8948924"><ele>5.0</ele><time>2026-04-26T09:28:29.742Z</time></trkpt><trkpt lat="43.9026794" lon="12.8948067"><ele>5.0</ele><time>2026-04-26T09:28:32.729Z</time></trkpt><trkpt lat="43.9025921" lon="12.8947099"><ele>4.8</ele><time>2026-04-26T09:28:34.731Z</time></trkpt><trkpt lat="43.9025328" lon="12.8946473"><ele>4.6</ele><time>2026-04-26T09:28:35.739Z</time></trkpt><trkpt lat="43.9024355" lon="12.8945517"><ele>4.4</ele><time>2026-04-26T09:28:37.74Z</time></trkpt><trkpt lat="43.9023504" lon="12.8944252"><ele>4.2</ele><time>2026-04-26T09:28:39.736Z</time></trkpt><trkpt lat="43.9022755" lon="12.8943313"><ele>4.0</ele><time>2026-04-26T09:28:41.743Z</time></trkpt><trkpt lat="43.902231" lon="12.8942541"><ele>4.0</ele><time>2026-04-26T09:28:43.746Z</time></trkpt><trkpt lat="43.9022" lon="12.8941313"><ele>4.0</ele><time>2026-04-26T09:28:45.735Z</time></trkpt><trkpt lat="43.902197" lon="12.8940188"><ele>4.0</ele><time>2026-04-26T09:28:47.738Z</time></trkpt><trkpt lat="43.9022358" lon="12.8939424"><ele>4.0</ele><time>2026-04-26T09:28:49.719Z</time></trkpt><trkpt lat="43.9023069" lon="12.8937886"><ele>4.0</ele><time>2026-04-26T09:28:50.75Z</time></trkpt><trkpt lat="43.9023546" lon="12.8936912"><ele>4.0</ele><time>2026-04-26T09:28:51.727Z</time></trkpt><trkpt lat="43.9024165" lon="12.8935814"><ele>4.0</ele><time>2026-04-26T09:28:53.739Z</time></trkpt><trkpt lat="43.9024727" lon="12.8935184"><ele>4.0</ele><time>2026-04-26T09:28:54.726Z</time></trkpt><trkpt lat="43.9025417" lon="12.8934036"><ele>4.0</ele><time>2026-04-26T09:28:56.734Z</time></trkpt><trkpt lat="43.9026222" lon="12.8932779"><ele>4.0</ele><time>2026-04-26T09:28:58.729Z</time></trkpt><trkpt lat="43.9027006" lon="12.8932296"><ele>3.8000000000000003</ele><time>2026-04-26T09:28:59.732Z</time></trkpt><trkpt lat="43.9027906" lon="12.8931191"><ele>3.6000000000000005</ele><time>2026-04-26T09:29:01.743Z</time></trkpt><trkpt lat="43.9028619" lon="12.8930217"><ele>3.4</ele><time>2026-04-26T09:29:03.763Z</time></trkpt><trkpt lat="43.9029419" lon="12.8929381"><ele>3.2</ele><time>2026-04-26T09:29:05.745Z</time></trkpt><trkpt lat="43.9029994" lon="12.8928337"><ele>3.0</ele><time>2026-04-26T09:29:06.755Z</time></trkpt><trkpt lat="43.9030452" lon="12.8927541"><ele>3.0</ele><time>2026-04-26T09:29:07.723Z</time></trkpt><trkpt lat="43.9030862" lon="12.8926802"><ele>3.0</ele><time>2026-04-26T09:29:08.73Z</time></trkpt><trkpt lat="43.9031687" lon="12.8925802"><ele>3.0</ele><time>2026-04-26T09:29:09.726Z</time></trkpt><trkpt lat="43.903228" lon="12.8925022"><ele>3.0</ele><time>2026-04-26T09:29:11.73Z</time></trkpt><trkpt lat="43.9032938" lon="12.8923978"><ele>3.0</ele><time>2026-04-26T09:29:13.731Z</time></trkpt><trkpt lat="43.9033825" lon="12.8922427"><ele>3.2</ele><time>2026-04-26T09:29:15.722Z</time></trkpt><trkpt lat="43.9034673" lon="12.8921529"><ele>3.4</ele><time>2026-04-26T09:29:17.736Z</time></trkpt><trkpt lat="43.9035303" lon="12.8921115"><ele>3.6000000000000005</ele><time>2026-04-26T09:29:18.718Z</time></trkpt><trkpt lat="43.9035973" lon="12.8919999"><ele>3.8000000000000003</ele><time>2026-04-26T09:29:20.734Z</time></trkpt><trkpt lat="43.9036659" lon="12.8919288"><ele>4.0</ele><time>2026-04-26T09:29:22.723Z</time></trkpt><trkpt lat="43.9037312" lon="12.8918347"><ele>4.2</ele><time>2026-04-26T09:29:24.747Z</time></trkpt><trkpt lat="43.9038151" lon="12.8917128"><ele>4.4</ele><time>2026-04-26T09:29:26.744Z</time></trkpt><trkpt lat="43.9038724" lon="12.8916165"><ele>4.6</ele><time>2026-04-26T09:29:28.731Z</time></trkpt><trkpt lat="43.9039629" lon="12.891485"><ele>4.8</ele><time>2026-04-26T09:29:31.732Z</time></trkpt><trkpt lat="43.9040082" lon="12.8914136"><ele>5.0</ele><time>2026-04-26T09:29:32.759Z</time></trkpt><trkpt lat="43.9040678" lon="12.8913649"><ele>5.0</ele><time>2026-04-26T09:29:34.724Z</time></trkpt><trkpt lat="43.9041353" lon="12.8913682"><ele>5.0</ele><time>2026-04-26T09:29:36.726Z</time></trkpt><trkpt lat="43.904207" lon="12.8914194"><ele>5.0</ele><time>2026-04-26T09:29:38.732Z</time></trkpt><trkpt lat="43.9042643" lon="12.891479"><ele>5.0</ele><time>2026-04-26T09:29:40.735Z</time></trkpt><trkpt lat="43.9043032" lon="12.8915499"><ele>5.0</ele><time>2026-04-26T09:29:43.722Z</time></trkpt><trkpt lat="43.9043814" lon="12.891607"><ele>5.0</ele><time>2026-04-26T09:29:47.746Z</time></trkpt><trkpt lat="43.904464" lon="12.8916524"><ele>5.333333333333334</ele><time>2026-04-26T09:29:50.736Z</time></trkpt><trkpt lat="43.9045303" lon="12.8917228"><ele>5.666666666666667</ele><time>2026-04-26T09:29:52.734Z</time></trkpt><trkpt lat="43.9045764" lon="12.8917824"><ele>6.0</ele><time>2026-04-26T09:29:54.735Z</time></trkpt><trkpt lat="43.9046215" lon="12.8918604"><ele>6.333333333333334</ele><time>2026-04-26T09:29:56.733Z</time></trkpt><trkpt lat="43.9046529" lon="12.8919686"><ele>6.666666666666667</ele><time>2026-04-26T09:29:57.722Z</time></trkpt><trkpt lat="43.9047228" lon="12.8920268"><ele>7.0</ele><time>2026-04-26T09:29:58.727Z</time></trkpt><trkpt lat="43.9048043" lon="12.8921262"><ele>7.0</ele><time>2026-04-26T09:30:00.733Z</time></trkpt><trkpt lat="43.9048886" lon="12.8922792"><ele>6.999999999999999</ele><time>2026-04-26T09:30:03.717Z</time></trkpt><trkpt lat="43.9049325" lon="12.8923806"><ele>6.999999999999999</ele><time>2026-04-26T09:30:05.729Z</time></trkpt><trkpt lat="43.904971" lon="12.8924916"><ele>7.0</ele><time>2026-04-26T09:30:07.724Z</time></trkpt><trkpt lat="43.9050214" lon="12.8925997"><ele>7.0</ele><time>2026-04-26T09:30:09.732Z</time></trkpt><trkpt lat="43.9050648" lon="12.8926696"><ele>6.8</ele><time>2026-04-26T09:30:10.724Z</time></trkpt><trkpt lat="43.905165" lon="12.892883"><ele>6.6</ele><time>2026-04-26T09:30:12.726Z</time></trkpt><trkpt lat="43.9052203" lon="12.8929355"><ele>6.3999999999999995</ele><time>2026-04-26T09:30:13.718Z</time></trkpt><trkpt lat="43.9052763" lon="12.8930355"><ele>6.199999999999999</ele><time>2026-04-26T09:30:15.727Z</time></trkpt><trkpt lat="43.905313" lon="12.8931114"><ele>6.0</ele><time>2026-04-26T09:30:16.731Z</time></trkpt><trkpt lat="43.9053735" lon="12.8932022"><ele>6.0</ele><time>2026-04-26T09:30:18.731Z</time></trkpt><trkpt lat="43.9054548" lon="12.8932979"><ele>6.0</ele><time>2026-04-26T09:30:20.73Z</time></trkpt><trkpt lat="43.9054999" lon="12.8933609"><ele>6.0</ele><time>2026-04-26T09:30:22.733Z</time></trkpt><trkpt lat="43.9055704" lon="12.8934659"><ele>6.0</ele><time>2026-04-26T09:30:24.734Z</time></trkpt><trkpt lat="43.9056645" lon="12.89366"><ele>6.0</ele><time>2026-04-26T09:30:26.757Z</time></trkpt><trkpt lat="43.9057117" lon="12.8937451"><ele>5.833333333333333</ele><time>2026-04-26T09:30:27.732Z</time></trkpt><trkpt lat="43.9057796" lon="12.893843"><ele>5.666666666666667</ele><time>2026-04-26T09:30:29.729Z</time></trkpt><trkpt lat="43.905826" lon="12.8939145"><ele>5.5</ele><time>2026-04-26T09:30:30.741Z</time></trkpt><trkpt lat="43.9058852" lon="12.8940721"><ele>5.333333333333334</ele><time>2026-04-26T09:30:32.737Z</time></trkpt><trkpt lat="43.9059282" lon="12.8941618"><ele>5.166666666666667</ele><time>2026-04-26T09:30:33.743Z</time></trkpt><trkpt lat="43.9059757" lon="12.8942225"><ele>5.0</ele><time>2026-04-26T09:30:34.741Z</time></trkpt><trkpt lat="43.9060607" lon="12.8943686"><ele>4.8</ele><time>2026-04-26T09:30:36.723Z</time></trkpt><trkpt lat="43.9061744" lon="12.8945449"><ele>4.6</ele><time>2026-04-26T09:30:38.744Z</time></trkpt><trkpt lat="43.90623" lon="12.8946344"><ele>4.4</ele><time>2026-04-26T09:30:39.745Z</time></trkpt><trkpt lat="43.9063111" lon="12.8947567"><ele>4.2</ele><time>2026-04-26T09:30:41.727Z</time></trkpt><trkpt lat="43.9063519" lon="12.8948243"><ele>4.0</ele><time>2026-04-26T09:30:42.734Z</time></trkpt><trkpt lat="43.9064175" lon="12.8948556"><ele>3.9999999999999996</ele><time>2026-04-26T09:30:46.719Z</time></trkpt><trkpt lat="43.9064654" lon="12.894922"><ele>4.0</ele><time>2026-04-26T09:30:49.738Z</time></trkpt><trkpt lat="43.906499" lon="12.8950064"><ele>4.0</ele><time>2026-04-26T09:30:52.736Z</time></trkpt><trkpt lat="43.9065866" lon="12.8951819"><ele>4.0</ele><time>2026-04-26T09:30:53.738Z</time></trkpt><trkpt lat="43.9066248" lon="12.8952738"><ele>3.9999999999999996</ele><time>2026-04-26T09:30:54.735Z</time></trkpt><trkpt lat="43.9066699" lon="12.8953674"><ele>4.0</ele><time>2026-04-26T09:30:55.72Z</time></trkpt><trkpt lat="43.9067073" lon="12.8954466"><ele>4.25</ele><time>2026-04-26T09:30:56.737Z</time></trkpt><trkpt lat="43.9067561" lon="12.8955282"><ele>4.5</ele><time>2026-04-26T09:30:57.741Z</time></trkpt><trkpt lat="43.9068286" lon="12.8956476"><ele>4.75</ele><time>2026-04-26T09:30:59.728Z</time></trkpt><trkpt lat="43.9069186" lon="12.8958202"><ele>5.0</ele><time>2026-04-26T09:31:01.731Z</time></trkpt><trkpt lat="43.9069977" lon="12.8959371"><ele>5.0</ele><time>2026-04-26T09:31:03.732Z</time></trkpt><trkpt lat="43.9070711" lon="12.8960484"><ele>5.0</ele><time>2026-04-26T09:31:05.745Z</time></trkpt><trkpt lat="43.9071279" lon="12.8961593"><ele>5.0</ele><time>2026-04-26T09:31:07.736Z</time></trkpt><trkpt lat="43.9071653" lon="12.896257"><ele>5.0</ele><time>2026-04-26T09:31:09.735Z</time></trkpt><trkpt lat="43.9072226" lon="12.8963911"><ele>5.0</ele><time>2026-04-26T09:31:11.736Z</time></trkpt><trkpt lat="43.9072653" lon="12.8964861"><ele>5.0</ele><time>2026-04-26T09:31:13.728Z</time></trkpt><trkpt lat="43.9073099" lon="12.8966032"><ele>5.0</ele><time>2026-04-26T09:31:15.731Z</time></trkpt><trkpt lat="43.9073461" lon="12.8966806"><ele>5.0</ele><time>2026-04-26T09:31:17.747Z</time></trkpt><trkpt lat="43.907385" lon="12.896787"><ele>5.0</ele><time>2026-04-26T09:31:20.743Z</time></trkpt><trkpt lat="43.9074501" lon="12.8968816"><ele>5.0</ele><time>2026-04-26T09:31:22.735Z</time></trkpt><trkpt lat="43.9075496" lon="12.8969464"><ele>4.833333333333334</ele><time>2026-04-26T09:31:24.746Z</time></trkpt><trkpt lat="43.9076661" lon="12.8970096"><ele>4.666666666666667</ele><time>2026-04-26T09:31:25.727Z</time></trkpt><trkpt lat="43.9077322" lon="12.8970164"><ele>4.5</ele><time>2026-04-26T09:31:26.729Z</time></trkpt><trkpt lat="43.9078452" lon="12.8970712"><ele>4.333333333333333</ele><time>2026-04-26T09:31:29.73Z</time></trkpt><trkpt lat="43.9079032" lon="12.8971135"><ele>4.166666666666666</ele><time>2026-04-26T09:31:30.727Z</time></trkpt><trkpt lat="43.9079718" lon="12.8971241"><ele>4.0</ele><time>2026-04-26T09:31:31.745Z</time></trkpt><trkpt lat="43.9080486" lon="12.8971546"><ele>4.0</ele><time>2026-04-26T09:31:33.734Z</time></trkpt><trkpt lat="43.9081596" lon="12.8971938"><ele>4.0</ele><time>2026-04-26T09:31:35.732Z</time></trkpt><trkpt lat="43.9082311" lon="12.897206"><ele>4.0</ele><time>2026-04-26T09:31:36.762Z</time></trkpt><trkpt lat="43.9083205" lon="12.8972519"><ele>4.0</ele><time>2026-04-26T09:31:38.728Z</time></trkpt><trkpt lat="43.9084258" lon="12.8972704"><ele>4.0</ele><time>2026-04-26T09:31:40.724Z</time></trkpt><trkpt lat="43.9085459" lon="12.8973334"><ele>3.9999999999999996</ele><time>2026-04-26T09:31:42.748Z</time></trkpt><trkpt lat="43.9086448" lon="12.8973935"><ele>4.0</ele><time>2026-04-26T09:31:44.728Z</time></trkpt><trkpt lat="43.9087136" lon="12.8974513"><ele>4.0</ele><time>2026-04-26T09:31:46.728Z</time></trkpt><trkpt lat="43.9087982" lon="12.8975391"><ele>4.0</ele><time>2026-04-26T09:31:50.721Z</time></trkpt><trkpt lat="43.9088516" lon="12.897587"><ele>3.9999999999999996</ele><time>2026-04-26T09:31:53.718Z</time></trkpt><trkpt lat="43.9089162" lon="12.8976444"><ele>4.0</ele><time>2026-04-26T09:31:55.75Z</time></trkpt><trkpt lat="43.9089714" lon="12.8976945"><ele>4.0</ele><time>2026-04-26T09:31:56.725Z</time></trkpt><trkpt lat="43.9090746" lon="12.8977761"><ele>4.0</ele><time>2026-04-26T09:31:58.736Z</time></trkpt><trkpt lat="43.909154" lon="12.8978556"><ele>4.0</ele><time>2026-04-26T09:32:00.744Z</time></trkpt><trkpt lat="43.9092399" lon="12.8979236"><ele>4.0</ele><time>2026-04-26T09:32:02.733Z</time></trkpt><trkpt lat="43.9093287" lon="12.8979973"><ele>4.0</ele><time>2026-04-26T09:32:04.727Z</time></trkpt><trkpt lat="43.9094106" lon="12.8980815"><ele>4.6</ele><time>2026-04-26T09:32:06.729Z</time></trkpt><trkpt lat="43.9094639" lon="12.8981416"><ele>5.2</ele><time>2026-04-26T09:32:08.722Z</time></trkpt><trkpt lat="43.909539" lon="12.8981765"><ele>5.799999999999999</ele><time>2026-04-26T09:32:11.731Z</time></trkpt><trkpt lat="43.9096203" lon="12.8982026"><ele>6.3999999999999995</ele><time>2026-04-26T09:32:14.727Z</time></trkpt><trkpt lat="43.9097351" lon="12.8982533"><ele>7.0</ele><time>2026-04-26T09:32:16.748Z</time></trkpt><trkpt lat="43.9098611" lon="12.8983152"><ele>7.0</ele><time>2026-04-26T09:32:17.739Z</time></trkpt><trkpt lat="43.9099493" lon="12.8983503"><ele>6.999999999999999</ele><time>2026-04-26T09:32:19.73Z</time></trkpt><trkpt lat="43.9100567" lon="12.8983581"><ele>6.999999999999999</ele><time>2026-04-26T09:32:21.727Z</time></trkpt><trkpt lat="43.9101335" lon="12.8983761"><ele>7.0</ele><time>2026-04-26T09:32:22.723Z</time></trkpt><trkpt lat="43.9102358" lon="12.8983714"><ele>7.0</ele><time>2026-04-26T09:32:24.747Z</time></trkpt><trkpt lat="43.9103444" lon="12.898395"><ele>6.6</ele><time>2026-04-26T09:32:26.745Z</time></trkpt><trkpt lat="43.9104182" lon="12.8983764"><ele>6.199999999999999</ele><time>2026-04-26T09:32:28.724Z</time></trkpt><trkpt lat="43.9105772" lon="12.8984045"><ele>5.8</ele><time>2026-04-26T09:32:34.73Z</time></trkpt><trkpt lat="43.9106324" lon="12.8985131"><ele>5.4</ele><time>2026-04-26T09:32:36.743Z</time></trkpt><trkpt lat="43.910673" lon="12.8985917"><ele>5.0</ele><time>2026-04-26T09:32:39.72Z</time></trkpt><trkpt lat="43.9106838" lon="12.89873"><ele>4.8</ele><time>2026-04-26T09:32:42.743Z</time></trkpt><trkpt lat="43.9106857" lon="12.8988494"><ele>4.6</ele><time>2026-04-26T09:32:44.747Z</time></trkpt><trkpt lat="43.9106971" lon="12.8989817"><ele>4.4</ele><time>2026-04-26T09:32:46.736Z</time></trkpt><trkpt lat="43.9106859" lon="12.8991084"><ele>4.2</ele><time>2026-04-26T09:32:48.725Z</time></trkpt><trkpt lat="43.9107211" lon="12.899222"><ele>4.0</ele><time>2026-04-26T09:32:49.722Z</time></trkpt><trkpt lat="43.9107444" lon="12.8993682"><ele>4.6</ele><time>2026-04-26T09:32:50.743Z</time></trkpt><trkpt lat="43.9107671" lon="12.8994598"><ele>5.2</ele><time>2026-04-26T09:32:51.728Z</time></trkpt><trkpt lat="43.9107524" lon="12.8996483"><ele>5.799999999999999</ele><time>2026-04-26T09:32:53.737Z</time></trkpt><trkpt lat="43.9107226" lon="12.8997989"><ele>6.3999999999999995</ele><time>2026-04-26T09:32:55.728Z</time></trkpt><trkpt lat="43.9107329" lon="12.8999114"><ele>7.0</ele><time>2026-04-26T09:32:57.746Z</time></trkpt><trkpt lat="43.910691" lon="12.8999769"><ele>7.199999999999999</ele><time>2026-04-26T09:32:58.727Z</time></trkpt><trkpt lat="43.9106908" lon="12.9000949"><ele>7.3999999999999995</ele><time>2026-04-26T09:33:00.725Z</time></trkpt><trkpt lat="43.9107428" lon="12.900223"><ele>7.6000000000000005</ele><time>2026-04-26T09:33:01.732Z</time></trkpt><trkpt lat="43.9107547" lon="12.9003578"><ele>7.800000000000001</ele><time>2026-04-26T09:33:03.735Z</time></trkpt><trkpt lat="43.9107344" lon="12.9005125"><ele>8.0</ele><time>2026-04-26T09:33:05.732Z</time></trkpt><trkpt lat="43.9107529" lon="12.9006612"><ele>7.999999999999999</ele><time>2026-04-26T09:33:07.726Z</time></trkpt><trkpt lat="43.910761" lon="12.9007715"><ele>8.0</ele><time>2026-04-26T09:33:09.725Z</time></trkpt><trkpt lat="43.9107512" lon="12.900896"><ele>8.0</ele><time>2026-04-26T09:33:11.727Z</time></trkpt><trkpt lat="43.9107435" lon="12.9010354"><ele>8.0</ele><time>2026-04-26T09:33:13.727Z</time></trkpt><trkpt lat="43.9107382" lon="12.9011724"><ele>7.999999999999999</ele><time>2026-04-26T09:33:15.732Z</time></trkpt><trkpt lat="43.9107463" lon="12.9012798"><ele>8.0</ele><time>2026-04-26T09:33:17.724Z</time></trkpt><trkpt lat="43.9107762" lon="12.901521"><ele>7.999999999999999</ele><time>2026-04-26T09:33:19.727Z</time></trkpt><trkpt lat="43.9108156" lon="12.901601"><ele>8.0</ele><time>2026-04-26T09:33:21.728Z</time></trkpt><trkpt lat="43.9108809" lon="12.9016095"><ele>8.0</ele><time>2026-04-26T09:33:22.729Z</time></trkpt><trkpt lat="43.9109757" lon="12.9015662"><ele>8.0</ele><time>2026-04-26T09:33:25.726Z</time></trkpt><trkpt lat="43.9110649" lon="12.9015469"><ele>7.999999999999999</ele><time>2026-04-26T09:33:28.725Z</time></trkpt><trkpt lat="43.9111298" lon="12.9014881"><ele>8.0</ele><time>2026-04-26T09:33:33.724Z</time></trkpt><trkpt lat="43.9113926" lon="12.9015062"><ele>7.6000000000000005</ele><time>2026-04-26T09:33:45.727Z</time></trkpt><trkpt lat="43.9115171" lon="12.9015639"><ele>7.200000000000001</ele><time>2026-04-26T09:33:47.736Z</time></trkpt><trkpt lat="43.9115967" lon="12.9016216"><ele>6.8</ele><time>2026-04-26T09:33:49.729Z</time></trkpt><trkpt lat="43.9116616" lon="12.9016451"><ele>6.4</ele><time>2026-04-26T09:33:50.728Z</time></trkpt><trkpt lat="43.9117803" lon="12.9017048"><ele>6.0</ele><time>2026-04-26T09:33:52.73Z</time></trkpt><trkpt lat="43.9118664" lon="12.9016901"><ele>5.6</ele><time>2026-04-26T09:33:54.726Z</time></trkpt><trkpt lat="43.9119377" lon="12.9017371"><ele>5.199999999999999</ele><time>2026-04-26T09:33:56.723Z</time></trkpt><trkpt lat="43.9119977" lon="12.9017834"><ele>4.800000000000001</ele><time>2026-04-26T09:33:57.728Z</time></trkpt><trkpt lat="43.9121129" lon="12.9018195"><ele>4.4</ele><time>2026-04-26T09:34:00.723Z</time></trkpt><trkpt lat="43.9122026" lon="12.9019074"><ele>4.0</ele><time>2026-04-26T09:34:02.728Z</time></trkpt><trkpt lat="43.9122746" lon="12.9019764"><ele>3.75</ele><time>2026-04-26T09:34:04.72Z</time></trkpt><trkpt lat="43.9124053" lon="12.9021777"><ele>3.5</ele><time>2026-04-26T09:34:06.74Z</time></trkpt><trkpt lat="43.9124599" lon="12.902252"><ele>3.25</ele><time>2026-04-26T09:34:08.72Z</time></trkpt><trkpt lat="43.9125646" lon="12.9023639"><ele>3.0</ele><time>2026-04-26T09:34:10.716Z</time></trkpt><trkpt lat="43.9126328" lon="12.9023891"><ele>3.0</ele><time>2026-04-26T09:34:11.717Z</time></trkpt><trkpt lat="43.9127411" lon="12.9024842"><ele>3.0</ele><time>2026-04-26T09:34:13.718Z</time></trkpt><trkpt lat="43.9128503" lon="12.9025176"><ele>3.0</ele><time>2026-04-26T09:34:15.725Z</time></trkpt><trkpt lat="43.912944" lon="12.9025409"><ele>3.0</ele><time>2026-04-26T09:34:17.727Z</time></trkpt><trkpt lat="43.9130228" lon="12.9025697"><ele>3.0</ele><time>2026-04-26T09:34:18.72Z</time></trkpt><trkpt lat="43.9131311" lon="12.9025805"><ele>3.0</ele><time>2026-04-26T09:34:20.719Z</time></trkpt><trkpt lat="43.913253" lon="12.9025695"><ele>3.0</ele><time>2026-04-26T09:34:22.718Z</time></trkpt><trkpt lat="43.9133581" lon="12.902608"><ele>3.0</ele><time>2026-04-26T09:34:24.721Z</time></trkpt><trkpt lat="43.9134432" lon="12.9026354"><ele>3.0</ele><time>2026-04-26T09:34:26.73Z</time></trkpt><trkpt lat="43.9135294" lon="12.902653"><ele>3.0</ele><time>2026-04-26T09:34:28.718Z</time></trkpt><trkpt lat="43.9136431" lon="12.9026437"><ele>3.0</ele><time>2026-04-26T09:34:30.721Z</time></trkpt><trkpt lat="43.9137828" lon="12.9026621"><ele>3.0</ele><time>2026-04-26T09:34:33.721Z</time></trkpt><trkpt lat="43.9138459" lon="12.9026712"><ele>3.0</ele><time>2026-04-26T09:34:35.722Z</time></trkpt><trkpt lat="43.9139359" lon="12.9026583"><ele>3.0</ele><time>2026-04-26T09:34:37.73Z</time></trkpt><trkpt lat="43.914006" lon="12.9026651"><ele>3.0</ele><time>2026-04-26T09:34:39.718Z</time></trkpt><trkpt lat="43.9140863" lon="12.9026859"><ele>3.0</ele><time>2026-04-26T09:34:41.725Z</time></trkpt><trkpt lat="43.9142024" lon="12.9026914"><ele>2.6</ele><time>2026-04-26T09:34:43.718Z</time></trkpt><trkpt lat="43.9143325" lon="12.9027135"><ele>2.1999999999999997</ele><time>2026-04-26T09:34:45.722Z</time></trkpt><trkpt lat="43.9144004" lon="12.9027303"><ele>1.8</ele><time>2026-04-26T09:34:46.732Z</time></trkpt><trkpt lat="43.9144632" lon="12.902747"><ele>1.4</ele><time>2026-04-26T09:34:47.721Z</time></trkpt><trkpt lat="43.9145732" lon="12.9027538"><ele>1.0</ele><time>2026-04-26T09:34:49.727Z</time></trkpt><trkpt lat="43.9147453" lon="12.90275"><ele>1.0</ele><time>2026-04-26T09:34:53.721Z</time></trkpt><trkpt lat="43.9149283" lon="12.9027609"><ele>1.0</ele><time>2026-04-26T09:34:56.722Z</time></trkpt><trkpt lat="43.9150332" lon="12.9027606"><ele>1.0</ele><time>2026-04-26T09:34:58.723Z</time></trkpt><trkpt lat="43.9151183" lon="12.9027491"><ele>1.0</ele><time>2026-04-26T09:35:00.737Z</time></trkpt><trkpt lat="43.9151994" lon="12.9027333"><ele>1.2000000000000002</ele><time>2026-04-26T09:35:02.719Z</time></trkpt><trkpt lat="43.9152664" lon="12.9027217"><ele>1.4000000000000001</ele><time>2026-04-26T09:35:04.72Z</time></trkpt><trkpt lat="43.9153755" lon="12.9027118"><ele>1.6</ele><time>2026-04-26T09:35:06.723Z</time></trkpt><trkpt lat="43.9154662" lon="12.9027041"><ele>1.8</ele><time>2026-04-26T09:35:08.723Z</time></trkpt><trkpt lat="43.9155637" lon="12.9026733"><ele>2.0</ele><time>2026-04-26T09:35:10.723Z</time></trkpt><trkpt lat="43.9157907" lon="12.9026733"><ele>1.5</ele><time>2026-04-26T09:35:13.727Z</time></trkpt><trkpt lat="43.9159787" lon="12.9026789"><ele>1.0</ele><time>2026-04-26T09:35:18.738Z</time></trkpt><trkpt lat="43.9160422" lon="12.9027265"><ele>0.5</ele><time>2026-04-26T09:35:19.74Z</time></trkpt><trkpt lat="43.9161733" lon="12.9028235"><ele>0.0</ele><time>2026-04-26T09:35:21.748Z</time></trkpt><trkpt lat="43.9162703" lon="12.9028512"><ele>0.0</ele><time>2026-04-26T09:35:23.744Z</time></trkpt><trkpt lat="43.9163608" lon="12.9028809"><ele>0.0</ele><time>2026-04-26T09:35:25.743Z</time></trkpt><trkpt lat="43.9164482" lon="12.9029139"><ele>0.0</ele><time>2026-04-26T09:35:27.734Z</time></trkpt><trkpt lat="43.9165653" lon="12.9029138"><ele>0.0</ele><time>2026-04-26T09:35:29.74Z</time></trkpt><trkpt lat="43.9166871" lon="12.9028972"><ele>0.0</ele><time>2026-04-26T09:35:31.732Z</time></trkpt><trkpt lat="43.9167551" lon="12.9028983"><ele>0.6</ele><time>2026-04-26T09:35:32.736Z</time></trkpt><trkpt lat="43.9168925" lon="12.9029"><ele>1.2</ele><time>2026-04-26T09:35:34.728Z</time></trkpt><trkpt lat="43.916994" lon="12.902902"><ele>1.7999999999999998</ele><time>2026-04-26T09:35:36.741Z</time></trkpt><trkpt lat="43.9171014" lon="12.9029013"><ele>2.4</ele><time>2026-04-26T09:35:38.735Z</time></trkpt><trkpt lat="43.9171948" lon="12.9028906"><ele>3.0</ele><time>2026-04-26T09:35:40.729Z</time></trkpt><trkpt lat="43.9172831" lon="12.9028766"><ele>3.0</ele><time>2026-04-26T09:35:42.727Z</time></trkpt><trkpt lat="43.9173885" lon="12.9028749"><ele>3.0</ele><time>2026-04-26T09:35:44.724Z</time></trkpt><trkpt lat="43.9174641" lon="12.9028674"><ele>3.0</ele><time>2026-04-26T09:35:45.736Z</time></trkpt><trkpt lat="43.9175693" lon="12.9028722"><ele>3.0</ele><time>2026-04-26T09:35:47.722Z</time></trkpt><trkpt lat="43.9176772" lon="12.9028751"><ele>3.0</ele><time>2026-04-26T09:35:49.737Z</time></trkpt><trkpt lat="43.9177833" lon="12.9028641"><ele>2.8333333333333335</ele><time>2026-04-26T09:35:51.726Z</time></trkpt><trkpt lat="43.9178649" lon="12.902836"><ele>2.6666666666666665</ele><time>2026-04-26T09:35:53.732Z</time></trkpt><trkpt lat="43.9179529" lon="12.9028387"><ele>2.5</ele><time>2026-04-26T09:35:54.732Z</time></trkpt><trkpt lat="43.9180279" lon="12.9028307"><ele>2.333333333333333</ele><time>2026-04-26T09:35:56.725Z</time></trkpt><trkpt lat="43.9181334" lon="12.9027991"><ele>2.1666666666666665</ele><time>2026-04-26T09:35:58.738Z</time></trkpt><trkpt lat="43.9182166" lon="12.9027599"><ele>2.0</ele><time>2026-04-26T09:35:59.746Z</time></trkpt><trkpt lat="43.918331" lon="12.9027421"><ele>1.8333333333333333</ele><time>2026-04-26T09:36:01.734Z</time></trkpt><trkpt lat="43.918425" lon="12.9027397"><ele>1.6666666666666665</ele><time>2026-04-26T09:36:03.734Z</time></trkpt><trkpt lat="43.9185105" lon="12.9027332"><ele>1.5</ele><time>2026-04-26T09:36:05.74Z</time></trkpt><trkpt lat="43.9185933" lon="12.9027255"><ele>1.3333333333333333</ele><time>2026-04-26T09:36:06.734Z</time></trkpt><trkpt lat="43.9186624" lon="12.9027203"><ele>1.1666666666666665</ele><time>2026-04-26T09:36:07.724Z</time></trkpt><trkpt lat="43.918741" lon="12.9027081"><ele>1.0</ele><time>2026-04-26T09:36:08.745Z</time></trkpt><trkpt lat="43.91881" lon="12.9027168"><ele>0.9999999999999999</ele><time>2026-04-26T09:36:09.743Z</time></trkpt><trkpt lat="43.9189238" lon="12.9027194"><ele>1.0</ele><time>2026-04-26T09:36:11.735Z</time></trkpt><trkpt lat="43.9189981" lon="12.9027161"><ele>1.0</ele><time>2026-04-26T09:36:12.73Z</time></trkpt><trkpt lat="43.91911" lon="12.9027011"><ele>1.0</ele><time>2026-04-26T09:36:14.721Z</time></trkpt><trkpt lat="43.9191886" lon="12.902678"><ele>0.9999999999999999</ele><time>2026-04-26T09:36:15.745Z</time></trkpt><trkpt lat="43.9192517" lon="12.9026728"><ele>1.0</ele><time>2026-04-26T09:36:16.736Z</time></trkpt><trkpt lat="43.9193646" lon="12.9026436"><ele>1.0</ele><time>2026-04-26T09:36:18.746Z</time></trkpt><trkpt lat="43.9194486" lon="12.902618"><ele>1.0</ele><time>2026-04-26T09:36:20.745Z</time></trkpt><trkpt lat="43.9195337" lon="12.9026044"><ele>1.0</ele><time>2026-04-26T09:36:22.742Z</time></trkpt><trkpt lat="43.9196063" lon="12.9025967"><ele>1.0</ele><time>2026-04-26T09:36:24.724Z</time></trkpt><trkpt lat="43.9197283" lon="12.902579"><ele>1.0</ele><time>2026-04-26T09:36:26.725Z</time></trkpt><trkpt lat="43.9198368" lon="12.9025579"><ele>1.0</ele><time>2026-04-26T09:36:28.732Z</time></trkpt><trkpt lat="43.9199444" lon="12.9025251"><ele>1.0</ele><time>2026-04-26T09:36:30.728Z</time></trkpt><trkpt lat="43.9200601" lon="12.9024894"><ele>1.0</ele><time>2026-04-26T09:36:32.727Z</time></trkpt><trkpt lat="43.9201269" lon="12.9024817"><ele>1.0</ele><time>2026-04-26T09:36:33.723Z</time></trkpt><trkpt lat="43.9202385" lon="12.9024469"><ele>1.0</ele><time>2026-04-26T09:36:35.723Z</time></trkpt><trkpt lat="43.9203585" lon="12.9024218"><ele>0.25</ele><time>2026-04-26T09:36:37.766Z</time></trkpt><trkpt lat="43.9204969" lon="12.9024105"><ele>-0.5</ele><time>2026-04-26T09:36:39.731Z</time></trkpt><trkpt lat="43.920615" lon="12.9023619"><ele>-1.25</ele><time>2026-04-26T09:36:41.726Z</time></trkpt><trkpt lat="43.9207235" lon="12.9023277"><ele>-2.0</ele><time>2026-04-26T09:36:43.736Z</time></trkpt><trkpt lat="43.9208201" lon="12.9022856"><ele>-2.2</ele><time>2026-04-26T09:36:45.745Z</time></trkpt><trkpt lat="43.9209291" lon="12.9022368"><ele>-2.4000000000000004</ele><time>2026-04-26T09:36:47.754Z</time></trkpt><trkpt lat="43.9210312" lon="12.9022025"><ele>-2.5999999999999996</ele><time>2026-04-26T09:36:49.721Z</time></trkpt><trkpt lat="43.9211023" lon="12.9021846"><ele>-2.8</ele><time>2026-04-26T09:36:51.729Z</time></trkpt><trkpt lat="43.9211881" lon="12.9021758"><ele>-3.0</ele><time>2026-04-26T09:36:53.73Z</time></trkpt><trkpt lat="43.9212695" lon="12.902153"><ele>-3.0</ele><time>2026-04-26T09:36:55.743Z</time></trkpt><trkpt lat="43.9213628" lon="12.9021306"><ele>-3.0</ele><time>2026-04-26T09:36:57.727Z</time></trkpt><trkpt lat="43.9214626" lon="12.9020988"><ele>-3.0</ele><time>2026-04-26T09:36:59.716Z</time></trkpt><trkpt lat="43.9215268" lon="12.9020852"><ele>-3.0</ele><time>2026-04-26T09:37:00.727Z</time></trkpt><trkpt lat="43.9215989" lon="12.9020731"><ele>-3.0</ele><time>2026-04-26T09:37:01.724Z</time></trkpt><trkpt lat="43.9217175" lon="12.9020252"><ele>-2.6</ele><time>2026-04-26T09:37:03.724Z</time></trkpt><trkpt lat="43.9218224" lon="12.9019875"><ele>-2.1999999999999997</ele><time>2026-04-26T09:37:05.719Z</time></trkpt><trkpt lat="43.9219276" lon="12.9019527"><ele>-1.8</ele><time>2026-04-26T09:37:07.72Z</time></trkpt><trkpt lat="43.9220015" lon="12.9019246"><ele>-1.4</ele><time>2026-04-26T09:37:08.723Z</time></trkpt><trkpt lat="43.9220789" lon="12.9018737"><ele>-1.0</ele><time>2026-04-26T09:37:10.724Z</time></trkpt><trkpt lat="43.9222052" lon="12.9018395"><ele>-0.9999999999999999</ele><time>2026-04-26T09:37:12.727Z</time></trkpt><trkpt lat="43.9222687" lon="12.901812"><ele>-1.0</ele><time>2026-04-26T09:37:13.73Z</time></trkpt><trkpt lat="43.9223709" lon="12.9017877"><ele>-1.0</ele><time>2026-04-26T09:37:15.721Z</time></trkpt><trkpt lat="43.9224511" lon="12.901732"><ele>-1.0</ele><time>2026-04-26T09:37:17.72Z</time></trkpt><trkpt lat="43.9224991" lon="12.9016509"><ele>-0.9999999999999999</ele><time>2026-04-26T09:37:19.719Z</time></trkpt><trkpt lat="43.9225392" lon="12.9015212"><ele>-1.0</ele><time>2026-04-26T09:37:21.719Z</time></trkpt><trkpt lat="43.9225484" lon="12.9014138"><ele>-0.8333333333333333</ele><time>2026-04-26T09:37:23.718Z</time></trkpt><trkpt lat="43.922551" lon="12.9013"><ele>-0.6666666666666666</ele><time>2026-04-26T09:37:25.728Z</time></trkpt><trkpt lat="43.9225376" lon="12.9012087"><ele>-0.5</ele><time>2026-04-26T09:37:27.722Z</time></trkpt><trkpt lat="43.9225104" lon="12.9011139"><ele>-0.3333333333333333</ele><time>2026-04-26T09:37:29.727Z</time></trkpt><trkpt lat="43.9224796" lon="12.9010031"><ele>-0.16666666666666666</ele><time>2026-04-26T09:37:31.734Z</time></trkpt><trkpt lat="43.9224449" lon="12.9009105"><ele>0.0</ele><time>2026-04-26T09:37:33.718Z</time></trkpt><trkpt lat="43.922411" lon="12.9008004"><ele>0.0</ele><time>2026-04-26T09:37:35.724Z</time></trkpt><trkpt lat="43.9223823" lon="12.9006923"><ele>0.0</ele><time>2026-04-26T09:37:37.72Z</time></trkpt><trkpt lat="43.9223554" lon="12.9005724"><ele>0.0</ele><time>2026-04-26T09:37:40.724Z</time></trkpt><trkpt lat="43.9223209" lon="12.90046"><ele>0.0</ele><time>2026-04-26T09:37:42.719Z</time></trkpt><trkpt lat="43.9222906" lon="12.9003627"><ele>0.0</ele><time>2026-04-26T09:37:44.721Z</time></trkpt><trkpt lat="43.9222754" lon="12.9002603"><ele>0.0</ele><time>2026-04-26T09:37:46.721Z</time></trkpt><trkpt lat="43.9222559" lon="12.9001168"><ele>0.16666666666666666</ele><time>2026-04-26T09:37:48.725Z</time></trkpt><trkpt lat="43.9222255" lon="12.899989"><ele>0.3333333333333333</ele><time>2026-04-26T09:37:50.742Z</time></trkpt><trkpt lat="43.9221925" lon="12.8998559"><ele>0.5</ele><time>2026-04-26T09:37:52.735Z</time></trkpt><trkpt lat="43.9221838" lon="12.8997686"><ele>0.6666666666666666</ele><time>2026-04-26T09:37:53.747Z</time></trkpt><trkpt lat="43.9221549" lon="12.899643"><ele>0.8333333333333333</ele><time>2026-04-26T09:37:55.745Z</time></trkpt><trkpt lat="43.9221294" lon="12.8995345"><ele>1.0</ele><time>2026-04-26T09:37:57.736Z</time></trkpt><trkpt lat="43.9221057" lon="12.8994412"><ele>0.9999999999999999</ele><time>2026-04-26T09:37:59.719Z</time></trkpt><trkpt lat="43.9220742" lon="12.899355"><ele>1.0</ele><time>2026-04-26T09:38:01.74Z</time></trkpt><trkpt lat="43.9220262" lon="12.8992721"><ele>1.0</ele><time>2026-04-26T09:38:03.722Z</time></trkpt><trkpt lat="43.9219697" lon="12.8991816"><ele>1.0</ele><time>2026-04-26T09:38:05.72Z</time></trkpt><trkpt lat="43.921912" lon="12.8990826"><ele>0.9999999999999999</ele><time>2026-04-26T09:38:07.725Z</time></trkpt><trkpt lat="43.921861" lon="12.899002"><ele>1.0</ele><time>2026-04-26T09:38:09.724Z</time></trkpt><trkpt lat="43.9218142" lon="12.8989413"><ele>0.8333333333333333</ele><time>2026-04-26T09:38:11.721Z</time></trkpt><trkpt lat="43.9217636" lon="12.8988865"><ele>0.6666666666666666</ele><time>2026-04-26T09:38:13.753Z</time></trkpt><trkpt lat="43.9216932" lon="12.8988127"><ele>0.5</ele><time>2026-04-26T09:38:15.733Z</time></trkpt><trkpt lat="43.9216381" lon="12.8987601"><ele>0.3333333333333333</ele><time>2026-04-26T09:38:17.739Z</time></trkpt><trkpt lat="43.9215858" lon="12.8986973"><ele>0.16666666666666666</ele><time>2026-04-26T09:38:21.741Z</time></trkpt><trkpt lat="43.9215056" lon="12.8986107"><ele>0.0</ele><time>2026-04-26T09:38:24.725Z</time></trkpt><trkpt lat="43.9214497" lon="12.8985178"><ele>0.4</ele><time>2026-04-26T09:38:26.725Z</time></trkpt><trkpt lat="43.9214056" lon="12.898406"><ele>0.8</ele><time>2026-04-26T09:38:28.725Z</time></trkpt><trkpt lat="43.921348" lon="12.8982649"><ele>1.2000000000000002</ele><time>2026-04-26T09:38:30.72Z</time></trkpt><trkpt lat="43.9212701" lon="12.8981569"><ele>1.6</ele><time>2026-04-26T09:38:32.73Z</time></trkpt><trkpt lat="43.9211946" lon="12.8980973"><ele>2.0</ele><time>2026-04-26T09:38:34.721Z</time></trkpt><trkpt lat="43.9211358" lon="12.8980247"><ele>2.0</ele><time>2026-04-26T09:38:36.731Z</time></trkpt><trkpt lat="43.9210808" lon="12.8979733"><ele>2.0</ele><time>2026-04-26T09:38:38.726Z</time></trkpt><trkpt lat="43.9210215" lon="12.8978889"><ele>2.0</ele><time>2026-04-26T09:38:40.735Z</time></trkpt><trkpt lat="43.9209578" lon="12.8977644"><ele>2.0</ele><time>2026-04-26T09:38:42.749Z</time></trkpt><trkpt lat="43.9209023" lon="12.8976351"><ele>2.0</ele><time>2026-04-26T09:38:44.724Z</time></trkpt><trkpt lat="43.920826" lon="12.8975435"><ele>2.0</ele><time>2026-04-26T09:38:46.747Z</time></trkpt><trkpt lat="43.9207199" lon="12.8973659"><ele>2.0</ele><time>2026-04-26T09:38:48.724Z</time></trkpt><trkpt lat="43.9206739" lon="12.8972767"><ele>2.0</ele><time>2026-04-26T09:38:49.726Z</time></trkpt><trkpt lat="43.9206384" lon="12.8971429"><ele>2.0</ele><time>2026-04-26T09:38:51.729Z</time></trkpt><trkpt lat="43.9206439" lon="12.8970294"><ele>2.0</ele><time>2026-04-26T09:38:53.719Z</time></trkpt><trkpt lat="43.9206628" lon="12.8969023"><ele>2.0</ele><time>2026-04-26T09:38:55.723Z</time></trkpt><trkpt lat="43.9206989" lon="12.8967933"><ele>2.0</ele><time>2026-04-26T09:38:57.748Z</time></trkpt><trkpt lat="43.9207384" lon="12.8966735"><ele>2.0</ele><time>2026-04-26T09:38:59.724Z</time></trkpt><trkpt lat="43.9207902" lon="12.8965509"><ele>2.0</ele><time>2026-04-26T09:39:01.724Z</time></trkpt><trkpt lat="43.9208475" lon="12.8964148"><ele>2.0</ele><time>2026-04-26T09:39:03.75Z</time></trkpt><trkpt lat="43.9209017" lon="12.896304"><ele>1.8333333333333333</ele><time>2026-04-26T09:39:05.744Z</time></trkpt><trkpt lat="43.9209644" lon="12.8961748"><ele>1.6666666666666665</ele><time>2026-04-26T09:39:07.729Z</time></trkpt><trkpt lat="43.9210116" lon="12.8961145"><ele>1.5</ele><time>2026-04-26T09:39:08.718Z</time></trkpt><trkpt lat="43.9210712" lon="12.8960313"><ele>1.3333333333333333</ele><time>2026-04-26T09:39:10.724Z</time></trkpt><trkpt lat="43.9211249" lon="12.8959515"><ele>1.1666666666666665</ele><time>2026-04-26T09:39:13.724Z</time></trkpt><trkpt lat="43.9211989" lon="12.8958434"><ele>1.0</ele><time>2026-04-26T09:39:15.73Z</time></trkpt><trkpt lat="43.9212507" lon="12.8957754"><ele>1.0</ele><time>2026-04-26T09:39:16.73Z</time></trkpt><trkpt lat="43.9213372" lon="12.895668"><ele>1.0</ele><time>2026-04-26T09:39:18.718Z</time></trkpt><trkpt lat="43.921413" lon="12.8955262"><ele>1.0</ele><time>2026-04-26T09:39:20.72Z</time></trkpt><trkpt lat="43.9214961" lon="12.8953952"><ele>1.0</ele><time>2026-04-26T09:39:22.721Z</time></trkpt><trkpt lat="43.9215716" lon="12.8952942"><ele>0.9999999999999999</ele><time>2026-04-26T09:39:24.719Z</time></trkpt><trkpt lat="43.9216301" lon="12.8952007"><ele>1.0</ele><time>2026-04-26T09:39:26.721Z</time></trkpt><trkpt lat="43.921675" lon="12.8951321"><ele>1.0</ele><time>2026-04-26T09:39:28.731Z</time></trkpt><trkpt lat="43.9217388" lon="12.8950471"><ele>1.0</ele><time>2026-04-26T09:39:30.729Z</time></trkpt><trkpt lat="43.9217863" lon="12.8949434"><ele>0.9999999999999999</ele><time>2026-04-26T09:39:33.729Z</time></trkpt><trkpt lat="43.9218391" lon="12.8948439"><ele>1.0</ele><time>2026-04-26T09:39:35.735Z</time></trkpt><trkpt lat="43.9218888" lon="12.8947401"><ele>0.8333333333333333</ele><time>2026-04-26T09:39:36.73Z</time></trkpt><trkpt lat="43.9219483" lon="12.894648"><ele>0.6666666666666666</ele><time>2026-04-26T09:39:38.743Z</time></trkpt><trkpt lat="43.9220009" lon="12.8945766"><ele>0.5</ele><time>2026-04-26T09:39:40.738Z</time></trkpt><trkpt lat="43.9220661" lon="12.8945261"><ele>0.3333333333333333</ele><time>2026-04-26T09:39:43.719Z</time></trkpt><trkpt lat="43.9221128" lon="12.8944615"><ele>0.16666666666666666</ele><time>2026-04-26T09:39:45.718Z</time></trkpt><trkpt lat="43.9221628" lon="12.8943724"><ele>0.0</ele><time>2026-04-26T09:39:47.724Z</time></trkpt><trkpt lat="43.922204" lon="12.8943017"><ele>0.0</ele><time>2026-04-26T09:39:50.738Z</time></trkpt><trkpt lat="43.9222772" lon="12.8942655"><ele>0.0</ele><time>2026-04-26T09:41:32.721Z</time></trkpt><trkpt lat="43.9221885" lon="12.8942935"><ele>0.0</ele><time>2026-04-26T09:41:44.734Z</time></trkpt><trkpt lat="43.9220027" lon="12.8945604"><ele>0.0</ele><time>2026-04-26T09:41:46.744Z</time></trkpt><trkpt lat="43.9220067" lon="12.8946565"><ele>0.0</ele><time>2026-04-26T09:41:47.746Z</time></trkpt><trkpt lat="43.9219237" lon="12.8948044"><ele>0.0</ele><time>2026-04-26T09:41:49.736Z</time></trkpt><trkpt lat="43.921877" lon="12.894962"><ele>0.0</ele><time>2026-04-26T09:41:51.717Z</time></trkpt><trkpt lat="43.9218185" lon="12.895024"><ele>0.0</ele><time>2026-04-26T09:41:52.731Z</time></trkpt><trkpt lat="43.9217535" lon="12.8950862"><ele>0.0</ele><time>2026-04-26T09:41:53.743Z</time></trkpt><trkpt lat="43.9217009" lon="12.8951397"><ele>0.16666666666666666</ele><time>2026-04-26T09:41:54.725Z</time></trkpt><trkpt lat="43.9216127" lon="12.8951898"><ele>0.3333333333333333</ele><time>2026-04-26T09:41:55.719Z</time></trkpt><trkpt lat="43.9215582" lon="12.8953271"><ele>0.5</ele><time>2026-04-26T09:41:57.725Z</time></trkpt><trkpt lat="43.9214962" lon="12.8953722"><ele>0.6666666666666666</ele><time>2026-04-26T09:41:58.745Z</time></trkpt><trkpt lat="43.9214295" lon="12.895438"><ele>0.8333333333333333</ele><time>2026-04-26T09:41:59.728Z</time></trkpt><trkpt lat="43.9213761" lon="12.8955371"><ele>1.0</ele><time>2026-04-26T09:42:02.727Z</time></trkpt><trkpt lat="43.9213354" lon="12.895665"><ele>1.0</ele><time>2026-04-26T09:42:04.72Z</time></trkpt><trkpt lat="43.9212827" lon="12.8957866"><ele>1.0</ele><time>2026-04-26T09:42:06.734Z</time></trkpt><trkpt lat="43.9212581" lon="12.8958981"><ele>1.0</ele><time>2026-04-26T09:42:08.734Z</time></trkpt><trkpt lat="43.9211531" lon="12.8959599"><ele>1.0</ele><time>2026-04-26T09:42:09.732Z</time></trkpt><trkpt lat="43.9210698" lon="12.8960777"><ele>1.0</ele><time>2026-04-26T09:42:11.734Z</time></trkpt><trkpt lat="43.9209815" lon="12.8961898"><ele>1.0</ele><time>2026-04-26T09:42:13.741Z</time></trkpt><trkpt lat="43.920925" lon="12.8963137"><ele>1.0</ele><time>2026-04-26T09:42:15.728Z</time></trkpt><trkpt lat="43.9208729" lon="12.8963684"><ele>1.0</ele><time>2026-04-26T09:42:16.743Z</time></trkpt><trkpt lat="43.9207897" lon="12.8964795"><ele>1.0</ele><time>2026-04-26T09:42:18.733Z</time></trkpt><trkpt lat="43.9207332" lon="12.8965516"><ele>1.0</ele><time>2026-04-26T09:42:19.738Z</time></trkpt><trkpt lat="43.9206385" lon="12.8966493"><ele>1.2000000000000002</ele><time>2026-04-26T09:42:21.732Z</time></trkpt><trkpt lat="43.9205639" lon="12.8967788"><ele>1.4000000000000001</ele><time>2026-04-26T09:42:24.73Z</time></trkpt><trkpt lat="43.9204948" lon="12.8968267"><ele>1.6</ele><time>2026-04-26T09:42:26.736Z</time></trkpt><trkpt lat="43.9204267" lon="12.8968232"><ele>1.8</ele><time>2026-04-26T09:42:30.737Z</time></trkpt><trkpt lat="43.9203568" lon="12.8968651"><ele>2.0</ele><time>2026-04-26T09:42:35.732Z</time></trkpt><trkpt lat="43.9204186" lon="12.8971049"><ele>2.0</ele><time>2026-04-26T09:42:37.723Z</time></trkpt><trkpt lat="43.9204585" lon="12.8971898"><ele>2.0</ele><time>2026-04-26T09:42:38.717Z</time></trkpt><trkpt lat="43.9205033" lon="12.8972548"><ele>2.0</ele><time>2026-04-26T09:42:39.727Z</time></trkpt><trkpt lat="43.9205946" lon="12.8973745"><ele>2.0</ele><time>2026-04-26T09:42:41.722Z</time></trkpt><trkpt lat="43.9206755" lon="12.8975039"><ele>2.0</ele><time>2026-04-26T09:42:43.753Z</time></trkpt><trkpt lat="43.9207252" lon="12.8975974"><ele>2.0</ele><time>2026-04-26T09:42:44.718Z</time></trkpt><trkpt lat="43.9207851" lon="12.8976722"><ele>2.0</ele><time>2026-04-26T09:42:45.729Z</time></trkpt><trkpt lat="43.920882" lon="12.8977752"><ele>2.0</ele><time>2026-04-26T09:42:47.727Z</time></trkpt><trkpt lat="43.9209494" lon="12.8978663"><ele>2.0</ele><time>2026-04-26T09:42:48.716Z</time></trkpt><trkpt lat="43.9210354" lon="12.8979982"><ele>2.0</ele><time>2026-04-26T09:42:49.736Z</time></trkpt><trkpt lat="43.9210945" lon="12.8980743"><ele>2.0</ele><time>2026-04-26T09:42:50.721Z</time></trkpt><trkpt lat="43.9211352" lon="12.8981466"><ele>2.0</ele><time>2026-04-26T09:42:51.715Z</time></trkpt><trkpt lat="43.9211859" lon="12.8982243"><ele>2.0</ele><time>2026-04-26T09:42:52.74Z</time></trkpt><trkpt lat="43.9213127" lon="12.8983739"><ele>2.0</ele><time>2026-04-26T09:42:54.725Z</time></trkpt><trkpt lat="43.92139" lon="12.8984743"><ele>2.0</ele><time>2026-04-26T09:42:56.725Z</time></trkpt><trkpt lat="43.9214618" lon="12.8985734"><ele>1.5</ele><time>2026-04-26T09:42:58.726Z</time></trkpt><trkpt lat="43.9215478" lon="12.8986646"><ele>1.0</ele><time>2026-04-26T09:43:00.739Z</time></trkpt><trkpt lat="43.9216434" lon="12.8987678"><ele>0.5</ele><time>2026-04-26T09:43:02.743Z</time></trkpt><trkpt lat="43.9217237" lon="12.8988693"><ele>0.0</ele><time>2026-04-26T09:43:04.739Z</time></trkpt><trkpt lat="43.9218014" lon="12.8990043"><ele>0.0</ele><time>2026-04-26T09:43:06.732Z</time></trkpt><trkpt lat="43.9218551" lon="12.8990801"><ele>0.0</ele><time>2026-04-26T09:43:08.745Z</time></trkpt><trkpt lat="43.92188" lon="12.8991811"><ele>0.0</ele><time>2026-04-26T09:43:09.725Z</time></trkpt><trkpt lat="43.9219297" lon="12.8992547"><ele>0.0</ele><time>2026-04-26T09:43:10.717Z</time></trkpt><trkpt lat="43.9219996" lon="12.8993227"><ele>0.0</ele><time>2026-04-26T09:43:11.726Z</time></trkpt><trkpt lat="43.9219341" lon="12.8993002"><ele>0.0</ele><time>2026-04-26T09:43:14.734Z</time></trkpt><trkpt lat="43.9218707" lon="12.8992952"><ele>0.0</ele><time>2026-04-26T09:43:15.726Z</time></trkpt><trkpt lat="43.9217988" lon="12.8993135"><ele>1.2</ele><time>2026-04-26T09:43:16.728Z</time></trkpt><trkpt lat="43.9216898" lon="12.8993086"><ele>2.4</ele><time>2026-04-26T09:43:18.733Z</time></trkpt><trkpt lat="43.9215982" lon="12.8992692"><ele>3.5999999999999996</ele><time>2026-04-26T09:43:20.723Z</time></trkpt><trkpt lat="43.9215353" lon="12.8992175"><ele>4.8</ele><time>2026-04-26T09:43:21.72Z</time></trkpt><trkpt lat="43.9214282" lon="12.8991923"><ele>6.0</ele><time>2026-04-26T09:43:23.744Z</time></trkpt><trkpt lat="43.9213626" lon="12.8991921"><ele>6.0</ele><time>2026-04-26T09:43:24.73Z</time></trkpt><trkpt lat="43.9212419" lon="12.8991877"><ele>6.0</ele><time>2026-04-26T09:43:26.74Z</time></trkpt><trkpt lat="43.9211736" lon="12.8991833"><ele>6.0</ele><time>2026-04-26T09:43:27.722Z</time></trkpt><trkpt lat="43.9211082" lon="12.8991626"><ele>6.0</ele><time>2026-04-26T09:43:28.729Z</time></trkpt><trkpt lat="43.9209977" lon="12.8991479"><ele>6.0</ele><time>2026-04-26T09:43:30.722Z</time></trkpt><trkpt lat="43.9209321" lon="12.8991418"><ele>6.0</ele><time>2026-04-26T09:43:31.733Z</time></trkpt><trkpt lat="43.9208652" lon="12.8991372"><ele>6.0</ele><time>2026-04-26T09:43:32.729Z</time></trkpt><trkpt lat="43.9207368" lon="12.8991107"><ele>6.0</ele><time>2026-04-26T09:43:34.724Z</time></trkpt><trkpt lat="43.9206744" lon="12.8990977"><ele>6.0</ele><time>2026-04-26T09:43:35.743Z</time></trkpt><trkpt lat="43.9205706" lon="12.8990583"><ele>6.0</ele><time>2026-04-26T09:43:37.73Z</time></trkpt><trkpt lat="43.9204844" lon="12.8990348"><ele>6.0</ele><time>2026-04-26T09:43:38.743Z</time></trkpt><trkpt lat="43.9204029" lon="12.8990061"><ele>6.0</ele><time>2026-04-26T09:43:40.729Z</time></trkpt><trkpt lat="43.9202866" lon="12.8990766"><ele>6.0</ele><time>2026-04-26T09:43:44.72Z</time></trkpt><trkpt lat="43.9202182" lon="12.8991261"><ele>6.0</ele><time>2026-04-26T09:43:45.716Z</time></trkpt><trkpt lat="43.9201777" lon="12.899198"><ele>6.0</ele><time>2026-04-26T09:43:46.733Z</time></trkpt><trkpt lat="43.9201139" lon="12.8993121"><ele>6.0</ele><time>2026-04-26T09:43:48.724Z</time></trkpt><trkpt lat="43.9201268" lon="12.8994578"><ele>5.666666666666667</ele><time>2026-04-26T09:43:50.723Z</time></trkpt><trkpt lat="43.92005" lon="12.8995189"><ele>5.333333333333333</ele><time>2026-04-26T09:43:53.745Z</time></trkpt><trkpt lat="43.9199752" lon="12.8995488"><ele>5.0</ele><time>2026-04-26T09:43:54.726Z</time></trkpt><trkpt lat="43.919884" lon="12.8994995"><ele>4.666666666666666</ele><time>2026-04-26T09:43:56.723Z</time></trkpt><trkpt lat="43.9198057" lon="12.8994719"><ele>4.333333333333333</ele><time>2026-04-26T09:43:58.724Z</time></trkpt><trkpt lat="43.9197227" lon="12.8994389"><ele>4.0</ele><time>2026-04-26T09:44:00.748Z</time></trkpt><trkpt lat="43.9196385" lon="12.8993547"><ele>4.0</ele><time>2026-04-26T09:44:02.732Z</time></trkpt><trkpt lat="43.9195933" lon="12.8992725"><ele>4.0</ele><time>2026-04-26T09:44:03.732Z</time></trkpt><trkpt lat="43.919526" lon="12.8990982"><ele>4.0</ele><time>2026-04-26T09:44:04.741Z</time></trkpt><trkpt lat="43.9194886" lon="12.8990053"><ele>4.0</ele><time>2026-04-26T09:44:06.729Z</time></trkpt><trkpt lat="43.9191852" lon="12.8992128"><ele>3.9999999999999996</ele><time>2026-04-26T09:44:15.721Z</time></trkpt><trkpt lat="43.9190723" lon="12.8992871"><ele>4.0</ele><time>2026-04-26T09:44:16.73Z</time></trkpt><trkpt lat="43.9190127" lon="12.8993538"><ele>4.0</ele><time>2026-04-26T09:44:17.732Z</time></trkpt><trkpt lat="43.9189633" lon="12.8994501"><ele>4.0</ele><time>2026-04-26T09:44:19.727Z</time></trkpt><trkpt lat="43.918916" lon="12.8995182"><ele>3.9999999999999996</ele><time>2026-04-26T09:44:20.724Z</time></trkpt><trkpt lat="43.9188874" lon="12.8996066"><ele>4.0</ele><time>2026-04-26T09:44:23.741Z</time></trkpt><trkpt lat="43.9188434" lon="12.8997673"><ele>4.0</ele><time>2026-04-26T09:44:25.726Z</time></trkpt><trkpt lat="43.9187765" lon="12.8996926"><ele>4.0</ele><time>2026-04-26T09:44:29.723Z</time></trkpt><trkpt lat="43.9187091" lon="12.8996025"><ele>4.0</ele><time>2026-04-26T09:44:31.729Z</time></trkpt><trkpt lat="43.9186544" lon="12.8994368"><ele>4.0</ele><time>2026-04-26T09:44:32.746Z</time></trkpt><trkpt lat="43.9186186" lon="12.8993501"><ele>4.0</ele><time>2026-04-26T09:44:33.725Z</time></trkpt><trkpt lat="43.9185875" lon="12.8991858"><ele>4.166666666666666</ele><time>2026-04-26T09:44:35.727Z</time></trkpt><trkpt lat="43.9185498" lon="12.8991044"><ele>4.333333333333333</ele><time>2026-04-26T09:44:37.729Z</time></trkpt><trkpt lat="43.9184707" lon="12.8990914"><ele>4.5</ele><time>2026-04-26T09:44:40.72Z</time></trkpt><trkpt lat="43.9183941" lon="12.8991337"><ele>4.666666666666667</ele><time>2026-04-26T09:44:42.73Z</time></trkpt><trkpt lat="43.9183128" lon="12.8991993"><ele>4.833333333333334</ele><time>2026-04-26T09:44:44.731Z</time></trkpt><trkpt lat="43.9182412" lon="12.8992554"><ele>5.0</ele><time>2026-04-26T09:44:46.728Z</time></trkpt><trkpt lat="43.9181827" lon="12.8993304"><ele>5.0</ele><time>2026-04-26T09:44:48.729Z</time></trkpt><trkpt lat="43.918154" lon="12.8994143"><ele>5.0</ele><time>2026-04-26T09:44:52.721Z</time></trkpt><trkpt lat="43.9181007" lon="12.8994738"><ele>5.0</ele><time>2026-04-26T09:44:55.717Z</time></trkpt><trkpt lat="43.9180363" lon="12.8994678"><ele>5.0</ele><time>2026-04-26T09:44:57.726Z</time></trkpt><trkpt lat="43.9179445" lon="12.8994154"><ele>5.0</ele><time>2026-04-26T09:44:59.722Z</time></trkpt><trkpt lat="43.917863" lon="12.8993519"><ele>5.0</ele><time>2026-04-26T09:45:01.726Z</time></trkpt><trkpt lat="43.9177939" lon="12.8993284"><ele>5.0</ele><time>2026-04-26T09:45:04.725Z</time></trkpt><trkpt lat="43.9177306" lon="12.8993293"><ele>5.0</ele><time>2026-04-26T09:45:07.727Z</time></trkpt><trkpt lat="43.9176608" lon="12.8993431"><ele>5.0</ele><time>2026-04-26T09:45:09.722Z</time></trkpt><trkpt lat="43.9175148" lon="12.8994705"><ele>5.0</ele><time>2026-04-26T09:45:11.716Z</time></trkpt><trkpt lat="43.9174776" lon="12.8995939"><ele>5.0</ele><time>2026-04-26T09:45:13.737Z</time></trkpt><trkpt lat="43.9174276" lon="12.8997278"><ele>5.0</ele><time>2026-04-26T09:45:15.717Z</time></trkpt><trkpt lat="43.9173667" lon="12.8998492"><ele>5.0</ele><time>2026-04-26T09:45:17.728Z</time></trkpt><trkpt lat="43.9173201" lon="12.8999748"><ele>5.0</ele><time>2026-04-26T09:45:19.733Z</time></trkpt><trkpt lat="43.9172724" lon="12.9001162"><ele>5.0</ele><time>2026-04-26T09:45:21.726Z</time></trkpt><trkpt lat="43.9172306" lon="12.9002637"><ele>5.0</ele><time>2026-04-26T09:45:23.747Z</time></trkpt><trkpt lat="43.9172044" lon="12.900386"><ele>5.0</ele><time>2026-04-26T09:45:25.72Z</time></trkpt><trkpt lat="43.9171455" lon="12.9005091"><ele>5.0</ele><time>2026-04-26T09:45:28.716Z</time></trkpt><trkpt lat="43.9171017" lon="12.9006019"><ele>5.0</ele><time>2026-04-26T09:45:30.735Z</time></trkpt><trkpt lat="43.9170594" lon="12.9006865"><ele>5.0</ele><time>2026-04-26T09:45:32.735Z</time></trkpt><trkpt lat="43.9170071" lon="12.9007362"><ele>5.0</ele><time>2026-04-26T09:45:38.718Z</time></trkpt><trkpt lat="43.9169355" lon="12.9007461"><ele>5.0</ele><time>2026-04-26T09:45:41.729Z</time></trkpt><trkpt lat="43.916839" lon="12.9007127"><ele>5.0</ele><time>2026-04-26T09:45:43.725Z</time></trkpt><trkpt lat="43.9167413" lon="12.9006593"><ele>5.0</ele><time>2026-04-26T09:45:44.722Z</time></trkpt><trkpt lat="43.9166508" lon="12.9006162"><ele>5.0</ele><time>2026-04-26T09:45:46.718Z</time></trkpt><trkpt lat="43.9165638" lon="12.9005711"><ele>5.0</ele><time>2026-04-26T09:45:49.715Z</time></trkpt><trkpt lat="43.9165261" lon="12.9004857"><ele>5.0</ele><time>2026-04-26T09:45:51.726Z</time></trkpt><trkpt lat="43.9164912" lon="12.9003967"><ele>5.0</ele><time>2026-04-26T09:45:54.727Z</time></trkpt><trkpt lat="43.9164938" lon="12.9002968"><ele>4.8</ele><time>2026-04-26T09:45:56.725Z</time></trkpt><trkpt lat="43.9165364" lon="12.900155"><ele>4.6</ele><time>2026-04-26T09:45:58.718Z</time></trkpt><trkpt lat="43.9165631" lon="12.9000715"><ele>4.4</ele><time>2026-04-26T09:46:00.72Z</time></trkpt><trkpt lat="43.9165927" lon="12.8999309"><ele>4.2</ele><time>2026-04-26T09:46:03.734Z</time></trkpt><trkpt lat="43.9166042" lon="12.899841"><ele>4.0</ele><time>2026-04-26T09:46:04.719Z</time></trkpt><trkpt lat="43.9166139" lon="12.8996892"><ele>4.333333333333333</ele><time>2026-04-26T09:46:06.731Z</time></trkpt><trkpt lat="43.9166176" lon="12.8995316"><ele>4.666666666666666</ele><time>2026-04-26T09:46:08.719Z</time></trkpt><trkpt lat="43.916633" lon="12.8994179"><ele>5.0</ele><time>2026-04-26T09:46:10.726Z</time></trkpt><trkpt lat="43.9166853" lon="12.8993333"><ele>5.333333333333333</ele><time>2026-04-26T09:46:13.722Z</time></trkpt><trkpt lat="43.9166984" lon="12.8992249"><ele>5.666666666666667</ele><time>2026-04-26T09:46:17.716Z</time></trkpt><trkpt lat="43.916769" lon="12.899141"><ele>6.0</ele><time>2026-04-26T09:46:19.723Z</time></trkpt><trkpt lat="43.9168239" lon="12.899079"><ele>6.6</ele><time>2026-04-26T09:46:20.73Z</time></trkpt><trkpt lat="43.9169309" lon="12.8990232"><ele>7.199999999999999</ele><time>2026-04-26T09:46:22.717Z</time></trkpt><trkpt lat="43.917013" lon="12.8989772"><ele>7.800000000000001</ele><time>2026-04-26T09:46:24.72Z</time></trkpt><trkpt lat="43.9171225" lon="12.898929"><ele>8.4</ele><time>2026-04-26T09:46:26.727Z</time></trkpt><trkpt lat="43.9172309" lon="12.8988742"><ele>9.0</ele><time>2026-04-26T09:46:28.725Z</time></trkpt><trkpt lat="43.917331" lon="12.8988316"><ele>9.0</ele><time>2026-04-26T09:46:30.715Z</time></trkpt><trkpt lat="43.917422" lon="12.8987769"><ele>9.0</ele><time>2026-04-26T09:46:32.722Z</time></trkpt><trkpt lat="43.9174817" lon="12.898738"><ele>9.0</ele><time>2026-04-26T09:46:34.716Z</time></trkpt><trkpt lat="43.9175587" lon="12.8986563"><ele>9.0</ele><time>2026-04-26T09:46:36.716Z</time></trkpt><trkpt lat="43.9175711" lon="12.898568"><ele>9.0</ele><time>2026-04-26T09:46:41.718Z</time></trkpt><trkpt lat="43.9175681" lon="12.8986965"><ele>9.0</ele><time>2026-04-26T09:46:45.714Z</time></trkpt><trkpt lat="43.9175629" lon="12.8988582"><ele>9.0</ele><time>2026-04-26T09:46:47.713Z</time></trkpt><trkpt lat="43.9175675" lon="12.8990654"><ele>9.0</ele><time>2026-04-26T09:46:48.716Z</time></trkpt><trkpt lat="43.9175764" lon="12.8991576"><ele>9.0</ele><time>2026-04-26T09:46:49.726Z</time></trkpt><trkpt lat="43.9175759" lon="12.8992843"><ele>9.0</ele><time>2026-04-26T09:46:51.73Z</time></trkpt><trkpt lat="43.9175108" lon="12.8994602"><ele>8.6</ele><time>2026-04-26T09:46:53.723Z</time></trkpt><trkpt lat="43.9174842" lon="12.8995654"><ele>8.2</ele><time>2026-04-26T09:46:54.722Z</time></trkpt><trkpt lat="43.9174269" lon="12.8997168"><ele>7.799999999999999</ele><time>2026-04-26T09:46:56.715Z</time></trkpt><trkpt lat="43.9173645" lon="12.899796"><ele>7.3999999999999995</ele><time>2026-04-26T09:46:57.719Z</time></trkpt><trkpt lat="43.9173632" lon="12.8998937"><ele>7.0</ele><time>2026-04-26T09:46:58.723Z</time></trkpt><trkpt lat="43.9172942" lon="12.9000449"><ele>6.666666666666667</ele><time>2026-04-26T09:47:00.719Z</time></trkpt><trkpt lat="43.9172399" lon="12.900223"><ele>6.333333333333334</ele><time>2026-04-26T09:47:02.714Z</time></trkpt><trkpt lat="43.9172099" lon="12.9003003"><ele>6.0</ele><time>2026-04-26T09:47:03.716Z</time></trkpt><trkpt lat="43.9171493" lon="12.90038"><ele>5.666666666666667</ele><time>2026-04-26T09:47:04.715Z</time></trkpt><trkpt lat="43.9171225" lon="12.9004667"><ele>5.333333333333334</ele><time>2026-04-26T09:47:05.713Z</time></trkpt><trkpt lat="43.9170807" lon="12.9005545"><ele>5.0</ele><time>2026-04-26T09:47:06.721Z</time></trkpt><trkpt lat="43.9170511" lon="12.9006563"><ele>5.0</ele><time>2026-04-26T09:47:07.721Z</time></trkpt><trkpt lat="43.9170181" lon="12.9007414"><ele>5.0</ele><time>2026-04-26T09:47:08.725Z</time></trkpt><trkpt lat="43.9169952" lon="12.9008282"><ele>5.0</ele><time>2026-04-26T09:47:09.722Z</time></trkpt><trkpt lat="43.916951" lon="12.9009128"><ele>5.0</ele><time>2026-04-26T09:47:10.729Z</time></trkpt><trkpt lat="43.9169077" lon="12.9010017"><ele>5.0</ele><time>2026-04-26T09:47:11.718Z</time></trkpt><trkpt lat="43.9168719" lon="12.9010923"><ele>5.0</ele><time>2026-04-26T09:47:12.715Z</time></trkpt><trkpt lat="43.9168245" lon="12.9011705"><ele>5.0</ele><time>2026-04-26T09:47:13.725Z</time></trkpt><trkpt lat="43.9167749" lon="12.9012895"><ele>4.833333333333334</ele><time>2026-04-26T09:47:15.716Z</time></trkpt><trkpt lat="43.9167462" lon="12.9013964"><ele>4.666666666666667</ele><time>2026-04-26T09:47:17.721Z</time></trkpt><trkpt lat="43.9166965" lon="12.9015154"><ele>4.5</ele><time>2026-04-26T09:47:19.733Z</time></trkpt><trkpt lat="43.9166574" lon="12.9016371"><ele>4.333333333333333</ele><time>2026-04-26T09:47:21.719Z</time></trkpt><trkpt lat="43.9166107" lon="12.9016962"><ele>4.166666666666666</ele><time>2026-04-26T09:47:22.726Z</time></trkpt><trkpt lat="43.9165717" lon="12.9017679"><ele>4.0</ele><time>2026-04-26T09:47:24.714Z</time></trkpt><trkpt lat="43.9165845" lon="12.9018714"><ele>3.9999999999999996</ele><time>2026-04-26T09:47:26.717Z</time></trkpt><trkpt lat="43.9165411" lon="12.9019559"><ele>4.0</ele><time>2026-04-26T09:47:28.719Z</time></trkpt><trkpt lat="43.9164976" lon="12.9020515"><ele>4.0</ele><time>2026-04-26T09:47:31.72Z</time></trkpt><trkpt lat="43.9164748" lon="12.9021347"><ele>4.0</ele><time>2026-04-26T09:47:33.714Z</time></trkpt><trkpt lat="43.9164545" lon="12.9022457"><ele>3.9999999999999996</ele><time>2026-04-26T09:47:36.721Z</time></trkpt><trkpt lat="43.9164194" lon="12.9023772"><ele>4.0</ele><time>2026-04-26T09:47:39.713Z</time></trkpt><trkpt lat="43.9163435" lon="12.9024527"><ele>4.0</ele><time>2026-04-26T09:47:41.723Z</time></trkpt><trkpt lat="43.9162871" lon="12.902508"><ele>4.0</ele><time>2026-04-26T09:47:44.722Z</time></trkpt><trkpt lat="43.9162241" lon="12.9025326"><ele>4.0</ele><time>2026-04-26T09:47:47.72Z</time></trkpt><trkpt lat="43.9162035" lon="12.9026576"><ele>4.0</ele><time>2026-04-26T09:47:51.722Z</time></trkpt><trkpt lat="43.9161999" lon="12.9027861"><ele>4.0</ele><time>2026-04-26T09:47:53.731Z</time></trkpt><trkpt lat="43.9162054" lon="12.9029941"><ele>3.333333333333333</ele><time>2026-04-26T09:47:54.72Z</time></trkpt><trkpt lat="43.9161974" lon="12.9030894"><ele>2.6666666666666665</ele><time>2026-04-26T09:47:55.714Z</time></trkpt><trkpt lat="43.9161693" lon="12.9032282"><ele>2.0</ele><time>2026-04-26T09:47:57.718Z</time></trkpt><trkpt lat="43.9161549" lon="12.9033948"><ele>1.3333333333333333</ele><time>2026-04-26T09:47:59.72Z</time></trkpt><trkpt lat="43.9161472" lon="12.9034942"><ele>0.6666666666666666</ele><time>2026-04-26T09:48:00.734Z</time></trkpt><trkpt lat="43.9161396" lon="12.9035966"><ele>0.0</ele><time>2026-04-26T09:48:02.719Z</time></trkpt><trkpt lat="43.9161345" lon="12.9037084"><ele>0.0</ele><time>2026-04-26T09:48:04.722Z</time></trkpt><trkpt lat="43.9161122" lon="12.9037962"><ele>0.0</ele><time>2026-04-26T09:48:05.723Z</time></trkpt><trkpt lat="43.9161039" lon="12.9039001"><ele>0.0</ele><time>2026-04-26T09:48:07.723Z</time></trkpt><trkpt lat="43.9161256" lon="12.9040267"><ele>0.0</ele><time>2026-04-26T09:48:09.745Z</time></trkpt><trkpt lat="43.9161312" lon="12.9041439"><ele>0.0</ele><time>2026-04-26T09:48:12.732Z</time></trkpt><trkpt lat="43.9161068" lon="12.9042373"><ele>0.0</ele><time>2026-04-26T09:48:14.735Z</time></trkpt><trkpt lat="43.9161046" lon="12.9043446"><ele>0.5</ele><time>2026-04-26T09:48:17.745Z</time></trkpt><trkpt lat="43.9161138" lon="12.904441"><ele>1.0</ele><time>2026-04-26T09:48:19.741Z</time></trkpt><trkpt lat="43.916132" lon="12.9045435"><ele>1.5</ele><time>2026-04-26T09:48:21.729Z</time></trkpt><trkpt lat="43.916145" lon="12.9046497"><ele>2.0</ele><time>2026-04-26T09:48:24.739Z</time></trkpt><trkpt lat="43.916193" lon="12.9047436"><ele>2.5</ele><time>2026-04-26T09:48:27.727Z</time></trkpt><trkpt lat="43.9162381" lon="12.9048161"><ele>3.0</ele><time>2026-04-26T09:48:29.743Z</time></trkpt><trkpt lat="43.9162962" lon="12.9048892"><ele>3.0</ele><time>2026-04-26T09:48:31.721Z</time></trkpt><trkpt lat="43.9163639" lon="12.9049988"><ele>3.0</ele><time>2026-04-26T09:48:33.738Z</time></trkpt><trkpt lat="43.916433" lon="12.9051066"><ele>3.0</ele><time>2026-04-26T09:48:35.72Z</time></trkpt><trkpt lat="43.9165105" lon="12.9052242"><ele>3.0</ele><time>2026-04-26T09:48:37.722Z</time></trkpt><trkpt lat="43.9165649" lon="12.9052762"><ele>3.0</ele><time>2026-04-26T09:48:38.746Z</time></trkpt><trkpt lat="43.9166402" lon="12.905415"><ele>3.2</ele><time>2026-04-26T09:48:40.721Z</time></trkpt><trkpt lat="43.9167041" lon="12.9055233"><ele>3.4</ele><time>2026-04-26T09:48:41.728Z</time></trkpt><trkpt lat="43.916775" lon="12.9055952"><ele>3.6000000000000005</ele><time>2026-04-26T09:48:43.721Z</time></trkpt><trkpt lat="43.9168628" lon="12.9056595"><ele>3.8000000000000003</ele><time>2026-04-26T09:48:46.725Z</time></trkpt><trkpt lat="43.9169232" lon="12.9057554"><ele>4.0</ele><time>2026-04-26T09:48:48.73Z</time></trkpt><trkpt lat="43.9169876" lon="12.9058431"><ele>4.0</ele><time>2026-04-26T09:48:49.722Z</time></trkpt><trkpt lat="43.9170206" lon="12.9059193"><ele>3.9999999999999996</ele><time>2026-04-26T09:48:50.724Z</time></trkpt><trkpt lat="43.9170896" lon="12.9059793"><ele>4.0</ele><time>2026-04-26T09:48:54.717Z</time></trkpt><trkpt lat="43.917138" lon="12.9059096"><ele>4.0</ele><time>2026-04-26T09:48:58.732Z</time></trkpt><trkpt lat="43.9172006" lon="12.9058299"><ele>3.9999999999999996</ele><time>2026-04-26T09:49:03.713Z</time></trkpt><trkpt lat="43.9172407" lon="12.9057623"><ele>4.0</ele><time>2026-04-26T09:49:05.713Z</time></trkpt><trkpt lat="43.9172932" lon="12.9056945"><ele>4.0</ele><time>2026-04-26T09:49:08.727Z</time></trkpt><trkpt lat="43.917373" lon="12.9056453"><ele>3.9999999999999996</ele><time>2026-04-26T09:49:11.715Z</time></trkpt><trkpt lat="43.9174464" lon="12.9056426"><ele>4.0</ele><time>2026-04-26T09:49:13.714Z</time></trkpt><trkpt lat="43.9175302" lon="12.9056446"><ele>4.0</ele><time>2026-04-26T09:49:15.727Z</time></trkpt><trkpt lat="43.9175989" lon="12.9056338"><ele>4.0</ele><time>2026-04-26T09:49:20.718Z</time></trkpt><trkpt lat="43.9176694" lon="12.9056372"><ele>3.9999999999999996</ele><time>2026-04-26T09:49:23.711Z</time></trkpt><trkpt lat="43.9177554" lon="12.9056564"><ele>4.0</ele><time>2026-04-26T09:49:25.716Z</time></trkpt><trkpt lat="43.9178337" lon="12.9056733"><ele>3.9999999999999996</ele><time>2026-04-26T09:49:27.721Z</time></trkpt><trkpt lat="43.917898" lon="12.905679"><ele>4.0</ele><time>2026-04-26T09:49:29.721Z</time></trkpt><trkpt lat="43.917962" lon="12.9056652"><ele>4.0</ele><time>2026-04-26T09:49:32.718Z</time></trkpt><trkpt lat="43.9180539" lon="12.9056623"><ele>4.0</ele><time>2026-04-26T09:49:35.723Z</time></trkpt><trkpt lat="43.9181374" lon="12.9056814"><ele>3.9999999999999996</ele><time>2026-04-26T09:49:38.74Z</time></trkpt><trkpt lat="43.9182152" lon="12.9057162"><ele>4.0</ele><time>2026-04-26T09:49:41.725Z</time></trkpt><trkpt lat="43.9182884" lon="12.9057372"><ele>4.0</ele><time>2026-04-26T09:49:43.716Z</time></trkpt><trkpt lat="43.9183424" lon="12.9057916"><ele>3.9999999999999996</ele><time>2026-04-26T09:49:47.725Z</time></trkpt><trkpt lat="43.9183543" lon="12.9059097"><ele>4.0</ele><time>2026-04-26T09:49:50.721Z</time></trkpt><trkpt lat="43.9183634" lon="12.9060087"><ele>4.0</ele><time>2026-04-26T09:49:52.715Z</time></trkpt><trkpt lat="43.918382" lon="12.9060976"><ele>3.9999999999999996</ele><time>2026-04-26T09:49:55.724Z</time></trkpt><trkpt lat="43.918378" lon="12.9062046"><ele>4.0</ele><time>2026-04-26T09:49:59.727Z</time></trkpt><trkpt lat="43.9183436" lon="12.9062847"><ele>4.0</ele><time>2026-04-26T09:50:05.714Z</time></trkpt><trkpt lat="43.9183099" lon="12.9063646"><ele>3.4999999999999996</ele><time>2026-04-26T09:50:08.729Z</time></trkpt><trkpt lat="43.9182556" lon="12.9064421"><ele>3.0</ele><time>2026-04-26T09:50:12.714Z</time></trkpt><trkpt lat="43.9181716" lon="12.9064764"><ele>2.5</ele><time>2026-04-26T09:50:14.732Z</time></trkpt><trkpt lat="43.9181299" lon="12.9065456"><ele>2.0</ele><time>2026-04-26T09:50:16.712Z</time></trkpt><trkpt lat="43.9181347" lon="12.9066592"><ele>1.5</ele><time>2026-04-26T09:50:20.719Z</time></trkpt><trkpt lat="43.9181172" lon="12.9067733"><ele>1.0</ele><time>2026-04-26T09:50:23.72Z</time></trkpt><trkpt lat="43.9180816" lon="12.9068946"><ele>0.9999999999999999</ele><time>2026-04-26T09:50:26.719Z</time></trkpt><trkpt lat="43.9180481" lon="12.9070035"><ele>1.0</ele><time>2026-04-26T09:50:28.73Z</time></trkpt><trkpt lat="43.918022" lon="12.9070838"><ele>1.0</ele><time>2026-04-26T09:50:36.721Z</time></trkpt><trkpt lat="43.9180506" lon="12.9071952"><ele>1.0</ele><time>2026-04-26T09:50:59.713Z</time></trkpt><trkpt lat="43.9180999" lon="12.9073018"><ele>0.9999999999999999</ele><time>2026-04-26T09:51:01.727Z</time></trkpt><trkpt lat="43.9181588" lon="12.9074156"><ele>1.0</ele><time>2026-04-26T09:51:03.713Z</time></trkpt><trkpt lat="43.9182154" lon="12.9075067"><ele>0.9999999999999999</ele><time>2026-04-26T09:51:05.719Z</time></trkpt><trkpt lat="43.9182772" lon="12.9076025"><ele>1.0</ele><time>2026-04-26T09:51:07.719Z</time></trkpt><trkpt lat="43.918333" lon="12.9077137"><ele>1.0</ele><time>2026-04-26T09:51:09.717Z</time></trkpt><trkpt lat="43.9183677" lon="12.9078286"><ele>1.0</ele><time>2026-04-26T09:51:11.715Z</time></trkpt><trkpt lat="43.9184008" lon="12.9079234"><ele>0.9999999999999999</ele><time>2026-04-26T09:51:13.728Z</time></trkpt><trkpt lat="43.9184447" lon="12.9080118"><ele>1.0</ele><time>2026-04-26T09:51:22.742Z</time></trkpt><trkpt lat="43.9184941" lon="12.9080691"><ele>0.9999999999999999</ele><time>2026-04-26T09:51:32.724Z</time></trkpt><trkpt lat="43.9185564" lon="12.9080875"><ele>1.0</ele><time>2026-04-26T09:54:32.751Z</time></trkpt><trkpt lat="43.9186019" lon="12.9081652"><ele>1.0</ele><time>2026-04-26T09:54:34.723Z</time></trkpt><trkpt lat="43.918646" lon="12.9082525"><ele>1.0</ele><time>2026-04-26T09:54:35.727Z</time></trkpt><trkpt lat="43.9186871" lon="12.9083314"><ele>0.9999999999999999</ele><time>2026-04-26T09:54:36.722Z</time></trkpt><trkpt lat="43.9188092" lon="12.908413"><ele>1.0</ele><time>2026-04-26T09:54:37.722Z</time></trkpt><trkpt lat="43.9188587" lon="12.9084797"><ele>1.0</ele><time>2026-04-26T09:54:38.71Z</time></trkpt><trkpt lat="43.9189462" lon="12.9086201"><ele>1.0</ele><time>2026-04-26T09:54:40.711Z</time></trkpt><trkpt lat="43.9190382" lon="12.9087096"><ele>1.0</ele><time>2026-04-26T09:54:42.711Z</time></trkpt><trkpt lat="43.9191188" lon="12.9088358"><ele>1.0</ele><time>2026-04-26T09:54:43.715Z</time></trkpt><trkpt lat="43.9191771" lon="12.9089699"><ele>0.9999999999999999</ele><time>2026-04-26T09:54:49.713Z</time></trkpt><trkpt lat="43.9192231" lon="12.9090511"><ele>1.0</ele><time>2026-04-26T09:54:51.733Z</time></trkpt><trkpt lat="43.9192877" lon="12.9091391"><ele>1.0</ele><time>2026-04-26T09:54:52.73Z</time></trkpt><trkpt lat="43.9193303" lon="12.9092228"><ele>1.0</ele><time>2026-04-26T09:54:54.719Z</time></trkpt><trkpt lat="43.9193947" lon="12.9093176"><ele>0.9999999999999999</ele><time>2026-04-26T09:54:56.738Z</time></trkpt><trkpt lat="43.9194535" lon="12.9093896"><ele>1.0</ele><time>2026-04-26T09:54:58.723Z</time></trkpt><trkpt lat="43.9195015" lon="12.9094586"><ele>0.8571428571428571</ele><time>2026-04-26T09:55:00.724Z</time></trkpt><trkpt lat="43.9195381" lon="12.9095342"><ele>0.7142857142857142</ele><time>2026-04-26T09:55:02.738Z</time></trkpt><trkpt lat="43.9195591" lon="12.9096177"><ele>0.5714285714285714</ele><time>2026-04-26T09:55:05.742Z</time></trkpt><trkpt lat="43.9195688" lon="12.9097042"><ele>0.42857142857142855</ele><time>2026-04-26T09:55:09.719Z</time></trkpt><trkpt lat="43.9195415" lon="12.9097877"><ele>0.2857142857142857</ele><time>2026-04-26T09:55:12.722Z</time></trkpt><trkpt lat="43.9195217" lon="12.9098763"><ele>0.14285714285714285</ele><time>2026-04-26T09:55:14.726Z</time></trkpt><trkpt lat="43.9194986" lon="12.9099851"><ele>0.0</ele><time>2026-04-26T09:55:16.723Z</time></trkpt><trkpt lat="43.9194439" lon="12.9100835"><ele>0.0</ele><time>2026-04-26T09:55:17.731Z</time></trkpt><trkpt lat="43.9193746" lon="12.9101612"><ele>0.0</ele><time>2026-04-26T09:55:19.712Z</time></trkpt><trkpt lat="43.9193003" lon="12.9102128"><ele>0.0</ele><time>2026-04-26T09:55:21.727Z</time></trkpt><trkpt lat="43.9192328" lon="12.9102897"><ele>0.0</ele><time>2026-04-26T09:55:23.716Z</time></trkpt><trkpt lat="43.9191787" lon="12.9103649"><ele>0.0</ele><time>2026-04-26T09:55:25.735Z</time></trkpt><trkpt lat="43.9191356" lon="12.9104402"><ele>0.0</ele><time>2026-04-26T09:55:27.733Z</time></trkpt><trkpt lat="43.9190783" lon="12.9105263"><ele>0.0</ele><time>2026-04-26T09:55:30.713Z</time></trkpt><trkpt lat="43.919024" lon="12.9105849"><ele>0.0</ele><time>2026-04-26T09:55:32.731Z</time></trkpt><trkpt lat="43.9189341" lon="12.910719"><ele>0.0</ele><time>2026-04-26T09:55:34.713Z</time></trkpt><trkpt lat="43.9188395" lon="12.9108205"><ele>0.0</ele><time>2026-04-26T09:55:36.713Z</time></trkpt><trkpt lat="43.9187851" lon="12.910893"><ele>0.0</ele><time>2026-04-26T09:55:37.713Z</time></trkpt><trkpt lat="43.9187135" lon="12.9109952"><ele>0.0</ele><time>2026-04-26T09:55:39.723Z</time></trkpt><trkpt lat="43.9186361" lon="12.9110838"><ele>0.0</ele><time>2026-04-26T09:55:41.72Z</time></trkpt><trkpt lat="43.9186092" lon="12.9111784"><ele>0.0</ele><time>2026-04-26T09:55:43.722Z</time></trkpt><trkpt lat="43.9185867" lon="12.9112687"><ele>0.0</ele><time>2026-04-26T09:55:45.729Z</time></trkpt><trkpt lat="43.9185295" lon="12.9113717"><ele>0.0</ele><time>2026-04-26T09:55:48.716Z</time></trkpt><trkpt lat="43.9184809" lon="12.9114932"><ele>0.0</ele><time>2026-04-26T09:55:51.738Z</time></trkpt><trkpt lat="43.918433" lon="12.9115675"><ele>0.3333333333333333</ele><time>2026-04-26T09:55:53.732Z</time></trkpt><trkpt lat="43.91838" lon="12.911655"><ele>0.6666666666666666</ele><time>2026-04-26T09:55:55.719Z</time></trkpt><trkpt lat="43.9182952" lon="12.9117543"><ele>1.0</ele><time>2026-04-26T09:55:57.727Z</time></trkpt><trkpt lat="43.9182327" lon="12.9118127"><ele>1.3333333333333333</ele><time>2026-04-26T09:55:59.714Z</time></trkpt><trkpt lat="43.9181465" lon="12.9118744"><ele>1.6666666666666665</ele><time>2026-04-26T09:56:02.747Z</time></trkpt><trkpt lat="43.918137" lon="12.9119833"><ele>2.0</ele><time>2026-04-26T09:56:05.746Z</time></trkpt><trkpt lat="43.9181115" lon="12.9120993"><ele>2.0</ele><time>2026-04-26T09:56:08.728Z</time></trkpt><trkpt lat="43.9180722" lon="12.9121778"><ele>2.0</ele><time>2026-04-26T09:56:10.722Z</time></trkpt><trkpt lat="43.9179829" lon="12.9122969"><ele>2.0</ele><time>2026-04-26T09:56:12.727Z</time></trkpt><trkpt lat="43.9178863" lon="12.9123869"><ele>2.0</ele><time>2026-04-26T09:56:13.734Z</time></trkpt><trkpt lat="43.9177961" lon="12.9124362"><ele>2.0</ele><time>2026-04-26T09:56:14.731Z</time></trkpt><trkpt lat="43.9176639" lon="12.9125146"><ele>1.9999999999999998</ele><time>2026-04-26T09:56:15.739Z</time></trkpt><trkpt lat="43.9175876" lon="12.9125876"><ele>2.0</ele><time>2026-04-26T09:56:17.727Z</time></trkpt><trkpt lat="43.9175273" lon="12.9126832"><ele>2.0</ele><time>2026-04-26T09:56:19.727Z</time></trkpt><trkpt lat="43.917508" lon="12.9127815"><ele>2.0</ele><time>2026-04-26T09:56:21.738Z</time></trkpt><trkpt lat="43.9174275" lon="12.912866"><ele>1.9999999999999998</ele><time>2026-04-26T09:56:23.73Z</time></trkpt><trkpt lat="43.9173723" lon="12.9129207"><ele>2.0</ele><time>2026-04-26T09:56:24.71Z</time></trkpt><trkpt lat="43.9173064" lon="12.9129892"><ele>1.6666666666666665</ele><time>2026-04-26T09:56:26.717Z</time></trkpt><trkpt lat="43.9172488" lon="12.9130728"><ele>1.3333333333333333</ele><time>2026-04-26T09:56:28.715Z</time></trkpt><trkpt lat="43.9172368" lon="12.9131755"><ele>1.0</ele><time>2026-04-26T09:56:31.718Z</time></trkpt><trkpt lat="43.9172285" lon="12.9132723"><ele>0.6666666666666666</ele><time>2026-04-26T09:56:34.72Z</time></trkpt><trkpt lat="43.9171586" lon="12.9133767"><ele>0.3333333333333333</ele><time>2026-04-26T09:56:36.736Z</time></trkpt><trkpt lat="43.9170852" lon="12.9134783"><ele>0.0</ele><time>2026-04-26T09:56:38.725Z</time></trkpt><trkpt lat="43.9170278" lon="12.9135561"><ele>0.0</ele><time>2026-04-26T09:56:39.727Z</time></trkpt><trkpt lat="43.9169333" lon="12.9136639"><ele>0.0</ele><time>2026-04-26T09:56:41.72Z</time></trkpt><trkpt lat="43.9168775" lon="12.913715"><ele>0.0</ele><time>2026-04-26T09:56:42.726Z</time></trkpt><trkpt lat="43.9167909" lon="12.9138289"><ele>0.0</ele><time>2026-04-26T09:56:44.717Z</time></trkpt><trkpt lat="43.9167319" lon="12.9139488"><ele>0.0</ele><time>2026-04-26T09:56:46.73Z</time></trkpt><trkpt lat="43.9166735" lon="12.9139886"><ele>0.2</ele><time>2026-04-26T09:56:47.721Z</time></trkpt><trkpt lat="43.9166147" lon="12.9140695"><ele>0.4</ele><time>2026-04-26T09:56:49.719Z</time></trkpt><trkpt lat="43.9165532" lon="12.9141725"><ele>0.6000000000000001</ele><time>2026-04-26T09:56:51.72Z</time></trkpt><trkpt lat="43.9164746" lon="12.9142741"><ele>0.8</ele><time>2026-04-26T09:56:53.721Z</time></trkpt><trkpt lat="43.9163814" lon="12.9143594"><ele>1.0</ele><time>2026-04-26T09:56:55.741Z</time></trkpt><trkpt lat="43.9162794" lon="12.9144208"><ele>0.9999999999999999</ele><time>2026-04-26T09:56:57.725Z</time></trkpt><trkpt lat="43.9162098" lon="12.9145283"><ele>1.0</ele><time>2026-04-26T09:56:59.732Z</time></trkpt><trkpt lat="43.9161309" lon="12.9145634"><ele>1.0</ele><time>2026-04-26T09:57:01.716Z</time></trkpt><trkpt lat="43.9160598" lon="12.9146471"><ele>1.0</ele><time>2026-04-26T09:57:03.722Z</time></trkpt><trkpt lat="43.9160091" lon="12.9147392"><ele>0.9999999999999999</ele><time>2026-04-26T09:57:05.743Z</time></trkpt><trkpt lat="43.9159725" lon="12.9148405"><ele>1.0</ele><time>2026-04-26T09:57:07.716Z</time></trkpt><trkpt lat="43.915945" lon="12.9149408"><ele>1.0</ele><time>2026-04-26T09:57:09.723Z</time></trkpt><trkpt lat="43.9159284" lon="12.9150333"><ele>1.0</ele><time>2026-04-26T09:57:12.722Z</time></trkpt><trkpt lat="43.9158782" lon="12.9151016"><ele>1.0</ele><time>2026-04-26T09:57:14.741Z</time></trkpt><trkpt lat="43.9157942" lon="12.9151929"><ele>1.0</ele><time>2026-04-26T09:57:16.741Z</time></trkpt><trkpt lat="43.9157167" lon="12.9153262"><ele>1.0</ele><time>2026-04-26T09:57:17.718Z</time></trkpt><trkpt lat="43.9156279" lon="12.9153976"><ele>1.0</ele><time>2026-04-26T09:57:19.721Z</time></trkpt><trkpt lat="43.9155593" lon="12.915486"><ele>1.0</ele><time>2026-04-26T09:57:21.722Z</time></trkpt><trkpt lat="43.9154943" lon="12.915581"><ele>1.0</ele><time>2026-04-26T09:57:23.74Z</time></trkpt><trkpt lat="43.9154382" lon="12.9156326"><ele>1.0</ele><time>2026-04-26T09:57:24.717Z</time></trkpt><trkpt lat="43.9153369" lon="12.9157329"><ele>1.0</ele><time>2026-04-26T09:57:26.722Z</time></trkpt><trkpt lat="43.9152589" lon="12.9158083"><ele>1.0</ele><time>2026-04-26T09:57:28.744Z</time></trkpt><trkpt lat="43.91518" lon="12.9158893"><ele>1.0</ele><time>2026-04-26T09:57:30.722Z</time></trkpt><trkpt lat="43.9150931" lon="12.9159594"><ele>1.0</ele><time>2026-04-26T09:57:32.738Z</time></trkpt><trkpt lat="43.9149815" lon="12.9160203"><ele>1.0</ele><time>2026-04-26T09:57:34.726Z</time></trkpt><trkpt lat="43.9149377" lon="12.9160882"><ele>1.0</ele><time>2026-04-26T09:57:35.749Z</time></trkpt><trkpt lat="43.9149348" lon="12.9162059"><ele>2.6</ele><time>2026-04-26T09:57:36.733Z</time></trkpt><trkpt lat="43.9149003" lon="12.9162971"><ele>4.2</ele><time>2026-04-26T09:57:38.731Z</time></trkpt><trkpt lat="43.9148279" lon="12.9164081"><ele>5.800000000000001</ele><time>2026-04-26T09:57:40.735Z</time></trkpt><trkpt lat="43.9148022" lon="12.9165539"><ele>7.4</ele><time>2026-04-26T09:57:42.725Z</time></trkpt><trkpt lat="43.9147427" lon="12.9166514"><ele>9.0</ele><time>2026-04-26T09:57:44.727Z</time></trkpt><trkpt lat="43.914658" lon="12.916703"><ele>8.0</ele><time>2026-04-26T09:57:45.746Z</time></trkpt><trkpt lat="43.9146114" lon="12.9167621"><ele>7.0</ele><time>2026-04-26T09:57:46.726Z</time></trkpt><trkpt lat="43.9145357" lon="12.9168584"><ele>6.0</ele><time>2026-04-26T09:57:48.752Z</time></trkpt><trkpt lat="43.9144701" lon="12.9169078"><ele>5.0</ele><time>2026-04-26T09:57:49.722Z</time></trkpt><trkpt lat="43.9144165" lon="12.9170367"><ele>4.0</ele><time>2026-04-26T09:57:51.725Z</time></trkpt><trkpt lat="43.9143556" lon="12.9171394"><ele>3.0</ele><time>2026-04-26T09:57:53.726Z</time></trkpt><trkpt lat="43.9142583" lon="12.9172317"><ele>3.0</ele><time>2026-04-26T09:57:55.72Z</time></trkpt><trkpt lat="43.9142074" lon="12.9173223"><ele>3.0</ele><time>2026-04-26T09:57:57.725Z</time></trkpt><trkpt lat="43.9142127" lon="12.9174668"><ele>3.0</ele><time>2026-04-26T09:57:58.734Z</time></trkpt><trkpt lat="43.914163" lon="12.9175253"><ele>3.0</ele><time>2026-04-26T09:57:59.726Z</time></trkpt><trkpt lat="43.9140584" lon="12.9175761"><ele>3.0</ele><time>2026-04-26T09:58:01.725Z</time></trkpt><trkpt lat="43.9139582" lon="12.9176438"><ele>3.0</ele><time>2026-04-26T09:58:03.725Z</time></trkpt><trkpt lat="43.913918" lon="12.9177539"><ele>3.0</ele><time>2026-04-26T09:58:05.731Z</time></trkpt><trkpt lat="43.9138614" lon="12.9178337"><ele>3.0</ele><time>2026-04-26T09:58:07.729Z</time></trkpt><trkpt lat="43.9138128" lon="12.9179074"><ele>3.0</ele><time>2026-04-26T09:58:09.726Z</time></trkpt><trkpt lat="43.9137827" lon="12.9179924"><ele>3.0</ele><time>2026-04-26T09:58:12.737Z</time></trkpt><trkpt lat="43.913723" lon="12.9180797"><ele>3.0</ele><time>2026-04-26T09:58:15.742Z</time></trkpt><trkpt lat="43.9136588" lon="12.9181517"><ele>3.0</ele><time>2026-04-26T09:58:18.727Z</time></trkpt><trkpt lat="43.9136081" lon="12.9182109"><ele>3.0</ele><time>2026-04-26T09:58:20.73Z</time></trkpt><trkpt lat="43.9135582" lon="12.9182667"><ele>3.0</ele><time>2026-04-26T09:58:22.726Z</time></trkpt><trkpt lat="43.9134982" lon="12.9183212"><ele>3.0</ele><time>2026-04-26T09:58:24.728Z</time></trkpt><trkpt lat="43.9134205" lon="12.9183863"><ele>3.0</ele><time>2026-04-26T09:58:27.723Z</time></trkpt><trkpt lat="43.9133582" lon="12.918473"><ele>3.0</ele><time>2026-04-26T09:58:30.731Z</time></trkpt><trkpt lat="43.9132913" lon="12.9185828"><ele>3.1666666666666665</ele><time>2026-04-26T09:58:34.74Z</time></trkpt><trkpt lat="43.9132374" lon="12.9186741"><ele>3.333333333333333</ele><time>2026-04-26T09:58:36.731Z</time></trkpt><trkpt lat="43.9131708" lon="12.9187804"><ele>3.5</ele><time>2026-04-26T09:58:38.727Z</time></trkpt><trkpt lat="43.913129" lon="12.9188573"><ele>3.6666666666666665</ele><time>2026-04-26T09:58:39.731Z</time></trkpt><trkpt lat="43.9131088" lon="12.9189417"><ele>3.833333333333333</ele><time>2026-04-26T09:58:40.729Z</time></trkpt><trkpt lat="43.9130497" lon="12.9189921"><ele>4.0</ele><time>2026-04-26T09:58:41.722Z</time></trkpt><trkpt lat="43.9129676" lon="12.9190871"><ele>3.9999999999999996</ele><time>2026-04-26T09:58:43.725Z</time></trkpt><trkpt lat="43.9128983" lon="12.9191828"><ele>4.0</ele><time>2026-04-26T09:58:45.736Z</time></trkpt><trkpt lat="43.9128106" lon="12.9192161"><ele>4.0</ele><time>2026-04-26T09:58:47.714Z</time></trkpt><trkpt lat="43.912737" lon="12.9192757"><ele>4.0</ele><time>2026-04-26T09:58:50.72Z</time></trkpt><trkpt lat="43.9126895" lon="12.9193574"><ele>3.9999999999999996</ele><time>2026-04-26T09:58:53.727Z</time></trkpt><trkpt lat="43.9126337" lon="12.9194386"><ele>4.0</ele><time>2026-04-26T09:58:55.717Z</time></trkpt><trkpt lat="43.9125777" lon="12.9195281"><ele>4.25</ele><time>2026-04-26T09:58:57.711Z</time></trkpt><trkpt lat="43.9124857" lon="12.9197181"><ele>4.5</ele><time>2026-04-26T09:58:59.73Z</time></trkpt><trkpt lat="43.9124743" lon="12.9198341"><ele>4.75</ele><time>2026-04-26T09:59:01.727Z</time></trkpt><trkpt lat="43.9124722" lon="12.9199297"><ele>5.0</ele><time>2026-04-26T09:59:02.731Z</time></trkpt><trkpt lat="43.9123073" lon="12.9199751"><ele>4.4</ele><time>2026-04-26T09:59:04.718Z</time></trkpt><trkpt lat="43.912273" lon="12.9201446"><ele>3.8</ele><time>2026-04-26T09:59:06.717Z</time></trkpt><trkpt lat="43.9122515" lon="12.9202736"><ele>3.2</ele><time>2026-04-26T09:59:08.722Z</time></trkpt><trkpt lat="43.9122257" lon="12.9204059"><ele>2.6</ele><time>2026-04-26T09:59:10.713Z</time></trkpt><trkpt lat="43.9122255" lon="12.9205047"><ele>2.0</ele><time>2026-04-26T09:59:11.71Z</time></trkpt><trkpt lat="43.9121695" lon="12.920619"><ele>2.0</ele><time>2026-04-26T09:59:13.729Z</time></trkpt><trkpt lat="43.9119952" lon="12.9206755"><ele>2.0</ele><time>2026-04-26T09:59:15.716Z</time></trkpt><trkpt lat="43.9119064" lon="12.9206442"><ele>2.0</ele><time>2026-04-26T09:59:17.74Z</time></trkpt><trkpt lat="43.9118345" lon="12.9206537"><ele>2.0</ele><time>2026-04-26T09:59:18.732Z</time></trkpt><trkpt lat="43.9117237" lon="12.9206845"><ele>2.0</ele><time>2026-04-26T09:59:19.722Z</time></trkpt><trkpt lat="43.9116117" lon="12.9207103"><ele>2.0</ele><time>2026-04-26T09:59:20.733Z</time></trkpt><trkpt lat="43.9115222" lon="12.9207656"><ele>2.0</ele><time>2026-04-26T09:59:21.725Z</time></trkpt><trkpt lat="43.9114222" lon="12.9208381"><ele>2.0</ele><time>2026-04-26T09:59:22.713Z</time></trkpt><trkpt lat="43.9113587" lon="12.9208925"><ele>2.0</ele><time>2026-04-26T09:59:23.716Z</time></trkpt><trkpt lat="43.9112968" lon="12.9209861"><ele>2.0</ele><time>2026-04-26T09:59:26.724Z</time></trkpt><trkpt lat="43.9112532" lon="12.9210983"><ele>2.0</ele><time>2026-04-26T09:59:27.73Z</time></trkpt><trkpt lat="43.9112115" lon="12.9212434"><ele>2.0</ele><time>2026-04-26T09:59:29.747Z</time></trkpt><trkpt lat="43.9111694" lon="12.9213512"><ele>2.0</ele><time>2026-04-26T09:59:31.719Z</time></trkpt><trkpt lat="43.9111284" lon="12.9214179"><ele>2.0</ele><time>2026-04-26T09:59:32.723Z</time></trkpt><trkpt lat="43.9110525" lon="12.9215197"><ele>1.9999999999999998</ele><time>2026-04-26T09:59:34.723Z</time></trkpt><trkpt lat="43.9110051" lon="12.9215994"><ele>2.0</ele><time>2026-04-26T09:59:35.736Z</time></trkpt><trkpt lat="43.9109128" lon="12.9217094"><ele>2.0</ele><time>2026-04-26T09:59:37.727Z</time></trkpt><trkpt lat="43.910865" lon="12.9217775"><ele>2.0</ele><time>2026-04-26T09:59:39.743Z</time></trkpt><trkpt lat="43.9108119" lon="12.9218277"><ele>1.9999999999999998</ele><time>2026-04-26T09:59:40.734Z</time></trkpt><trkpt lat="43.9107631" lon="12.921942"><ele>2.0</ele><time>2026-04-26T09:59:42.743Z</time></trkpt><trkpt lat="43.9107562" lon="12.9220553"><ele>2.1666666666666665</ele><time>2026-04-26T09:59:43.721Z</time></trkpt><trkpt lat="43.910689" lon="12.9221327"><ele>2.333333333333333</ele><time>2026-04-26T09:59:45.722Z</time></trkpt><trkpt lat="43.9105784" lon="12.9222035"><ele>2.5</ele><time>2026-04-26T09:59:47.715Z</time></trkpt><trkpt lat="43.9105542" lon="12.9223274"><ele>2.6666666666666665</ele><time>2026-04-26T09:59:49.716Z</time></trkpt><trkpt lat="43.910487" lon="12.9223426"><ele>2.8333333333333335</ele><time>2026-04-26T09:59:50.726Z</time></trkpt><trkpt lat="43.9104651" lon="12.9224463"><ele>3.0</ele><time>2026-04-26T09:59:52.748Z</time></trkpt><trkpt lat="43.910433" lon="12.9225895"><ele>3.0</ele><time>2026-04-26T09:59:54.71Z</time></trkpt><trkpt lat="43.9103838" lon="12.9226834"><ele>3.0</ele><time>2026-04-26T09:59:56.718Z</time></trkpt><trkpt lat="43.910309" lon="12.9227744"><ele>3.0</ele><time>2026-04-26T09:59:58.719Z</time></trkpt><trkpt lat="43.9102539" lon="12.9229211"><ele>3.0</ele><time>2026-04-26T10:00:01.718Z</time></trkpt><trkpt lat="43.9101829" lon="12.9230043"><ele>3.0</ele><time>2026-04-26T10:00:03.723Z</time></trkpt><trkpt lat="43.9101187" lon="12.9231173"><ele>3.2</ele><time>2026-04-26T10:00:05.715Z</time></trkpt><trkpt lat="43.9100517" lon="12.9231673"><ele>3.4</ele><time>2026-04-26T10:00:06.732Z</time></trkpt><trkpt lat="43.9099913" lon="12.9232581"><ele>3.6000000000000005</ele><time>2026-04-26T10:00:08.74Z</time></trkpt><trkpt lat="43.9099058" lon="12.9233171"><ele>3.8000000000000003</ele><time>2026-04-26T10:00:09.727Z</time></trkpt><trkpt lat="43.9098242" lon="12.9233392"><ele>4.0</ele><time>2026-04-26T10:00:11.732Z</time></trkpt><trkpt lat="43.9097433" lon="12.9234593"><ele>3.333333333333333</ele><time>2026-04-26T10:00:13.722Z</time></trkpt><trkpt lat="43.9097441" lon="12.923548"><ele>2.6666666666666665</ele><time>2026-04-26T10:00:14.726Z</time></trkpt><trkpt lat="43.9096814" lon="12.9236936"><ele>2.0</ele><time>2026-04-26T10:00:16.717Z</time></trkpt><trkpt lat="43.9096361" lon="12.9237747"><ele>1.3333333333333333</ele><time>2026-04-26T10:00:17.749Z</time></trkpt><trkpt lat="43.9095614" lon="12.923808"><ele>0.6666666666666666</ele><time>2026-04-26T10:00:18.73Z</time></trkpt><trkpt lat="43.9094933" lon="12.923925"><ele>0.0</ele><time>2026-04-26T10:00:20.725Z</time></trkpt><trkpt lat="43.9094751" lon="12.9240184"><ele>0.0</ele><time>2026-04-26T10:00:21.723Z</time></trkpt><trkpt lat="43.9093012" lon="12.9242164"><ele>0.0</ele><time>2026-04-26T10:00:23.722Z</time></trkpt><trkpt lat="43.9092339" lon="12.924291"><ele>0.0</ele><time>2026-04-26T10:00:24.722Z</time></trkpt><trkpt lat="43.9092133" lon="12.9244117"><ele>0.0</ele><time>2026-04-26T10:00:27.724Z</time></trkpt><trkpt lat="43.9091338" lon="12.9245005"><ele>2.5</ele><time>2026-04-26T10:00:29.721Z</time></trkpt><trkpt lat="43.9090454" lon="12.9245822"><ele>5.0</ele><time>2026-04-26T10:00:31.732Z</time></trkpt><trkpt lat="43.9089107" lon="12.9246688"><ele>7.5</ele><time>2026-04-26T10:00:33.721Z</time></trkpt><trkpt lat="43.9088295" lon="12.9248407"><ele>10.0</ele><time>2026-04-26T10:00:36.746Z</time></trkpt><trkpt lat="43.9087849" lon="12.924904"><ele>8.25</ele><time>2026-04-26T10:00:38.715Z</time></trkpt><trkpt lat="43.9086114" lon="12.925091"><ele>6.5</ele><time>2026-04-26T10:00:43.73Z</time></trkpt><trkpt lat="43.9085368" lon="12.9251416"><ele>4.75</ele><time>2026-04-26T10:00:45.727Z</time></trkpt><trkpt lat="43.9084782" lon="12.925196"><ele>3.0</ele><time>2026-04-26T10:00:50.712Z</time></trkpt><trkpt lat="43.9083972" lon="12.9251102"><ele>3.0</ele><time>2026-04-26T10:00:52.737Z</time></trkpt><trkpt lat="43.9082905" lon="12.9250512"><ele>3.0</ele><time>2026-04-26T10:00:53.724Z</time></trkpt><trkpt lat="43.9081852" lon="12.9249824"><ele>3.0</ele><time>2026-04-26T10:00:55.72Z</time></trkpt><trkpt lat="43.9081315" lon="12.9249353"><ele>3.0</ele><time>2026-04-26T10:00:56.745Z</time></trkpt><trkpt lat="43.9080738" lon="12.9247996"><ele>3.0</ele><time>2026-04-26T10:00:57.725Z</time></trkpt><trkpt lat="43.9080258" lon="12.9247096"><ele>3.0</ele><time>2026-04-26T10:00:58.739Z</time></trkpt><trkpt lat="43.9079797" lon="12.924642"><ele>3.0</ele><time>2026-04-26T10:00:59.73Z</time></trkpt><trkpt lat="43.9079258" lon="12.9245786"><ele>3.0</ele><time>2026-04-26T10:01:00.742Z</time></trkpt><trkpt lat="43.9078728" lon="12.9245152"><ele>3.0</ele><time>2026-04-26T10:01:01.712Z</time></trkpt><trkpt lat="43.9077992" lon="12.9244"><ele>3.0</ele><time>2026-04-26T10:01:02.716Z</time></trkpt><trkpt lat="43.907753" lon="12.9243373"><ele>3.0</ele><time>2026-04-26T10:01:03.714Z</time></trkpt><trkpt lat="43.9076879" lon="12.9242344"><ele>2.8</ele><time>2026-04-26T10:01:04.726Z</time></trkpt><trkpt lat="43.9076404" lon="12.9241542"><ele>2.5999999999999996</ele><time>2026-04-26T10:01:05.73Z</time></trkpt><trkpt lat="43.9076009" lon="12.924078"><ele>2.4000000000000004</ele><time>2026-04-26T10:01:06.722Z</time></trkpt><trkpt lat="43.9075066" lon="12.9239886"><ele>2.2</ele><time>2026-04-26T10:01:08.734Z</time></trkpt><trkpt lat="43.9074856" lon="12.9239055"><ele>2.0</ele><time>2026-04-26T10:01:11.722Z</time></trkpt><trkpt lat="43.9073332" lon="12.9238031"><ele>1.9999999999999998</ele><time>2026-04-26T10:01:13.724Z</time></trkpt><trkpt lat="43.9072768" lon="12.9237406"><ele>2.0</ele><time>2026-04-26T10:01:14.713Z</time></trkpt><trkpt lat="43.9072014" lon="12.9236426"><ele>2.0</ele><time>2026-04-26T10:01:16.73Z</time></trkpt><trkpt lat="43.9071545" lon="12.9235742"><ele>2.0</ele><time>2026-04-26T10:01:17.74Z</time></trkpt><trkpt lat="43.9070989" lon="12.9235081"><ele>1.9999999999999998</ele><time>2026-04-26T10:01:19.732Z</time></trkpt><trkpt lat="43.9070981" lon="12.9234108"><ele>2.0</ele><time>2026-04-26T10:01:20.723Z</time></trkpt><trkpt lat="43.9071095" lon="12.9232812"><ele>2.333333333333333</ele><time>2026-04-26T10:01:23.725Z</time></trkpt><trkpt lat="43.9071374" lon="12.9231789"><ele>2.6666666666666665</ele><time>2026-04-26T10:01:25.724Z</time></trkpt><trkpt lat="43.9071676" lon="12.9230692"><ele>3.0</ele><time>2026-04-26T10:01:26.736Z</time></trkpt><trkpt lat="43.9071361" lon="12.922959"><ele>3.333333333333333</ele><time>2026-04-26T10:01:29.726Z</time></trkpt><trkpt lat="43.9071375" lon="12.9228463"><ele>3.6666666666666665</ele><time>2026-04-26T10:01:31.718Z</time></trkpt><trkpt lat="43.907075" lon="12.9227681"><ele>4.0</ele><time>2026-04-26T10:01:33.727Z</time></trkpt><trkpt lat="43.9069673" lon="12.9226733"><ele>4.333333333333333</ele><time>2026-04-26T10:01:35.723Z</time></trkpt><trkpt lat="43.9068989" lon="12.9225324"><ele>4.666666666666666</ele><time>2026-04-26T10:01:37.737Z</time></trkpt><trkpt lat="43.9068638" lon="12.922454"><ele>5.0</ele><time>2026-04-26T10:01:38.735Z</time></trkpt><trkpt lat="43.906844" lon="12.9223467"><ele>5.333333333333333</ele><time>2026-04-26T10:01:39.752Z</time></trkpt><trkpt lat="43.9068192" lon="12.9222513"><ele>5.666666666666667</ele><time>2026-04-26T10:01:40.741Z</time></trkpt><trkpt lat="43.9068183" lon="12.9221428"><ele>6.0</ele><time>2026-04-26T10:01:41.719Z</time></trkpt><trkpt lat="43.9067941" lon="12.922045"><ele>6.0</ele><time>2026-04-26T10:01:42.741Z</time></trkpt><trkpt lat="43.9067806" lon="12.9219568"><ele>6.0</ele><time>2026-04-26T10:01:43.72Z</time></trkpt><trkpt lat="43.9067432" lon="12.9218173"><ele>6.0</ele><time>2026-04-26T10:01:45.725Z</time></trkpt><trkpt lat="43.906709" lon="12.9216638"><ele>6.0</ele><time>2026-04-26T10:01:47.745Z</time></trkpt><trkpt lat="43.9066757" lon="12.9215349"><ele>6.0</ele><time>2026-04-26T10:01:49.729Z</time></trkpt><trkpt lat="43.9066611" lon="12.9214112"><ele>6.166666666666667</ele><time>2026-04-26T10:01:50.725Z</time></trkpt><trkpt lat="43.9066371" lon="12.92126"><ele>6.333333333333334</ele><time>2026-04-26T10:01:52.724Z</time></trkpt><trkpt lat="43.9066129" lon="12.9211757"><ele>6.5</ele><time>2026-04-26T10:01:53.723Z</time></trkpt><trkpt lat="43.9065996" lon="12.9210789"><ele>6.666666666666667</ele><time>2026-04-26T10:01:54.745Z</time></trkpt><trkpt lat="43.9065746" lon="12.9209979"><ele>6.833333333333334</ele><time>2026-04-26T10:01:55.726Z</time></trkpt><trkpt lat="43.9065319" lon="12.9208528"><ele>7.0</ele><time>2026-04-26T10:01:57.722Z</time></trkpt><trkpt lat="43.9064916" lon="12.9207046"><ele>7.0</ele><time>2026-04-26T10:01:59.714Z</time></trkpt><trkpt lat="43.9064453" lon="12.9205771"><ele>6.999999999999999</ele><time>2026-04-26T10:02:01.733Z</time></trkpt><trkpt lat="43.9064143" lon="12.9204434"><ele>6.999999999999999</ele><time>2026-04-26T10:02:03.723Z</time></trkpt><trkpt lat="43.9063815" lon="12.9202978"><ele>7.0</ele><time>2026-04-26T10:02:05.734Z</time></trkpt><trkpt lat="43.9063345" lon="12.920146"><ele>7.0</ele><time>2026-04-26T10:02:07.763Z</time></trkpt><trkpt lat="43.9062824" lon="12.9200056"><ele>7.0</ele><time>2026-04-26T10:02:09.71Z</time></trkpt><trkpt lat="43.9062506" lon="12.9198691"><ele>6.999999999999999</ele><time>2026-04-26T10:02:11.723Z</time></trkpt><trkpt lat="43.9062009" lon="12.9197218"><ele>6.999999999999999</ele><time>2026-04-26T10:02:13.726Z</time></trkpt><trkpt lat="43.9061579" lon="12.919588"><ele>7.0</ele><time>2026-04-26T10:02:15.745Z</time></trkpt><trkpt lat="43.9061099" lon="12.9194435"><ele>7.0</ele><time>2026-04-26T10:02:17.727Z</time></trkpt><trkpt lat="43.9060706" lon="12.9193527"><ele>7.0</ele><time>2026-04-26T10:02:19.712Z</time></trkpt><trkpt lat="43.9060318" lon="12.9191974"><ele>6.999999999999999</ele><time>2026-04-26T10:02:21.729Z</time></trkpt><trkpt lat="43.906008" lon="12.9191106"><ele>6.999999999999999</ele><time>2026-04-26T10:02:22.728Z</time></trkpt><trkpt lat="43.9059643" lon="12.9189504"><ele>7.0</ele><time>2026-04-26T10:02:24.731Z</time></trkpt><trkpt lat="43.9059166" lon="12.9188003"><ele>7.0</ele><time>2026-04-26T10:02:26.727Z</time></trkpt><trkpt lat="43.905872" lon="12.9186448"><ele>6.833333333333334</ele><time>2026-04-26T10:02:28.731Z</time></trkpt><trkpt lat="43.9058248" lon="12.9185135"><ele>6.666666666666667</ele><time>2026-04-26T10:02:30.755Z</time></trkpt><trkpt lat="43.905779" lon="12.9183863"><ele>6.5</ele><time>2026-04-26T10:02:32.729Z</time></trkpt><trkpt lat="43.905756" lon="12.9183027"><ele>6.333333333333334</ele><time>2026-04-26T10:02:33.716Z</time></trkpt><trkpt lat="43.9057103" lon="12.9181816"><ele>6.166666666666667</ele><time>2026-04-26T10:02:34.731Z</time></trkpt><trkpt lat="43.9056887" lon="12.9180926"><ele>6.0</ele><time>2026-04-26T10:02:35.725Z</time></trkpt><trkpt lat="43.9056371" lon="12.9179605"><ele>6.0</ele><time>2026-04-26T10:02:37.722Z</time></trkpt><trkpt lat="43.9055947" lon="12.917804"><ele>6.0</ele><time>2026-04-26T10:02:39.72Z</time></trkpt><trkpt lat="43.905572" lon="12.9177158"><ele>6.0</ele><time>2026-04-26T10:02:40.725Z</time></trkpt><trkpt lat="43.9055483" lon="12.917634"><ele>6.0</ele><time>2026-04-26T10:02:41.729Z</time></trkpt><trkpt lat="43.905525" lon="12.9175451"><ele>6.0</ele><time>2026-04-26T10:02:42.742Z</time></trkpt><trkpt lat="43.9054846" lon="12.9173952"><ele>6.0</ele><time>2026-04-26T10:02:44.728Z</time></trkpt><trkpt lat="43.9054474" lon="12.9172652"><ele>6.199999999999999</ele><time>2026-04-26T10:02:46.724Z</time></trkpt><trkpt lat="43.9054034" lon="12.917135"><ele>6.3999999999999995</ele><time>2026-04-26T10:02:48.721Z</time></trkpt><trkpt lat="43.9053593" lon="12.9169801"><ele>6.6</ele><time>2026-04-26T10:02:50.712Z</time></trkpt><trkpt lat="43.9053337" lon="12.9168947"><ele>6.8</ele><time>2026-04-26T10:02:51.725Z</time></trkpt><trkpt lat="43.9052921" lon="12.9167237"><ele>7.0</ele><time>2026-04-26T10:02:53.723Z</time></trkpt><trkpt lat="43.9052454" lon="12.9166049"><ele>6.5</ele><time>2026-04-26T10:02:55.72Z</time></trkpt><trkpt lat="43.9051908" lon="12.916446"><ele>6.0</ele><time>2026-04-26T10:02:57.713Z</time></trkpt><trkpt lat="43.9051486" lon="12.9162833"><ele>5.5</ele><time>2026-04-26T10:02:59.708Z</time></trkpt><trkpt lat="43.9051058" lon="12.9161327"><ele>5.0</ele><time>2026-04-26T10:03:01.721Z</time></trkpt><trkpt lat="43.905046" lon="12.9159259"><ele>5.333333333333334</ele><time>2026-04-26T10:03:03.721Z</time></trkpt><trkpt lat="43.9050187" lon="12.9158127"><ele>5.666666666666667</ele><time>2026-04-26T10:03:05.723Z</time></trkpt><trkpt lat="43.9049717" lon="12.9156781"><ele>6.0</ele><time>2026-04-26T10:03:07.725Z</time></trkpt><trkpt lat="43.9049348" lon="12.915543"><ele>6.333333333333334</ele><time>2026-04-26T10:03:09.709Z</time></trkpt><trkpt lat="43.9049124" lon="12.915452"><ele>6.666666666666667</ele><time>2026-04-26T10:03:10.721Z</time></trkpt><trkpt lat="43.9048906" lon="12.9153683"><ele>7.0</ele><time>2026-04-26T10:03:11.72Z</time></trkpt><trkpt lat="43.9048662" lon="12.9152752"><ele>7.0</ele><time>2026-04-26T10:03:12.721Z</time></trkpt><trkpt lat="43.9048334" lon="12.9151356"><ele>6.999999999999999</ele><time>2026-04-26T10:03:14.727Z</time></trkpt><trkpt lat="43.9047978" lon="12.9149951"><ele>6.999999999999999</ele><time>2026-04-26T10:03:16.712Z</time></trkpt><trkpt lat="43.9047802" lon="12.9148627"><ele>7.0</ele><time>2026-04-26T10:03:18.725Z</time></trkpt><trkpt lat="43.9047846" lon="12.91473"><ele>7.0</ele><time>2026-04-26T10:03:20.716Z</time></trkpt><trkpt lat="43.9048228" lon="12.9146274"><ele>7.199999999999999</ele><time>2026-04-26T10:03:22.724Z</time></trkpt><trkpt lat="43.9048646" lon="12.9145318"><ele>7.3999999999999995</ele><time>2026-04-26T10:03:24.725Z</time></trkpt><trkpt lat="43.9049447" lon="12.9144222"><ele>7.6000000000000005</ele><time>2026-04-26T10:03:26.72Z</time></trkpt><trkpt lat="43.9050108" lon="12.9143571"><ele>7.800000000000001</ele><time>2026-04-26T10:03:27.723Z</time></trkpt><trkpt lat="43.9050996" lon="12.9142316"><ele>8.0</ele><time>2026-04-26T10:03:29.718Z</time></trkpt><trkpt lat="43.9051845" lon="12.9141348"><ele>7.999999999999999</ele><time>2026-04-26T10:03:31.714Z</time></trkpt><trkpt lat="43.9052339" lon="12.9140757"><ele>8.0</ele><time>2026-04-26T10:03:32.711Z</time></trkpt><trkpt lat="43.9053138" lon="12.9140571"><ele>8.0</ele><time>2026-04-26T10:03:34.725Z</time></trkpt><trkpt lat="43.9053775" lon="12.9140406"><ele>8.0</ele><time>2026-04-26T10:03:36.715Z</time></trkpt><trkpt lat="43.9054516" lon="12.9139861"><ele>7.999999999999999</ele><time>2026-04-26T10:03:38.717Z</time></trkpt><trkpt lat="43.9055117" lon="12.9138842"><ele>8.0</ele><time>2026-04-26T10:03:40.72Z</time></trkpt><trkpt lat="43.9055798" lon="12.9138595"><ele>7.999999999999999</ele><time>2026-04-26T10:03:42.714Z</time></trkpt><trkpt lat="43.9056566" lon="12.9138186"><ele>8.0</ele><time>2026-04-26T10:03:44.715Z</time></trkpt><trkpt lat="43.9057289" lon="12.9137893"><ele>8.0</ele><time>2026-04-26T10:03:46.712Z</time></trkpt><trkpt lat="43.9057928" lon="12.9136966"><ele>8.0</ele><time>2026-04-26T10:03:48.71Z</time></trkpt><trkpt lat="43.9058504" lon="12.9135971"><ele>7.999999999999999</ele><time>2026-04-26T10:03:50.718Z</time></trkpt><trkpt lat="43.9058788" lon="12.9134759"><ele>8.0</ele><time>2026-04-26T10:03:52.722Z</time></trkpt><trkpt lat="43.9058999" lon="12.913353"><ele>8.600000000000001</ele><time>2026-04-26T10:03:54.717Z</time></trkpt><trkpt lat="43.9059623" lon="12.9132377"><ele>9.200000000000001</ele><time>2026-04-26T10:03:56.717Z</time></trkpt><trkpt lat="43.9060257" lon="12.9131407"><ele>9.8</ele><time>2026-04-26T10:03:58.708Z</time></trkpt><trkpt lat="43.9060709" lon="12.913076"><ele>10.4</ele><time>2026-04-26T10:03:59.712Z</time></trkpt><trkpt lat="43.9061546" lon="12.912976"><ele>11.0</ele><time>2026-04-26T10:04:01.707Z</time></trkpt><trkpt lat="43.906218" lon="12.9128359"><ele>11.0</ele><time>2026-04-26T10:04:03.714Z</time></trkpt><trkpt lat="43.9063043" lon="12.9127583"><ele>11.0</ele><time>2026-04-26T10:04:05.722Z</time></trkpt><trkpt lat="43.9063864" lon="12.9126676"><ele>11.0</ele><time>2026-04-26T10:04:07.711Z</time></trkpt><trkpt lat="43.9064522" lon="12.912554"><ele>11.0</ele><time>2026-04-26T10:04:09.714Z</time></trkpt><trkpt lat="43.9064825" lon="12.9124697"><ele>11.0</ele><time>2026-04-26T10:04:11.714Z</time></trkpt><trkpt lat="43.9065422" lon="12.9123897"><ele>10.8</ele><time>2026-04-26T10:04:13.71Z</time></trkpt><trkpt lat="43.9065948" lon="12.912316"><ele>10.600000000000001</ele><time>2026-04-26T10:04:15.712Z</time></trkpt><trkpt lat="43.906637" lon="12.9122053"><ele>10.4</ele><time>2026-04-26T10:04:17.723Z</time></trkpt><trkpt lat="43.9066985" lon="12.9120159"><ele>10.2</ele><time>2026-04-26T10:04:19.709Z</time></trkpt><trkpt lat="43.906709" lon="12.9119037"><ele>10.0</ele><time>2026-04-26T10:04:20.709Z</time></trkpt><trkpt lat="43.9067255" lon="12.911773"><ele>10.2</ele><time>2026-04-26T10:04:22.724Z</time></trkpt><trkpt lat="43.9067422" lon="12.9116103"><ele>10.4</ele><time>2026-04-26T10:04:24.72Z</time></trkpt><trkpt lat="43.9067611" lon="12.9115125"><ele>10.600000000000001</ele><time>2026-04-26T10:04:26.716Z</time></trkpt><trkpt lat="43.9067875" lon="12.9113751"><ele>10.8</ele><time>2026-04-26T10:04:28.707Z</time></trkpt><trkpt lat="43.9068425" lon="12.9111983"><ele>11.0</ele><time>2026-04-26T10:04:30.716Z</time></trkpt><trkpt lat="43.906876" lon="12.9111185"><ele>11.333333333333332</ele><time>2026-04-26T10:04:32.722Z</time></trkpt><trkpt lat="43.9068829" lon="12.9109791"><ele>11.666666666666666</ele><time>2026-04-26T10:04:34.72Z</time></trkpt><trkpt lat="43.9068773" lon="12.9108677"><ele>12.0</ele><time>2026-04-26T10:04:35.711Z</time></trkpt><trkpt lat="43.9069" lon="12.9107839"><ele>12.333333333333332</ele><time>2026-04-26T10:04:37.713Z</time></trkpt><trkpt lat="43.9069464" lon="12.910646"><ele>12.666666666666666</ele><time>2026-04-26T10:04:38.719Z</time></trkpt><trkpt lat="43.9069579" lon="12.9105565"><ele>13.0</ele><time>2026-04-26T10:04:39.712Z</time></trkpt><trkpt lat="43.9069261" lon="12.9103306"><ele>13.333333333333332</ele><time>2026-04-26T10:04:44.714Z</time></trkpt><trkpt lat="43.9069227" lon="12.9102172"><ele>13.666666666666666</ele><time>2026-04-26T10:04:46.715Z</time></trkpt><trkpt lat="43.9069255" lon="12.9101103"><ele>14.0</ele><time>2026-04-26T10:04:49.709Z</time></trkpt><trkpt lat="43.9069073" lon="12.9100168"><ele>14.333333333333332</ele><time>2026-04-26T10:04:53.714Z</time></trkpt><trkpt lat="43.9069249" lon="12.9098779"><ele>14.666666666666666</ele><time>2026-04-26T10:04:56.723Z</time></trkpt><trkpt lat="43.9069557" lon="12.9097799"><ele>15.0</ele><time>2026-04-26T10:04:58.709Z</time></trkpt><trkpt lat="43.9069899" lon="12.9097038"><ele>15.0</ele><time>2026-04-26T10:05:02.712Z</time></trkpt><trkpt lat="43.9069281" lon="12.9096599"><ele>15.0</ele><time>2026-04-26T10:05:08.72Z</time></trkpt><trkpt lat="43.9068615" lon="12.9096348"><ele>15.0</ele><time>2026-04-26T10:05:11.721Z</time></trkpt><trkpt lat="43.9067667" lon="12.9095934"><ele>15.0</ele><time>2026-04-26T10:05:13.709Z</time></trkpt><trkpt lat="43.9066988" lon="12.9095929"><ele>15.0</ele><time>2026-04-26T10:05:16.713Z</time></trkpt><trkpt lat="43.9066067" lon="12.9095494"><ele>15.0</ele><time>2026-04-26T10:05:19.71Z</time></trkpt><trkpt lat="43.9065108" lon="12.9095181"><ele>15.0</ele><time>2026-04-26T10:05:21.721Z</time></trkpt><trkpt lat="43.9063194" lon="12.9094795"><ele>15.0</ele><time>2026-04-26T10:05:23.715Z</time></trkpt><trkpt lat="43.9062095" lon="12.9094547"><ele>15.0</ele><time>2026-04-26T10:05:24.726Z</time></trkpt><trkpt lat="43.9061303" lon="12.9094375"><ele>15.0</ele><time>2026-04-26T10:05:25.723Z</time></trkpt><trkpt lat="43.9060595" lon="12.9094262"><ele>15.0</ele><time>2026-04-26T10:05:26.735Z</time></trkpt><trkpt lat="43.9059736" lon="12.9094066"><ele>15.0</ele><time>2026-04-26T10:05:27.718Z</time></trkpt><trkpt lat="43.9058649" lon="12.9093907"><ele>15.0</ele><time>2026-04-26T10:05:28.734Z</time></trkpt><trkpt lat="43.9058016" lon="12.9093653"><ele>15.0</ele><time>2026-04-26T10:05:29.725Z</time></trkpt><trkpt lat="43.9056416" lon="12.9093313"><ele>15.0</ele><time>2026-04-26T10:05:30.738Z</time></trkpt><trkpt lat="43.905572" lon="12.9092798"><ele>14.333333333333334</ele><time>2026-04-26T10:05:31.725Z</time></trkpt><trkpt lat="43.9054797" lon="12.9092583"><ele>13.666666666666666</ele><time>2026-04-26T10:05:32.73Z</time></trkpt><trkpt lat="43.9054098" lon="12.909238"><ele>13.0</ele><time>2026-04-26T10:05:33.721Z</time></trkpt><trkpt lat="43.9053232" lon="12.9091987"><ele>12.333333333333332</ele><time>2026-04-26T10:05:34.74Z</time></trkpt><trkpt lat="43.9052407" lon="12.909178"><ele>11.666666666666666</ele><time>2026-04-26T10:05:35.729Z</time></trkpt><trkpt lat="43.9052074" lon="12.9090537"><ele>11.0</ele><time>2026-04-26T10:05:47.724Z</time></trkpt><trkpt lat="43.9051071" lon="12.9091292"><ele>10.25</ele><time>2026-04-26T10:05:50.732Z</time></trkpt><trkpt lat="43.9048598" lon="12.9091577"><ele>9.5</ele><time>2026-04-26T10:05:51.742Z</time></trkpt><trkpt lat="43.9047925" lon="12.9092036"><ele>8.75</ele><time>2026-04-26T10:05:55.725Z</time></trkpt><trkpt lat="43.9047281" lon="12.9091999"><ele>8.0</ele><time>2026-04-26T10:05:56.73Z</time></trkpt><trkpt lat="43.9046453" lon="12.909191"><ele>7.999999999999999</ele><time>2026-04-26T10:05:58.713Z</time></trkpt><trkpt lat="43.9045335" lon="12.9091692"><ele>8.0</ele><time>2026-04-26T10:06:00.74Z</time></trkpt><trkpt lat="43.9044538" lon="12.9090895"><ele>8.0</ele><time>2026-04-26T10:06:03.724Z</time></trkpt><trkpt lat="43.9043966" lon="12.9090375"><ele>8.0</ele><time>2026-04-26T10:06:05.711Z</time></trkpt><trkpt lat="43.9043241" lon="12.9089694"><ele>7.999999999999999</ele><time>2026-04-26T10:06:08.737Z</time></trkpt><trkpt lat="43.9042426" lon="12.9089713"><ele>8.0</ele><time>2026-04-26T10:06:10.707Z</time></trkpt><trkpt lat="43.9041708" lon="12.9089811"><ele>8.75</ele><time>2026-04-26T10:06:11.722Z</time></trkpt><trkpt lat="43.9040705" lon="12.9089695"><ele>9.5</ele><time>2026-04-26T10:06:12.713Z</time></trkpt><trkpt lat="43.9038776" lon="12.9089646"><ele>10.25</ele><time>2026-04-26T10:06:13.719Z</time></trkpt><trkpt lat="43.903788" lon="12.908924"><ele>11.0</ele><time>2026-04-26T10:06:15.74Z</time></trkpt><trkpt lat="43.9036918" lon="12.9089232"><ele>11.0</ele><time>2026-04-26T10:06:17.726Z</time></trkpt><trkpt lat="43.9036228" lon="12.9088862"><ele>11.0</ele><time>2026-04-26T10:06:18.713Z</time></trkpt><trkpt lat="43.9034628" lon="12.9087477"><ele>11.0</ele><time>2026-04-26T10:06:20.727Z</time></trkpt><trkpt lat="43.9031972" lon="12.9087043"><ele>11.0</ele><time>2026-04-26T10:06:26.733Z</time></trkpt><trkpt lat="43.9031222" lon="12.9087114"><ele>11.0</ele><time>2026-04-26T10:06:28.717Z</time></trkpt><trkpt lat="43.9030013" lon="12.9086908"><ele>11.0</ele><time>2026-04-26T10:06:30.724Z</time></trkpt><trkpt lat="43.9029593" lon="12.9086216"><ele>11.0</ele><time>2026-04-26T10:06:31.72Z</time></trkpt><trkpt lat="43.9027969" lon="12.9085947"><ele>11.0</ele><time>2026-04-26T10:06:33.721Z</time></trkpt><trkpt lat="43.9027165" lon="12.9085372"><ele>10.25</ele><time>2026-04-26T10:06:35.713Z</time></trkpt><trkpt lat="43.9025798" lon="12.9085348"><ele>9.5</ele><time>2026-04-26T10:06:37.728Z</time></trkpt><trkpt lat="43.9024426" lon="12.9084999"><ele>8.75</ele><time>2026-04-26T10:06:38.727Z</time></trkpt><trkpt lat="43.9024936" lon="12.9083718"><ele>8.0</ele><time>2026-04-26T10:06:40.718Z</time></trkpt><trkpt lat="43.9024123" lon="12.9083923"><ele>8.0</ele><time>2026-04-26T10:06:46.725Z</time></trkpt><trkpt lat="43.9023439" lon="12.908383"><ele>8.0</ele><time>2026-04-26T10:06:49.73Z</time></trkpt><trkpt lat="43.9021049" lon="12.9083531"><ele>8.0</ele><time>2026-04-26T10:06:51.74Z</time></trkpt><trkpt lat="43.902038" lon="12.9083395"><ele>8.0</ele><time>2026-04-26T10:06:52.723Z</time></trkpt><trkpt lat="43.9019048" lon="12.9082959"><ele>8.0</ele><time>2026-04-26T10:06:53.722Z</time></trkpt><trkpt lat="43.9018188" lon="12.9082776"><ele>8.0</ele><time>2026-04-26T10:06:54.726Z</time></trkpt><trkpt lat="43.9016703" lon="12.908259"><ele>8.0</ele><time>2026-04-26T10:06:55.723Z</time></trkpt><trkpt lat="43.9015414" lon="12.9082647"><ele>8.0</ele><time>2026-04-26T10:06:56.725Z</time></trkpt><trkpt lat="43.9014279" lon="12.9082376"><ele>8.166666666666666</ele><time>2026-04-26T10:06:57.711Z</time></trkpt><trkpt lat="43.9013567" lon="12.9082161"><ele>8.333333333333332</ele><time>2026-04-26T10:06:58.727Z</time></trkpt><trkpt lat="43.9012465" lon="12.9081586"><ele>8.5</ele><time>2026-04-26T10:06:59.733Z</time></trkpt><trkpt lat="43.9011805" lon="12.9081073"><ele>8.666666666666666</ele><time>2026-04-26T10:07:01.721Z</time></trkpt><trkpt lat="43.9011139" lon="12.9080829"><ele>8.833333333333334</ele><time>2026-04-26T10:07:02.723Z</time></trkpt><trkpt lat="43.9010353" lon="12.9080828"><ele>9.0</ele><time>2026-04-26T10:07:04.723Z</time></trkpt><trkpt lat="43.9009738" lon="12.908061"><ele>9.0</ele><time>2026-04-26T10:07:06.738Z</time></trkpt><trkpt lat="43.9009079" lon="12.9079995"><ele>9.0</ele><time>2026-04-26T10:07:10.732Z</time></trkpt><trkpt lat="43.9008288" lon="12.9079917"><ele>9.0</ele><time>2026-04-26T10:07:12.713Z</time></trkpt><trkpt lat="43.9006794" lon="12.9079637"><ele>9.0</ele><time>2026-04-26T10:07:13.708Z</time></trkpt><trkpt lat="43.9006124" lon="12.907989"><ele>9.0</ele><time>2026-04-26T10:07:17.724Z</time></trkpt><trkpt lat="43.9005066" lon="12.9079969"><ele>9.0</ele><time>2026-04-26T10:07:20.725Z</time></trkpt><trkpt lat="43.9004335" lon="12.9079684"><ele>9.0</ele><time>2026-04-26T10:07:23.728Z</time></trkpt><trkpt lat="43.9003414" lon="12.9079434"><ele>9.0</ele><time>2026-04-26T10:07:25.72Z</time></trkpt><trkpt lat="43.9002557" lon="12.9079153"><ele>9.0</ele><time>2026-04-26T10:07:26.726Z</time></trkpt><trkpt lat="43.9000676" lon="12.9078203"><ele>9.0</ele><time>2026-04-26T10:07:27.714Z</time></trkpt><trkpt lat="43.8999814" lon="12.9077844"><ele>9.0</ele><time>2026-04-26T10:07:28.713Z</time></trkpt><trkpt lat="43.8998922" lon="12.907747"><ele>9.0</ele><time>2026-04-26T10:07:29.728Z</time></trkpt><trkpt lat="43.8998239" lon="12.9077033"><ele>9.0</ele><time>2026-04-26T10:07:30.74Z</time></trkpt><trkpt lat="43.8997472" lon="12.9076654"><ele>9.0</ele><time>2026-04-26T10:07:32.733Z</time></trkpt><trkpt lat="43.8996235" lon="12.9077301"><ele>9.0</ele><time>2026-04-26T10:07:34.734Z</time></trkpt><trkpt lat="43.8995323" lon="12.9077551"><ele>9.0</ele><time>2026-04-26T10:07:35.713Z</time></trkpt><trkpt lat="43.89946" lon="12.9077707"><ele>9.0</ele><time>2026-04-26T10:07:36.733Z</time></trkpt><trkpt lat="43.8993891" lon="12.9077885"><ele>9.0</ele><time>2026-04-26T10:07:37.722Z</time></trkpt><trkpt lat="43.8992804" lon="12.9078145"><ele>9.0</ele><time>2026-04-26T10:07:39.732Z</time></trkpt><trkpt lat="43.8992168" lon="12.9078213"><ele>9.0</ele><time>2026-04-26T10:07:40.731Z</time></trkpt><trkpt lat="43.8991546" lon="12.9078362"><ele>9.0</ele><time>2026-04-26T10:07:41.723Z</time></trkpt><trkpt lat="43.8990306" lon="12.9078557"><ele>9.0</ele><time>2026-04-26T10:07:43.712Z</time></trkpt><trkpt lat="43.8989463" lon="12.9078501"><ele>9.0</ele><time>2026-04-26T10:07:44.724Z</time></trkpt><trkpt lat="43.898883" lon="12.9078456"><ele>9.0</ele><time>2026-04-26T10:07:45.726Z</time></trkpt><trkpt lat="43.8989716" lon="12.9078326"><ele>9.0</ele><time>2026-04-26T10:07:46.71Z</time></trkpt><trkpt lat="43.8988846" lon="12.9078571"><ele>9.0</ele><time>2026-04-26T10:07:47.725Z</time></trkpt><trkpt lat="43.898792" lon="12.9078924"><ele>9.0</ele><time>2026-04-26T10:07:48.72Z</time></trkpt><trkpt lat="43.8987137" lon="12.907925"><ele>9.0</ele><time>2026-04-26T10:07:49.729Z</time></trkpt><trkpt lat="43.8986317" lon="12.9079362"><ele>9.0</ele><time>2026-04-26T10:07:50.729Z</time></trkpt><trkpt lat="43.8985663" lon="12.9079409"><ele>9.0</ele><time>2026-04-26T10:07:51.712Z</time></trkpt><trkpt lat="43.8984268" lon="12.9079423"><ele>8.8</ele><time>2026-04-26T10:07:52.72Z</time></trkpt><trkpt lat="43.8983079" lon="12.9079506"><ele>8.600000000000001</ele><time>2026-04-26T10:07:53.723Z</time></trkpt><trkpt lat="43.8982256" lon="12.907946"><ele>8.4</ele><time>2026-04-26T10:07:54.722Z</time></trkpt><trkpt lat="43.8981073" lon="12.9079725"><ele>8.200000000000001</ele><time>2026-04-26T10:07:59.718Z</time></trkpt><trkpt lat="43.8980419" lon="12.907992"><ele>8.0</ele><time>2026-04-26T10:08:00.709Z</time></trkpt><trkpt lat="43.8979819" lon="12.90803"><ele>7.999999999999999</ele><time>2026-04-26T10:08:02.708Z</time></trkpt><trkpt lat="43.8978979" lon="12.9080562"><ele>8.0</ele><time>2026-04-26T10:08:06.72Z</time></trkpt><trkpt lat="43.8978154" lon="12.9080707"><ele>8.0</ele><time>2026-04-26T10:08:08.712Z</time></trkpt><trkpt lat="43.8977367" lon="12.908092"><ele>8.0</ele><time>2026-04-26T10:08:09.708Z</time></trkpt><trkpt lat="43.8976655" lon="12.9081229"><ele>7.999999999999999</ele><time>2026-04-26T10:08:10.715Z</time></trkpt><trkpt lat="43.8975452" lon="12.9081559"><ele>8.0</ele><time>2026-04-26T10:08:11.719Z</time></trkpt><trkpt lat="43.8974475" lon="12.9082062"><ele>7.999999999999999</ele><time>2026-04-26T10:08:13.72Z</time></trkpt><trkpt lat="43.8973457" lon="12.9082483"><ele>8.0</ele><time>2026-04-26T10:08:15.709Z</time></trkpt><trkpt lat="43.8972468" lon="12.9082646"><ele>8.0</ele><time>2026-04-26T10:08:16.726Z</time></trkpt><trkpt lat="43.8971811" lon="12.9083299"><ele>8.0</ele><time>2026-04-26T10:08:18.723Z</time></trkpt><trkpt lat="43.8971242" lon="12.9083831"><ele>7.999999999999999</ele><time>2026-04-26T10:08:19.72Z</time></trkpt><trkpt lat="43.8970738" lon="12.9084364"><ele>8.0</ele><time>2026-04-26T10:08:20.743Z</time></trkpt><trkpt lat="43.8969797" lon="12.9084647"><ele>8.0</ele><time>2026-04-26T10:08:21.718Z</time></trkpt><trkpt lat="43.8969167" lon="12.9085076"><ele>8.0</ele><time>2026-04-26T10:08:22.733Z</time></trkpt><trkpt lat="43.8968251" lon="12.9085873"><ele>8.0</ele><time>2026-04-26T10:08:24.734Z</time></trkpt><trkpt lat="43.8967083" lon="12.9086459"><ele>8.0</ele><time>2026-04-26T10:08:26.729Z</time></trkpt><trkpt lat="43.896606" lon="12.9086809"><ele>8.0</ele><time>2026-04-26T10:08:28.729Z</time></trkpt><trkpt lat="43.8965423" lon="12.9087013"><ele>8.0</ele><time>2026-04-26T10:08:31.723Z</time></trkpt><trkpt lat="43.8964874" lon="12.9087459"><ele>7.999999999999999</ele><time>2026-04-26T10:08:33.723Z</time></trkpt><trkpt lat="43.8964267" lon="12.9087988"><ele>8.0</ele><time>2026-04-26T10:08:35.734Z</time></trkpt><trkpt lat="43.8963749" lon="12.9088485"><ele>8.0</ele><time>2026-04-26T10:08:37.715Z</time></trkpt><trkpt lat="43.8963041" lon="12.9088901"><ele>7.999999999999999</ele><time>2026-04-26T10:08:40.72Z</time></trkpt><trkpt lat="43.8962389" lon="12.9088762"><ele>8.0</ele><time>2026-04-26T10:08:45.718Z</time></trkpt><trkpt lat="43.896212" lon="12.9087747"><ele>8.0</ele><time>2026-04-26T10:08:49.722Z</time></trkpt><trkpt lat="43.8961993" lon="12.9086772"><ele>8.0</ele><time>2026-04-26T10:08:53.721Z</time></trkpt><trkpt lat="43.8961947" lon="12.9085694"><ele>8.0</ele><time>2026-04-26T10:08:57.709Z</time></trkpt><trkpt lat="43.8961299" lon="12.9085365"><ele>8.0</ele><time>2026-04-26T10:09:04.71Z</time></trkpt><trkpt lat="43.8960668" lon="12.9086263"><ele>8.0</ele><time>2026-04-26T10:09:07.722Z</time></trkpt><trkpt lat="43.8960075" lon="12.9086919"><ele>8.0</ele><time>2026-04-26T10:09:09.715Z</time></trkpt><trkpt lat="43.8960025" lon="12.9088884"><ele>8.0</ele><time>2026-04-26T10:09:11.706Z</time></trkpt><trkpt lat="43.8959998" lon="12.9089929"><ele>8.0</ele><time>2026-04-26T10:09:12.719Z</time></trkpt><trkpt lat="43.8959851" lon="12.9091862"><ele>8.0</ele><time>2026-04-26T10:09:14.708Z</time></trkpt><trkpt lat="43.8959664" lon="12.9093218"><ele>8.0</ele><time>2026-04-26T10:09:16.725Z</time></trkpt><trkpt lat="43.8958617" lon="12.9093551"><ele>8.0</ele><time>2026-04-26T10:09:17.726Z</time></trkpt><trkpt lat="43.8957658" lon="12.9093093"><ele>8.5</ele><time>2026-04-26T10:09:19.716Z</time></trkpt><trkpt lat="43.8956912" lon="12.9093008"><ele>9.0</ele><time>2026-04-26T10:09:21.725Z</time></trkpt><trkpt lat="43.8956517" lon="12.9094044"><ele>9.5</ele><time>2026-04-26T10:09:22.707Z</time></trkpt><trkpt lat="43.895578" lon="12.9094987"><ele>10.0</ele><time>2026-04-26T10:09:23.71Z</time></trkpt><trkpt lat="43.8955022" lon="12.9095439"><ele>10.5</ele><time>2026-04-26T10:09:24.731Z</time></trkpt><trkpt lat="43.8954338" lon="12.909579"><ele>11.0</ele><time>2026-04-26T10:09:25.715Z</time></trkpt><trkpt lat="43.8953939" lon="12.9096898"><ele>11.0</ele><time>2026-04-26T10:09:28.724Z</time></trkpt><trkpt lat="43.8953262" lon="12.9097288"><ele>11.0</ele><time>2026-04-26T10:09:31.711Z</time></trkpt><trkpt lat="43.8952175" lon="12.9097442"><ele>11.0</ele><time>2026-04-26T10:09:33.714Z</time></trkpt><trkpt lat="43.8950462" lon="12.9097784"><ele>11.0</ele><time>2026-04-26T10:09:34.745Z</time></trkpt><trkpt lat="43.8949239" lon="12.9097325"><ele>10.666666666666666</ele><time>2026-04-26T10:09:35.715Z</time></trkpt><trkpt lat="43.8948787" lon="12.9096655"><ele>10.333333333333332</ele><time>2026-04-26T10:09:36.715Z</time></trkpt><trkpt lat="43.894772" lon="12.9096429"><ele>10.0</ele><time>2026-04-26T10:09:38.716Z</time></trkpt><trkpt lat="43.8947107" lon="12.9096154"><ele>9.666666666666666</ele><time>2026-04-26T10:09:39.724Z</time></trkpt><trkpt lat="43.8946349" lon="12.9096064"><ele>9.333333333333334</ele><time>2026-04-26T10:09:40.718Z</time></trkpt><trkpt lat="43.8945716" lon="12.9095516"><ele>9.0</ele><time>2026-04-26T10:09:41.724Z</time></trkpt><trkpt lat="43.8945069" lon="12.9095348"><ele>9.0</ele><time>2026-04-26T10:09:42.738Z</time></trkpt><trkpt lat="43.8944471" lon="12.9094642"><ele>9.0</ele><time>2026-04-26T10:09:43.717Z</time></trkpt><trkpt lat="43.8943911" lon="12.9094212"><ele>9.0</ele><time>2026-04-26T10:09:44.709Z</time></trkpt><trkpt lat="43.894326" lon="12.9093518"><ele>9.0</ele><time>2026-04-26T10:09:45.729Z</time></trkpt><trkpt lat="43.8942652" lon="12.9093058"><ele>9.0</ele><time>2026-04-26T10:09:46.717Z</time></trkpt><trkpt lat="43.8941716" lon="12.9092361"><ele>9.0</ele><time>2026-04-26T10:09:48.713Z</time></trkpt><trkpt lat="43.8940613" lon="12.909153"><ele>9.2</ele><time>2026-04-26T10:09:50.73Z</time></trkpt><trkpt lat="43.8939932" lon="12.9091067"><ele>9.4</ele><time>2026-04-26T10:09:51.722Z</time></trkpt><trkpt lat="43.8938778" lon="12.9090176"><ele>9.6</ele><time>2026-04-26T10:09:53.724Z</time></trkpt><trkpt lat="43.8938103" lon="12.9089736"><ele>9.8</ele><time>2026-04-26T10:09:54.712Z</time></trkpt><trkpt lat="43.8937082" lon="12.9088627"><ele>10.0</ele><time>2026-04-26T10:09:56.727Z</time></trkpt><trkpt lat="43.8936272" lon="12.9087966"><ele>10.0</ele><time>2026-04-26T10:09:58.713Z</time></trkpt><trkpt lat="43.8935523" lon="12.9087156"><ele>10.0</ele><time>2026-04-26T10:10:00.721Z</time></trkpt><trkpt lat="43.8934946" lon="12.9086433"><ele>10.0</ele><time>2026-04-26T10:10:01.718Z</time></trkpt><trkpt lat="43.8934101" lon="12.9085867"><ele>10.0</ele><time>2026-04-26T10:10:03.725Z</time></trkpt><trkpt lat="43.893318" lon="12.908542"><ele>10.0</ele><time>2026-04-26T10:10:04.719Z</time></trkpt><trkpt lat="43.8931977" lon="12.9085198"><ele>9.833333333333334</ele><time>2026-04-26T10:10:06.711Z</time></trkpt><trkpt lat="43.8930905" lon="12.9084435"><ele>9.666666666666668</ele><time>2026-04-26T10:10:08.713Z</time></trkpt><trkpt lat="43.8929878" lon="12.9083563"><ele>9.5</ele><time>2026-04-26T10:10:10.712Z</time></trkpt><trkpt lat="43.8929232" lon="12.9083145"><ele>9.333333333333334</ele><time>2026-04-26T10:10:11.765Z</time></trkpt><trkpt lat="43.8928636" lon="12.9082667"><ele>9.166666666666666</ele><time>2026-04-26T10:10:12.713Z</time></trkpt><trkpt lat="43.8928006" lon="12.9082408"><ele>9.0</ele><time>2026-04-26T10:10:13.714Z</time></trkpt><trkpt lat="43.8927372" lon="12.9082253"><ele>9.0</ele><time>2026-04-26T10:10:14.72Z</time></trkpt><trkpt lat="43.8926478" lon="12.908249"><ele>9.0</ele><time>2026-04-26T10:10:16.721Z</time></trkpt><trkpt lat="43.8925759" lon="12.908251"><ele>9.0</ele><time>2026-04-26T10:10:18.721Z</time></trkpt><trkpt lat="43.8925021" lon="12.9082495"><ele>9.0</ele><time>2026-04-26T10:10:19.715Z</time></trkpt><trkpt lat="43.8923696" lon="12.9082637"><ele>9.0</ele><time>2026-04-26T10:10:21.723Z</time></trkpt><trkpt lat="43.8922772" lon="12.9082476"><ele>9.5</ele><time>2026-04-26T10:10:23.712Z</time></trkpt><trkpt lat="43.892184" lon="12.9082863"><ele>10.0</ele><time>2026-04-26T10:10:25.725Z</time></trkpt><trkpt lat="43.8920912" lon="12.9083074"><ele>10.5</ele><time>2026-04-26T10:10:27.714Z</time></trkpt><trkpt lat="43.8920067" lon="12.9082857"><ele>11.0</ele><time>2026-04-26T10:10:28.712Z</time></trkpt><trkpt lat="43.8919193" lon="12.9082287"><ele>11.5</ele><time>2026-04-26T10:10:30.723Z</time></trkpt><trkpt lat="43.8918546" lon="12.9082148"><ele>12.0</ele><time>2026-04-26T10:10:31.717Z</time></trkpt><trkpt lat="43.8917852" lon="12.9082058"><ele>11.75</ele><time>2026-04-26T10:10:32.709Z</time></trkpt><trkpt lat="43.8916558" lon="12.9081962"><ele>11.5</ele><time>2026-04-26T10:10:34.707Z</time></trkpt><trkpt lat="43.8915363" lon="12.9081873"><ele>11.25</ele><time>2026-04-26T10:10:36.707Z</time></trkpt><trkpt lat="43.8914201" lon="12.9081396"><ele>11.0</ele><time>2026-04-26T10:10:38.711Z</time></trkpt><trkpt lat="43.8913127" lon="12.9081217"><ele>11.0</ele><time>2026-04-26T10:10:40.715Z</time></trkpt><trkpt lat="43.8912497" lon="12.9081001"><ele>11.0</ele><time>2026-04-26T10:10:41.726Z</time></trkpt><trkpt lat="43.8911212" lon="12.9080508"><ele>11.0</ele><time>2026-04-26T10:10:43.723Z</time></trkpt><trkpt lat="43.891053" lon="12.9080264"><ele>11.0</ele><time>2026-04-26T10:10:44.715Z</time></trkpt><trkpt lat="43.8909389" lon="12.908002"><ele>11.0</ele><time>2026-04-26T10:10:46.714Z</time></trkpt><trkpt lat="43.8908499" lon="12.9079784"><ele>11.166666666666666</ele><time>2026-04-26T10:10:48.718Z</time></trkpt><trkpt lat="43.8907738" lon="12.9079534"><ele>11.333333333333332</ele><time>2026-04-26T10:10:50.721Z</time></trkpt><trkpt lat="43.8907092" lon="12.907896"><ele>11.5</ele><time>2026-04-26T10:10:52.707Z</time></trkpt><trkpt lat="43.8906448" lon="12.9078688"><ele>11.666666666666666</ele><time>2026-04-26T10:10:53.71Z</time></trkpt><trkpt lat="43.8905679" lon="12.9078509"><ele>11.833333333333334</ele><time>2026-04-26T10:10:54.71Z</time></trkpt><trkpt lat="43.8905042" lon="12.9078251"><ele>12.0</ele><time>2026-04-26T10:10:55.711Z</time></trkpt><trkpt lat="43.8903744" lon="12.9077571"><ele>12.0</ele><time>2026-04-26T10:10:57.714Z</time></trkpt><trkpt lat="43.8903005" lon="12.9077402"><ele>12.0</ele><time>2026-04-26T10:10:58.714Z</time></trkpt><trkpt lat="43.8902129" lon="12.9077108"><ele>12.0</ele><time>2026-04-26T10:11:00.709Z</time></trkpt><trkpt lat="43.8900778" lon="12.9076524"><ele>12.0</ele><time>2026-04-26T10:11:02.709Z</time></trkpt><trkpt lat="43.8899646" lon="12.9076201"><ele>12.0</ele><time>2026-04-26T10:11:04.706Z</time></trkpt><trkpt lat="43.889896" lon="12.9075827"><ele>12.166666666666666</ele><time>2026-04-26T10:11:06.707Z</time></trkpt><trkpt lat="43.8898433" lon="12.9075259"><ele>12.333333333333332</ele><time>2026-04-26T10:11:07.723Z</time></trkpt><trkpt lat="43.8897999" lon="12.9074509"><ele>12.5</ele><time>2026-04-26T10:11:08.713Z</time></trkpt><trkpt lat="43.8897111" lon="12.9074175"><ele>12.666666666666666</ele><time>2026-04-26T10:11:10.709Z</time></trkpt><trkpt lat="43.8896448" lon="12.9074389"><ele>12.833333333333332</ele><time>2026-04-26T10:11:11.715Z</time></trkpt><trkpt lat="43.8895883" lon="12.9075736"><ele>13.0</ele><time>2026-04-26T10:11:13.712Z</time></trkpt><trkpt lat="43.8895209" lon="12.9077231"><ele>13.0</ele><time>2026-04-26T10:11:15.709Z</time></trkpt><trkpt lat="43.8894447" lon="12.9078486"><ele>13.0</ele><time>2026-04-26T10:11:17.71Z</time></trkpt><trkpt lat="43.8893557" lon="12.9079316"><ele>13.0</ele><time>2026-04-26T10:11:19.708Z</time></trkpt><trkpt lat="43.8892767" lon="12.9080267"><ele>13.0</ele><time>2026-04-26T10:11:21.709Z</time></trkpt><trkpt lat="43.8891984" lon="12.9080722"><ele>13.0</ele><time>2026-04-26T10:11:23.71Z</time></trkpt><trkpt lat="43.8891394" lon="12.9080102"><ele>12.714285714285714</ele><time>2026-04-26T10:11:35.716Z</time></trkpt><trkpt lat="43.8890819" lon="12.9079502"><ele>12.428571428571429</ele><time>2026-04-26T10:11:42.717Z</time></trkpt><trkpt lat="43.8890298" lon="12.9078987"><ele>12.142857142857142</ele><time>2026-04-26T10:12:16.716Z</time></trkpt><trkpt lat="43.8889835" lon="12.9078312"><ele>11.857142857142858</ele><time>2026-04-26T10:13:22.718Z</time></trkpt><trkpt lat="43.8889241" lon="12.9078706"><ele>11.571428571428571</ele><time>2026-04-26T10:14:30.542Z</time></trkpt><trkpt lat="43.8888583" lon="12.907894"><ele>11.285714285714286</ele><time>2026-04-26T10:14:36.6Z</time></trkpt><trkpt lat="43.8887983" lon="12.9079236"><ele>11.0</ele><time>2026-04-26T10:14:42.923Z</time></trkpt><trkpt lat="43.8887343" lon="12.9079497"><ele>11.0</ele><time>2026-04-26T10:14:48.1Z</time></trkpt><trkpt lat="43.8886922" lon="12.9080249"><ele>11.0</ele><time>2026-04-26T10:14:54.444Z</time></trkpt><trkpt lat="43.8886502" lon="12.9079441"><ele>11.0</ele><time>2026-04-26T10:14:58.283Z</time></trkpt><trkpt lat="43.8885664" lon="12.9079017"><ele>11.0</ele><time>2026-04-26T10:16:14.666Z</time></trkpt><trkpt lat="43.8885004" lon="12.9079183"><ele>11.0</ele><time>2026-04-26T10:16:21.454Z</time></trkpt><trkpt lat="43.8884542" lon="12.9079934"><ele>11.0</ele><time>2026-04-26T10:16:28.723Z</time></trkpt><trkpt lat="43.8884251" lon="12.9080844"><ele>11.0</ele><time>2026-04-26T10:16:33.921Z</time></trkpt><trkpt lat="43.888435" lon="12.9082167"><ele>11.0</ele><time>2026-04-26T10:16:40.566Z</time></trkpt><trkpt lat="43.8884939" lon="12.9082603"><ele>11.0</ele><time>2026-04-26T10:16:45.422Z</time></trkpt><trkpt lat="43.8885575" lon="12.9082819"><ele>11.0</ele><time>2026-04-26T10:16:50.463Z</time></trkpt><trkpt lat="43.8886427" lon="12.9082158"><ele>11.0</ele><time>2026-04-26T10:17:36.187Z</time></trkpt><trkpt lat="43.8887128" lon="12.9082023"><ele>11.0</ele><time>2026-04-26T10:18:16.889Z</time></trkpt><trkpt lat="43.8887709" lon="12.9081543"><ele>11.0</ele><time>2026-04-26T10:18:26.807Z</time></trkpt><trkpt lat="43.8888378" lon="12.9080934"><ele>11.0</ele><time>2026-04-26T10:18:42.348Z</time></trkpt><trkpt lat="43.8889056" lon="12.9080922"><ele>11.0</ele><time>2026-04-26T10:20:46.72Z</time></trkpt><trkpt lat="43.8889663" lon="12.908065"><ele>11.0</ele><time>2026-04-26T10:20:54.627Z</time></trkpt><trkpt lat="43.8890317" lon="12.9080631"><ele>11.0</ele><time>2026-04-26T10:20:59.723Z</time></trkpt><trkpt lat="43.8890001" lon="12.9079778"><ele>11.0</ele><time>2026-04-26T10:21:39.72Z</time></trkpt><trkpt lat="43.8890116" lon="12.9078919"><ele>11.0</ele><time>2026-04-26T10:22:01.718Z</time></trkpt><trkpt lat="43.8889903" lon="12.9078088"><ele>11.0</ele><time>2026-04-26T10:22:32.719Z</time></trkpt><trkpt lat="43.8890773" lon="12.9078733"><ele>11.0</ele><time>2026-04-26T10:25:45.721Z</time></trkpt><trkpt lat="43.8891312" lon="12.9079419"><ele>11.0</ele><time>2026-04-26T10:25:47.71Z</time></trkpt><trkpt lat="43.889199" lon="12.9079311"><ele>11.0</ele><time>2026-04-26T10:25:49.715Z</time></trkpt><trkpt lat="43.8892853" lon="12.9078606"><ele>11.0</ele><time>2026-04-26T10:25:51.716Z</time></trkpt><trkpt lat="43.8893697" lon="12.9078095"><ele>11.0</ele><time>2026-04-26T10:25:53.714Z</time></trkpt><trkpt lat="43.8894591" lon="12.9077622"><ele>11.0</ele><time>2026-04-26T10:25:55.731Z</time></trkpt><trkpt lat="43.8895411" lon="12.9077507"><ele>11.0</ele><time>2026-04-26T10:25:57.667Z</time></trkpt><trkpt lat="43.8896155" lon="12.907782"><ele>11.166666666666666</ele><time>2026-04-26T10:25:59.721Z</time></trkpt><trkpt lat="43.8896833" lon="12.9078027"><ele>11.333333333333332</ele><time>2026-04-26T10:26:01.713Z</time></trkpt><trkpt lat="43.8897492" lon="12.9077864"><ele>11.5</ele><time>2026-04-26T10:26:03.732Z</time></trkpt><trkpt lat="43.8898333" lon="12.9077527"><ele>11.666666666666666</ele><time>2026-04-26T10:26:06.707Z</time></trkpt><trkpt lat="43.8899319" lon="12.9077842"><ele>11.833333333333334</ele><time>2026-04-26T10:26:09.724Z</time></trkpt><trkpt lat="43.8900118" lon="12.9078049"><ele>12.0</ele><time>2026-04-26T10:26:11.661Z</time></trkpt><trkpt lat="43.8900925" lon="12.9078191"><ele>12.0</ele><time>2026-04-26T10:26:13.725Z</time></trkpt><trkpt lat="43.8902182" lon="12.9077841"><ele>12.0</ele><time>2026-04-26T10:26:48.703Z</time></trkpt><trkpt lat="43.8902992" lon="12.9078084"><ele>12.0</ele><time>2026-04-26T10:26:49.718Z</time></trkpt><trkpt lat="43.8903622" lon="12.9078284"><ele>12.0</ele><time>2026-04-26T10:26:50.704Z</time></trkpt><trkpt lat="43.89042" lon="12.9078667"><ele>12.0</ele><time>2026-04-26T10:26:51.709Z</time></trkpt><trkpt lat="43.8904969" lon="12.9078935"><ele>12.0</ele><time>2026-04-26T10:26:52.71Z</time></trkpt><trkpt lat="43.8905709" lon="12.9079085"><ele>12.0</ele><time>2026-04-26T10:26:53.722Z</time></trkpt><trkpt lat="43.8906571" lon="12.9078588"><ele>12.0</ele><time>2026-04-26T10:26:55.725Z</time></trkpt><trkpt lat="43.8907854" lon="12.9079222"><ele>12.0</ele><time>2026-04-26T10:26:57.752Z</time></trkpt><trkpt lat="43.890835" lon="12.9079848"><ele>12.0</ele><time>2026-04-26T10:26:58.724Z</time></trkpt><trkpt lat="43.8909254" lon="12.9079614"><ele>12.0</ele><time>2026-04-26T10:27:00.721Z</time></trkpt><trkpt lat="43.8910449" lon="12.908032"><ele>11.8</ele><time>2026-04-26T10:27:02.714Z</time></trkpt><trkpt lat="43.8911045" lon="12.9080773"><ele>11.6</ele><time>2026-04-26T10:27:03.708Z</time></trkpt><trkpt lat="43.8911906" lon="12.9081762"><ele>11.4</ele><time>2026-04-26T10:27:05.716Z</time></trkpt><trkpt lat="43.8912932" lon="12.908246"><ele>11.200000000000001</ele><time>2026-04-26T10:27:07.716Z</time></trkpt><trkpt lat="43.8913458" lon="12.9083304"><ele>11.0</ele><time>2026-04-26T10:27:09.727Z</time></trkpt><trkpt lat="43.8914198" lon="12.9084022"><ele>11.0</ele><time>2026-04-26T10:27:11.724Z</time></trkpt><trkpt lat="43.8915109" lon="12.9084468"><ele>11.0</ele><time>2026-04-26T10:27:13.719Z</time></trkpt><trkpt lat="43.891615" lon="12.9084786"><ele>11.0</ele><time>2026-04-26T10:27:15.722Z</time></trkpt><trkpt lat="43.8917148" lon="12.9084867"><ele>11.0</ele><time>2026-04-26T10:27:17.708Z</time></trkpt><trkpt lat="43.891828" lon="12.9085134"><ele>11.0</ele><time>2026-04-26T10:27:19.732Z</time></trkpt><trkpt lat="43.8919219" lon="12.9085136"><ele>11.0</ele><time>2026-04-26T10:27:20.726Z</time></trkpt><trkpt lat="43.8921242" lon="12.9084894"><ele>11.0</ele><time>2026-04-26T10:27:22.727Z</time></trkpt><trkpt lat="43.8921911" lon="12.9084782"><ele>11.0</ele><time>2026-04-26T10:27:23.711Z</time></trkpt><trkpt lat="43.8922724" lon="12.908455"><ele>11.0</ele><time>2026-04-26T10:27:25.722Z</time></trkpt><trkpt lat="43.8923412" lon="12.9084567"><ele>11.0</ele><time>2026-04-26T10:27:26.705Z</time></trkpt><trkpt lat="43.8924401" lon="12.9084181"><ele>11.166666666666666</ele><time>2026-04-26T10:27:28.716Z</time></trkpt><trkpt lat="43.8925152" lon="12.9084073"><ele>11.333333333333332</ele><time>2026-04-26T10:27:30.728Z</time></trkpt><trkpt lat="43.8926051" lon="12.9084205"><ele>11.5</ele><time>2026-04-26T10:27:32.707Z</time></trkpt><trkpt lat="43.8926967" lon="12.9084694"><ele>11.666666666666666</ele><time>2026-04-26T10:27:34.715Z</time></trkpt><trkpt lat="43.8927769" lon="12.9085285"><ele>11.833333333333334</ele><time>2026-04-26T10:27:35.704Z</time></trkpt><trkpt lat="43.8928614" lon="12.9085808"><ele>12.0</ele><time>2026-04-26T10:27:37.713Z</time></trkpt><trkpt lat="43.8929799" lon="12.9086425"><ele>11.666666666666666</ele><time>2026-04-26T10:27:39.712Z</time></trkpt><trkpt lat="43.8930389" lon="12.9086853"><ele>11.333333333333334</ele><time>2026-04-26T10:27:40.721Z</time></trkpt><trkpt lat="43.8931194" lon="12.9087141"><ele>11.0</ele><time>2026-04-26T10:27:42.732Z</time></trkpt><trkpt lat="43.8931817" lon="12.9087338"><ele>10.666666666666668</ele><time>2026-04-26T10:27:43.73Z</time></trkpt><trkpt lat="43.8932743" lon="12.9087829"><ele>10.333333333333334</ele><time>2026-04-26T10:27:45.725Z</time></trkpt><trkpt lat="43.8933531" lon="12.908793"><ele>10.0</ele><time>2026-04-26T10:27:47.735Z</time></trkpt><trkpt lat="43.8934365" lon="12.9088495"><ele>10.0</ele><time>2026-04-26T10:27:49.719Z</time></trkpt><trkpt lat="43.8935221" lon="12.908859"><ele>10.0</ele><time>2026-04-26T10:27:51.72Z</time></trkpt><trkpt lat="43.8935987" lon="12.9089226"><ele>10.0</ele><time>2026-04-26T10:27:52.705Z</time></trkpt><trkpt lat="43.8936888" lon="12.9089672"><ele>10.0</ele><time>2026-04-26T10:27:54.723Z</time></trkpt><trkpt lat="43.8937686" lon="12.9090364"><ele>10.0</ele><time>2026-04-26T10:27:56.715Z</time></trkpt><trkpt lat="43.8938595" lon="12.9090935"><ele>10.0</ele><time>2026-04-26T10:27:59.721Z</time></trkpt><trkpt lat="43.8939226" lon="12.9091593"><ele>10.0</ele><time>2026-04-26T10:28:00.713Z</time></trkpt><trkpt lat="43.8940253" lon="12.9092331"><ele>10.0</ele><time>2026-04-26T10:28:02.721Z</time></trkpt><trkpt lat="43.8941243" lon="12.9092855"><ele>10.0</ele><time>2026-04-26T10:28:04.74Z</time></trkpt><trkpt lat="43.8942239" lon="12.909345"><ele>10.0</ele><time>2026-04-26T10:28:06.727Z</time></trkpt><trkpt lat="43.8942927" lon="12.909397"><ele>9.833333333333334</ele><time>2026-04-26T10:28:08.72Z</time></trkpt><trkpt lat="43.8943536" lon="12.9094414"><ele>9.666666666666668</ele><time>2026-04-26T10:28:10.726Z</time></trkpt><trkpt lat="43.8943984" lon="12.9095123"><ele>9.5</ele><time>2026-04-26T10:28:48.721Z</time></trkpt><trkpt lat="43.894488" lon="12.9095874"><ele>9.333333333333334</ele><time>2026-04-26T10:28:54.713Z</time></trkpt><trkpt lat="43.894581" lon="12.9096263"><ele>9.166666666666666</ele><time>2026-04-26T10:28:56.708Z</time></trkpt><trkpt lat="43.8946826" lon="12.9096452"><ele>9.0</ele><time>2026-04-26T10:28:58.71Z</time></trkpt><trkpt lat="43.8947769" lon="12.9096962"><ele>9.0</ele><time>2026-04-26T10:29:00.725Z</time></trkpt><trkpt lat="43.8948745" lon="12.909739"><ele>9.0</ele><time>2026-04-26T10:29:02.704Z</time></trkpt><trkpt lat="43.8949589" lon="12.9097895"><ele>9.0</ele><time>2026-04-26T10:29:04.707Z</time></trkpt><trkpt lat="43.8950203" lon="12.9098277"><ele>9.0</ele><time>2026-04-26T10:29:05.706Z</time></trkpt><trkpt lat="43.8950962" lon="12.9098848"><ele>9.0</ele><time>2026-04-26T10:29:07.705Z</time></trkpt><trkpt lat="43.8951934" lon="12.9099418"><ele>8.8</ele><time>2026-04-26T10:29:09.703Z</time></trkpt><trkpt lat="43.8952564" lon="12.9099901"><ele>8.600000000000001</ele><time>2026-04-26T10:29:10.702Z</time></trkpt><trkpt lat="43.8953108" lon="12.9100739"><ele>8.4</ele><time>2026-04-26T10:29:11.711Z</time></trkpt><trkpt lat="43.8954095" lon="12.9101226"><ele>8.200000000000001</ele><time>2026-04-26T10:29:13.725Z</time></trkpt><trkpt lat="43.8955066" lon="12.9101756"><ele>8.0</ele><time>2026-04-26T10:29:15.725Z</time></trkpt><trkpt lat="43.8955946" lon="12.9102145"><ele>8.0</ele><time>2026-04-26T10:29:17.714Z</time></trkpt><trkpt lat="43.8956648" lon="12.9102684"><ele>8.0</ele><time>2026-04-26T10:29:18.71Z</time></trkpt><trkpt lat="43.8957731" lon="12.9103436"><ele>8.0</ele><time>2026-04-26T10:29:21.721Z</time></trkpt><trkpt lat="43.8958604" lon="12.9104248"><ele>8.0</ele><time>2026-04-26T10:29:24.714Z</time></trkpt><trkpt lat="43.8961315" lon="12.9104703"><ele>8.0</ele><time>2026-04-26T10:29:30.724Z</time></trkpt><trkpt lat="43.8962317" lon="12.910407"><ele>8.0</ele><time>2026-04-26T10:29:31.71Z</time></trkpt><trkpt lat="43.8963412" lon="12.9104433"><ele>8.0</ele><time>2026-04-26T10:29:32.703Z</time></trkpt><trkpt lat="43.8964724" lon="12.910487"><ele>8.0</ele><time>2026-04-26T10:29:34.702Z</time></trkpt><trkpt lat="43.8965409" lon="12.9105391"><ele>8.0</ele><time>2026-04-26T10:29:36.707Z</time></trkpt><trkpt lat="43.8966428" lon="12.9105837"><ele>7.833333333333333</ele><time>2026-04-26T10:29:38.713Z</time></trkpt><trkpt lat="43.8967566" lon="12.9106366"><ele>7.666666666666666</ele><time>2026-04-26T10:29:42.722Z</time></trkpt><trkpt lat="43.896814" lon="12.9106757"><ele>7.5</ele><time>2026-04-26T10:29:44.705Z</time></trkpt><trkpt lat="43.8968831" lon="12.9107161"><ele>7.333333333333334</ele><time>2026-04-26T10:29:46.704Z</time></trkpt><trkpt lat="43.8969649" lon="12.9107691"><ele>7.166666666666667</ele><time>2026-04-26T10:29:48.707Z</time></trkpt><trkpt lat="43.8970449" lon="12.9108288"><ele>7.0</ele><time>2026-04-26T10:29:50.702Z</time></trkpt><trkpt lat="43.8971138" lon="12.9108853"><ele>7.000000000000001</ele><time>2026-04-26T10:29:52.71Z</time></trkpt><trkpt lat="43.8971721" lon="12.9108386"><ele>7.0</ele><time>2026-04-26T10:29:56.712Z</time></trkpt><trkpt lat="43.8972213" lon="12.9107481"><ele>7.0</ele><time>2026-04-26T10:29:58.721Z</time></trkpt><trkpt lat="43.8972792" lon="12.9106842"><ele>7.0</ele><time>2026-04-26T10:30:02.707Z</time></trkpt><trkpt lat="43.8973468" lon="12.9106553"><ele>7.000000000000001</ele><time>2026-04-26T10:30:05.718Z</time></trkpt><trkpt lat="43.8974252" lon="12.9106386"><ele>7.0</ele><time>2026-04-26T10:30:07.717Z</time></trkpt><trkpt lat="43.8975499" lon="12.9106237"><ele>7.166666666666667</ele><time>2026-04-26T10:30:10.726Z</time></trkpt><trkpt lat="43.8976571" lon="12.9106112"><ele>7.333333333333334</ele><time>2026-04-26T10:30:12.717Z</time></trkpt><trkpt lat="43.8977426" lon="12.9105974"><ele>7.5</ele><time>2026-04-26T10:30:14.721Z</time></trkpt><trkpt lat="43.8978185" lon="12.9105879"><ele>7.666666666666666</ele><time>2026-04-26T10:30:16.729Z</time></trkpt><trkpt lat="43.8978844" lon="12.9105874"><ele>7.833333333333333</ele><time>2026-04-26T10:30:17.71Z</time></trkpt><trkpt lat="43.8979896" lon="12.9106099"><ele>8.0</ele><time>2026-04-26T10:30:29.702Z</time></trkpt><trkpt lat="43.8979975" lon="12.9107169"><ele>7.999999999999999</ele><time>2026-04-26T10:30:31.707Z</time></trkpt><trkpt lat="43.8980122" lon="12.9108401"><ele>8.0</ele><time>2026-04-26T10:30:33.722Z</time></trkpt><trkpt lat="43.8980437" lon="12.9109469"><ele>8.0</ele><time>2026-04-26T10:30:36.717Z</time></trkpt><trkpt lat="43.8980879" lon="12.9110267"><ele>8.0</ele><time>2026-04-26T10:30:42.723Z</time></trkpt><trkpt lat="43.8980154" lon="12.9110637"><ele>7.999999999999999</ele><time>2026-04-26T10:31:44.705Z</time></trkpt><trkpt lat="43.8980728" lon="12.9109881"><ele>8.0</ele><time>2026-04-26T10:38:14.701Z</time></trkpt><trkpt lat="43.8981157" lon="12.9109128"><ele>7.0</ele><time>2026-04-26T10:38:21.705Z</time></trkpt><trkpt lat="43.8981378" lon="12.9108255"><ele>8.0</ele><time>2026-04-26T10:38:28.723Z</time></trkpt><trkpt lat="43.8981627" lon="12.910736"><ele>8.0</ele><time>2026-04-26T10:38:37.721Z</time></trkpt></trkseg></trk></gpx>